GFSSE_sfc_rhum_000.txt.gz
RH
98 94 89 92 92 91 90 89 88 86 84 81 80 78 77 77 78 79 80 82 78 72 72 72 72 73 73 76 79 81 82 83 86 82 82 75 69 68 70 78 80 75 77
92 96 93 92 92 90 90 89 88 87 84 79 79 79 78 77 78 79 78 74 70 66 66 68 69 70 73 77 81 83 83 84 87 85 82 80 78 73 69 76 77 78 79
96 94 90 92 91 91 89 89 89 86 81 80 81 80 78 77 78 78 77 76 69 65 64 64 66 70 74 79 82 82 82 84 84 85 83 87 88 76 74 76 78 76 76
92 95 92 93 92 92 91 90 88 83 81 82 82 80 78 77 75 75 76 76 69 65 64 63 64 67 72 76 77 76 76 78 82 85 90 90 85 80 78 72 73 72 74
98 97 93 94 94 92 92 91 89 89 88 87 85 79 78 75 73 72 74 70 66 64 63 62 63 67 71 75 75 74 74 77 80 85 89 91 94 87 78 73 77 77 80
99 98 98 97 95 93 92 93 94 93 93 91 87 80 77 74 72 72 71 66 64 62 60 60 64 68 72 74 74 74 77 80 85 90 90 84 93 86 79 79 81 82 80
98 99 98 98 96 94 93 94 94 94 91 91 88 83 79 76 74 73 70 67 66 64 65 66 68 71 72 73 73 76 79 82 92 89 85 91 96 84 79 75 79 79 77
93 96 97 96 96 95 94 95 95 93 92 92 89 84 79 79 79 73 69 69 69 67 68 71 72 73 74 75 77 84 85 86 88 85 81 86 83 81 72 69 81 78 74
85 97 94 98 96 96 96 96 96 95 94 94 92 89 86 87 84 74 72 73 73 72 73 74 76 78 77 80 82 85 86 83 86 85 73 85 82 79 70 68 74 82 81
77 77 82 86 94 99 98 97 95 94 94 93 92 91 89 88 85 82 82 77 78 79 78 78 78 79 81 83 84 87 88 73 77 81 81 85 79 73 69 67 71 76 77
84 83 91 90 98 99 98 97 94 93 92 92 91 89 92 94 92 91 88 87 83 84 83 83 84 84 85 88 86 87 85 78 71 73 75 73 73 63 63 69 74 76 75
88 92 94 99 98 98 93 98 98 95 96 96 95 94 96 94 94 90 90 87 88 89 90 90 90 90 92 97 97 89 90 83 71 68 69 72 69 60 59 64 72 73 73
96 98 98 97 97 98 96 99 99 99 98 97 94 94 94 94 96 97 98 97 96 91 97 94 95 96 94 96 96 95 92 87 79 70 64 74 71 64 58 57 64 66 69
93 93 94 95 96 96 96 98 97 98 97 98 97 94 96 97 95 93 96 89 85 86 82 87 92 90 90 85 80 85 88 87 80 72 70 73 71 65 59 57 57 64 66
84 86 88 92 93 92 92 96 96 96 97 96 96 94 95 94 86 86 82 81 81 84 85 83 82 80 79 77 75 77 77 76 74 72 74 71 74 67 63 58 54 55 61
74 78 84 89 87 80 84 89 96 96 95 96 97 90 81 85 82 79 72 72 75 82 80 82 83 82 79 75 67 71 69 70 69 74 73 74 75 72 70 69 69 67 64
69 74 86 91 90 92 89 91 95 94 89 92 89 83 81 75 70 68 66 67 72 78 75 73 74 69 69 64 64 65 62 66 67 79 80 77 77 75 75 71 71 72 70
80 92 90 84 93 94 94 96 96 91 93 94 93 87 73 60 62 65 74 73 75 74 69 72 75 64 72 71 68 64 64 66 67 83 79 78 77 66 68 65 63 62 66
93 93 95 92 91 94 95 94 87 82 81 83 83 71 61 59 60 67 72 75 69 68 71 68 70 71 74 72 63 64 64 68 78 77 78 76 76 74 70 65 65 63 58
94 94 93 90 88 85 86 89 86 84 83 87 75 63 54 53 58 63 68 70 67 67 71 71 69 72 73 80 61 58 66 65 84 90 83 70 74 73 68 65 68 62 55
88 85 82 83 84 81 82 82 79 80 85 72 66 62 60 57 60 65 71 72 72 71 75 76 77 77 74 90 82 71 74 70 79 83 84 82 79 79 77 69 64 59 51
84 82 77 74 72 66 74 84 83 85 75 68 60 61 64 63 62 63 74 77 75 74 80 85 86 83 85 94 94 95 88 80 77 68 76 75 81 82 70 61 69 69 60
63 62 55 58 58 64 75 74 68 67 69 62 69 62 65 65 65 67 73 76 78 80 86 91 90 89 94 92 93 94 95 97 93 78 70 74 75 79 81 79 70 70 63
52 50 50 51 51 52 56 57 56 64 65 77 70 63 66 66 65 65 70 76 78 83 86 88 82 85 89 86 90 75 87 90 96 92 76 68 77 68 86 89 84 82 72
53 53 56 52 52 54 58 66 71 68 76 75 67 62 60 65 66 67 70 74 77 83 82 82 80 79 84 85 90 93 93 92 90 96 88 74 60 74 79 82 90 88 83
58 58 57 60 64 64 64 66 65 67 66 61 64 67 68 68 72 73 72 80 82 82 81 81 80 82 85 87 90 90 94 95 95 94 92 84 77 76 64 84 89 88 89

GFSSE_sfc_rhum_003.txt.gz
RH
74 67 90 88 89 89 89 88 87 86 85 84 83 79 78 78 78 80 79 80 76 68 66 67 69 71 73 77 80 81 82 84 85 83 82 79 75 70 70 72 73 49 77
73 70 92 88 88 88 88 87 87 86 84 82 81 80 78 78 79 78 75 74 72 64 64 66 68 70 72 76 79 79 80 82 83 84 81 69 68 74 74 74 78 56 77
76 72 69 88 89 88 87 88 87 85 82 81 81 80 78 78 78 78 76 77 70 64 63 62 63 64 66 71 72 71 72 74 79 80 75 51 51 77 75 76 77 75 72
75 72 66 87 89 89 88 89 87 83 81 82 82 80 78 77 76 77 76 77 68 63 60 59 59 62 67 71 72 72 73 76 76 72 46 53 56 77 76 72 75 71 68
75 72 72 88 89 90 90 90 89 88 88 88 84 79 77 75 72 74 72 71 63 59 56 57 59 64 71 74 75 76 76 78 78 53 45 57 60 67 76 76 68 70 73
75 76 86 92 91 90 89 92 92 92 93 92 87 80 76 73 72 72 70 64 59 58 60 62 66 70 73 76 77 77 80 83 74 41 46 54 59 78 75 76 78 78 77
75 73 74 96 92 89 91 93 94 93 93 92 88 83 78 76 74 71 69 65 64 64 67 68 70 73 75 78 79 81 81 85 49 40 40 50 58 77 69 71 77 75 74
77 73 72 91 92 94 94 94 94 92 92 92 89 84 80 81 78 71 72 71 69 69 71 73 74 75 77 79 81 86 88 83 41 36 40 42 73 75 69 70 80 81 80
78 76 75 71 81 95 95 96 95 92 93 92 91 89 87 85 82 76 76 77 77 75 76 77 77 80 80 83 86 89 92 80 41 38 35 33 72 68 66 68 73 78 76
81 73 72 74 72 77 80 97 97 95 94 93 91 90 88 86 82 81 82 78 79 83 82 81 82 83 84 88 90 90 91 75 44 39 34 35 72 62 59 66 70 70 71
82 79 80 79 83 87 83 85 91 93 93 93 85 88 84 63 66 66 80 86 85 86 86 87 87 88 89 86 88 90 86 45 48 40 37 66 69 61 58 64 74 73 69
78 80 83 85 85 88 81 84 80 72 66 67 64 71 65 74 71 73 80 90 89 89 89 90 90 90 81 57 54 65 46 53 48 48 41 74 69 62 58 65 70 73 74
73 77 81 83 85 85 80 79 72 69 70 69 74 72 73 73 74 69 67 64 68 76 55 55 55 54 65 60 53 53 48 45 42 40 44 74 71 67 60 58 65 68 71
83 75 82 80 81 84 72 72 70 66 69 68 68 74 76 70 70 65 54 56 60 55 56 54 51 61 58 53 51 51 45 35 28 29 36 76 75 71 68 66 64 64 67
73 73 76 76 77 74 74 70 70 78 84 84 82 78 77 67 64 57 58 50 50 47 48 49 49 46 45 42 42 40 36 37 36 29 32 76 78 75 72 71 71 72 71
65 69 76 69 66 64 69 75 82 82 78 84 91 92 89 88 68 50 47 46 45 46 46 45 44 39 37 35 36 40 37 36 36 45 37 45 72 70 66 64 66 68 70
61 71 72 74 71 75 74 75 78 83 83 88 89 86 84 72 57 52 45 47 48 45 45 42 39 40 35 31 33 32 32 37 36 52 45 42 41 64 64 61 58 58 57
65 69 67 70 73 81 84 90 82 82 87 82 85 78 56 45 49 53 48 50 42 40 38 39 37 34 36 36 34 32 33 34 53 54 45 42 41 37 51 61 58 56 55
64 67 72 74 75 84 93 80 66 69 59 66 69 58 56 54 53 53 48 47 46 42 45 39 40 40 38 36 28 30 30 32 49 43 48 48 50 45 40 51 55 55 56
69 72 74 74 86 87 69 59 60 57 56 53 43 41 44 42 50 49 48 53 45 43 44 41 44 41 46 49 30 32 34 38 50 47 47 41 44 48 44 45 41 39 55
76 74 73 68 64 60 54 58 58 59 54 42 38 45 46 45 45 50 44 45 46 44 50 48 40 42 38 51 40 32 30 47 52 45 43 42 45 43 47 44 40 37 36
74 69 66 58 49 44 49 53 58 58 48 40 41 46 45 48 43 42 48 45 49 45 55 54 48 40 45 58 45 38 33 29 35 45 39 41 49 44 42 43 46 43 41
66 63 58 50 47 47 53 48 46 47 48 41 40 38 41 43 38 41 49 49 53 52 52 57 54 51 46 52 61 44 42 41 50 36 42 41 46 40 44 45 46 44 46
48 46 43 44 42 44 48 46 52 43 42 50 43 41 40 48 47 42 47 54 57 56 60 58 51 53 51 47 42 44 50 52 44 43 33 35 40 36 44 50 41 45 50
43 48 49 48 46 47 49 49 44 48 48 45 45 52 53 52 52 50 52 58 61 57 61 59 56 49 41 39 39 40 44 39 41 43 37 34 31 30 36 36 45 42 44
46 53 53 46 45 46 46 49 52 50 47 46 50 51 50 50 48 53 53 60 62 61 58 54 54 49 42 40 36 37 35 37 36 46 45 40 37 31 30 36 40 36 34

GFSSE_sfc_rhum_006.txt.gz
RH
51 55 90 89 90 90 89 88 87 85 84 83 82 78 77 77 78 77 75 76 72 65 64 66 69 69 69 71 73 74 76 78 80 79 77 71 70 72 69 69 74 40 74
53 58 90 88 89 88 87 88 87 86 84 81 80 78 77 78 76 74 74 73 70 63 63 62 61 60 62 64 65 66 68 71 73 76 73 64 70 72 70 69 76 53 72
56 57 56 88 88 87 86 87 86 85 81 80 80 77 76 76 75 75 74 73 66 62 59 56 56 58 60 65 68 69 70 70 71 69 66 33 36 74 68 71 74 69 67
55 53 50 88 88 88 88 87 86 82 81 81 79 76 75 74 74 75 73 72 64 57 54 53 54 57 64 69 72 72 73 75 72 70 27 34 36 71 66 66 67 68 64
58 55 56 88 88 87 87 86 86 88 88 84 80 75 73 71 72 71 69 65 57 56 56 58 60 63 70 75 75 72 74 77 76 49 26 38 37 61 68 70 63 68 70
65 59 82 88 85 87 85 86 90 92 92 89 84 76 72 70 68 68 66 59 59 60 61 62 65 69 74 78 77 73 75 77 76 24 28 38 41 71 69 73 73 70 75
70 66 69 93 90 85 85 91 92 93 92 89 83 79 75 71 66 66 66 64 65 66 66 67 70 72 75 77 78 80 81 79 24 19 20 29 44 70 67 69 68 70 69
61 66 71 85 85 88 91 93 92 92 92 89 85 80 77 74 70 70 70 70 70 70 70 70 71 73 75 78 81 84 88 79 28 23 22 22 69 66 64 71 72 71 71
60 65 65 61 72 95 94 94 92 91 91 89 86 83 80 78 75 73 74 74 74 72 73 74 74 77 78 82 84 87 89 80 32 25 22 23 69 61 57 65 70 70 69
67 65 67 64 60 62 62 95 94 92 91 90 85 83 83 80 75 77 72 76 77 78 78 78 81 84 84 87 86 86 86 82 28 25 23 35 68 60 57 59 67 66 66
67 64 57 56 57 61 56 73 87 90 88 87 78 82 76 40 43 44 76 80 82 86 86 86 86 87 87 85 78 77 79 25 28 24 24 72 69 63 57 59 63 65 64
60 72 68 68 70 65 52 55 53 47 40 42 44 51 39 53 53 56 68 85 84 84 84 77 74 78 71 31 29 50 26 32 26 27 26 73 69 66 63 60 67 70 70
62 71 72 80 74 58 52 44 37 36 42 46 56 55 52 55 54 46 41 38 42 58 35 37 35 31 41 38 32 35 31 27 23 22 43 76 72 65 64 66 67 67 71
53 61 65 52 57 59 40 38 43 41 46 47 52 57 62 60 72 52 38 39 44 36 38 34 31 40 38 35 37 35 33 28 23 22 39 80 74 66 64 65 69 70 72
44 50 53 53 55 53 50 48 48 48 48 53 51 60 60 68 78 56 46 37 36 32 32 33 30 29 29 28 31 32 30 31 30 25 25 74 71 66 63 62 63 63 65
44 52 53 48 50 50 53 57 52 52 58 71 66 74 74 81 93 73 41 33 32 31 29 27 28 26 25 27 26 30 30 28 27 32 24 34 68 64 62 59 59 59 59
42 47 50 55 55 56 53 51 58 54 61 53 56 72 77 76 78 59 42 37 32 32 32 31 29 28 26 24 27 26 27 28 27 35 31 26 31 68 62 60 58 56 56
43 49 48 50 54 59 70 79 83 65 59 49 52 56 52 52 59 50 38 42 40 35 32 32 31 28 28 29 29 25 26 24 27 36 32 34 28 25 55 57 54 52 55
42 48 51 54 62 78 79 70 52 57 47 43 40 38 49 46 46 45 41 40 38 33 36 33 31 34 30 30 26 24 25 26 27 23 32 37 38 36 33 52 54 49 48
45 48 54 48 53 56 46 48 37 34 34 32 31 31 35 33 38 36 37 41 34 30 30 32 38 33 35 36 29 26 29 26 26 29 33 31 32 37 35 40 36 34 54
50 54 51 54 53 45 41 40 36 36 36 33 30 37 37 35 34 37 31 34 36 35 42 42 37 37 34 37 35 26 23 23 29 30 32 29 32 35 37 34 33 32 30
52 49 49 48 46 39 35 35 37 37 34 31 33 37 34 35 31 31 39 36 38 36 41 46 45 38 30 36 45 36 29 22 19 27 30 29 35 32 30 30 36 36 34
54 54 48 42 36 37 39 34 34 36 34 31 30 28 34 37 33 33 38 39 42 39 38 44 44 45 40 35 39 41 39 33 31 25 28 24 34 29 30 28 32 32 32
55 49 39 35 36 36 33 36 41 33 32 35 33 32 34 39 40 35 36 41 44 40 42 43 38 44 41 35 32 26 35 37 39 37 27 28 24 25 30 28 32 30 30
41 40 39 35 34 35 36 37 34 37 34 33 34 38 36 35 36 34 35 40 43 38 43 49 48 42 37 39 36 35 36 31 31 32 33 30 25 22 22 25 29 32 30
36 40 40 36 35 36 37 40 44 43 35 29 26 24 20 20 20 24 24 40 46 46 51 47 45 45 43 39 34 33 32 34 32 32 33 32 30 26 23 26 29 28 29

GFSSE_sfc_rhum_009.txt.gz
RH
53 52 92 90 90 89 88 87 86 85 84 82 80 77 76 76 74 75 76 74 71 65 63 60 59 58 58 58 61 63 66 69 72 73 71 67 68 70 67 72 77 43 72
52 50 92 90 89 86 85 87 87 86 84 79 79 78 76 74 73 73 74 73 68 60 58 57 57 55 58 63 66 67 66 67 68 69 70 68 70 70 68 72 78 54 67
51 50 57 89 89 87 85 86 86 85 80 79 77 76 74 72 73 73 73 73 64 57 54 53 53 58 63 67 69 69 69 70 71 70 68 33 49 68 65 67 72 67 63
54 52 54 90 88 88 87 85 85 82 81 78 76 74 72 71 71 71 70 70 61 56 54 54 57 62 66 67 68 68 69 71 75 78 28 26 43 68 65 66 64 66 64
55 54 65 90 86 86 84 84 85 88 86 82 78 72 70 68 67 67 66 64 60 60 60 59 62 67 72 75 75 70 70 74 75 55 26 33 36 62 70 71 64 67 74
58 65 88 87 85 84 82 83 86 91 90 86 81 73 70 65 63 64 64 64 63 62 62 63 66 70 75 79 78 79 79 79 75 16 21 39 44 68 70 68 71 70 73
82 80 71 91 88 83 82 83 89 92 90 86 80 76 71 63 62 64 66 67 67 66 66 66 68 72 75 77 79 81 84 84 33 21 19 35 50 65 70 68 66 67 67
93 78 74 88 86 83 83 91 92 92 90 87 81 76 70 69 69 68 68 70 68 68 69 69 72 74 76 79 80 84 86 84 32 23 22 31 68 62 61 70 69 69 67
91 79 78 66 69 94 94 93 93 92 90 87 83 79 74 74 73 71 72 73 73 72 73 74 76 78 79 80 81 82 81 82 46 24 22 29 68 60 56 60 66 67 65
93 75 64 62 65 70 76 94 93 92 90 87 82 78 78 77 72 71 69 75 76 78 80 81 83 83 82 81 80 76 76 76 25 22 29 48 69 63 57 58 59 62 64
71 68 61 59 60 65 72 75 86 88 87 84 76 77 73 44 41 45 73 77 79 83 82 81 75 75 78 81 77 69 73 24 24 21 30 74 67 64 63 61 62 64 63
63 59 59 60 62 58 43 51 45 40 36 39 42 44 36 46 43 38 58 76 77 78 75 74 69 74 74 28 28 54 24 27 21 21 37 76 66 59 61 66 67 67 70
52 58 55 59 54 45 42 34 31 34 40 44 50 42 51 44 49 41 41 38 41 59 34 39 36 30 37 34 31 32 30 28 21 20 55 78 66 57 58 64 68 70 74
52 54 47 42 47 47 34 30 32 36 39 40 44 48 51 46 53 50 44 46 41 35 38 34 32 36 33 30 30 32 30 27 24 24 53 79 69 56 54 58 62 65 68
39 44 41 43 47 45 41 42 44 55 54 52 52 59 52 49 59 54 69 66 53 35 34 34 32 28 27 26 27 27 29 30 29 24 26 76 71 62 57 56 57 59 60
36 42 43 41 44 43 49 52 46 47 46 46 51 57 58 49 56 51 49 45 37 35 33 31 30 29 29 31 32 32 29 28 28 30 26 36 74 66 60 57 58 59 59
36 40 44 51 48 50 48 44 46 46 53 44 48 60 64 54 59 72 54 51 47 39 35 32 32 30 29 28 31 27 26 26 25 27 29 30 39 73 64 59 56 56 57
35 39 43 45 47 47 60 73 76 54 52 49 52 54 55 49 57 56 47 43 40 46 41 43 42 36 35 30 30 28 26 25 27 30 26 27 29 28 53 57 50 47 48
36 40 43 49 50 59 68 47 46 53 42 39 40 36 39 36 36 38 35 38 40 32 33 33 33 36 35 33 30 29 31 27 28 21 25 31 34 34 34 47 58 56 43
37 41 45 46 49 58 40 42 37 34 32 30 29 30 33 31 36 37 32 40 38 32 33 37 45 39 38 34 26 31 34 24 24 25 27 26 28 31 31 35 33 34 57
40 42 46 46 47 41 36 35 35 36 34 32 31 35 35 35 32 37 34 35 36 36 40 42 41 44 38 33 30 33 30 31 30 22 24 28 32 27 31 31 30 28 31
43 45 44 44 43 34 32 30 33 34 31 30 33 36 33 36 32 33 39 38 38 38 42 43 44 43 35 31 33 35 36 28 22 27 26 26 34 25 26 27 31 30 32
46 46 42 39 35 32 34 32 32 32 33 30 29 28 32 37 35 35 37 38 41 39 35 42 40 45 40 34 34 33 38 36 33 27 29 26 36 28 29 26 27 27 31
47 43 36 35 34 34 28 32 37 31 31 35 33 32 31 32 31 27 27 32 37 37 40 38 32 43 44 39 34 29 36 36 38 39 26 25 26 26 35 28 25 26 28
42 41 37 34 30 31 33 35 33 35 32 30 28 27 24 23 21 18 21 28 35 36 41 44 46 46 41 42 41 40 38 33 31 32 35 29 24 23 24 28 26 27 27
39 40 38 32 31 34 37 40 42 37 28 25 25 22 20 20 20 24 24 32 34 35 42 42 46 48 54 50 38 36 36 34 31 34 36 37 35 28 24 27 32 29 30

GFSSE_sfc_rhum_012.txt.gz
RH
64 76 91 90 89 88 87 86 87 86 85 84 83 81 79 76 79 78 76 74 70 62 57 56 55 57 58 62 64 65 65 66 68 68 71 67 68 68 71 80 74 57 77
66 69 91 90 88 86 86 87 87 86 85 83 82 80 78 78 79 78 76 72 67 58 55 54 59 60 62 65 67 68 68 73 77 76 70 68 73 69 69 78 79 66 76
63 68 71 89 87 86 86 87 87 85 83 81 79 77 76 74 73 77 75 70 66 57 54 57 58 59 61 64 67 67 70 75 78 79 76 72 62 68 66 76 76 73 73
55 57 68 91 88 87 87 86 85 84 81 80 77 74 75 71 69 71 72 71 68 61 58 58 62 65 70 74 76 76 76 77 77 77 45 47 53 72 69 72 73 70 74
57 53 76 90 84 85 85 84 87 86 84 81 77 71 67 66 65 65 73 71 65 62 61 62 65 71 76 83 83 82 80 78 73 57 46 56 60 67 69 71 71 72 78
69 70 90 86 84 82 82 88 90 88 86 83 80 74 64 62 62 68 75 71 65 64 64 66 69 74 82 83 83 82 82 80 73 33 43 58 64 69 70 69 76 76 78
92 91 88 92 87 85 83 90 90 90 88 85 82 75 70 63 65 71 76 74 69 68 68 69 73 79 82 83 82 80 80 80 55 38 47 61 73 67 66 71 75 77 74
92 94 89 90 90 92 90 93 92 90 88 85 82 75 72 75 76 76 77 77 77 77 78 78 80 81 81 81 79 78 77 78 49 49 46 66 74 62 57 65 76 77 74
96 93 94 91 87 93 93 93 92 90 89 87 84 80 80 80 79 78 79 78 79 81 82 83 83 82 81 80 79 78 80 75 66 46 42 64 74 63 58 61 69 72 73
96 98 91 95 92 89 84 91 90 89 87 85 81 79 79 79 77 77 79 80 80 81 80 80 77 74 77 78 76 80 78 67 37 41 56 78 71 62 64 62 66 72 72
94 93 89 91 86 90 89 84 87 86 84 82 78 78 79 66 69 70 78 77 77 78 78 76 70 71 76 76 76 78 82 41 39 40 56 75 65 56 60 67 71 75 76
96 85 77 81 79 78 56 77 76 65 65 67 62 71 68 65 56 48 70 74 75 73 72 72 71 77 74 48 52 68 47 46 41 40 73 73 62 53 58 65 69 72 76
69 69 69 78 77 64 58 60 54 56 65 67 63 63 66 66 72 69 74 68 77 74 58 64 56 53 48 52 50 52 49 43 46 40 73 73 62 50 51 58 61 65 69
58 61 62 59 64 62 50 50 56 57 63 68 66 61 73 76 77 78 76 76 73 64 58 59 57 52 52 45 45 47 47 47 46 44 80 73 68 50 47 50 54 58 62
52 51 52 58 61 60 61 65 67 68 68 68 74 72 73 75 77 76 76 71 71 63 57 49 51 48 48 43 45 45 43 43 44 46 55 70 70 57 49 52 56 59 60
45 50 55 54 61 59 68 67 68 69 69 68 71 75 69 72 77 77 68 65 62 54 50 50 56 54 50 48 43 46 45 42 42 44 41 64 72 69 59 59 58 56 56
45 47 54 62 66 67 66 63 67 62 62 68 75 81 80 86 85 74 72 75 66 56 52 57 54 54 55 45 47 47 45 42 41 44 46 41 71 74 69 58 52 50 50
42 48 52 50 62 73 76 76 82 72 69 66 69 70 62 56 60 64 62 64 63 60 56 56 59 57 56 56 56 51 51 44 38 35 44 43 45 46 68 62 52 50 46
42 49 55 63 69 70 79 71 67 69 58 57 61 58 54 51 52 60 62 67 61 60 60 58 65 66 63 58 48 43 54 47 44 30 34 38 44 49 44 65 64 60 49
45 49 57 60 70 74 64 62 60 58 56 54 53 52 52 48 53 60 62 58 57 58 60 65 66 65 66 64 35 33 52 52 43 46 45 34 39 44 47 43 51 47 55
50 50 55 61 66 63 54 53 55 58 55 52 50 51 54 51 47 53 58 59 60 60 66 62 64 64 64 60 54 49 49 46 44 47 42 42 40 34 43 50 46 45 40
50 52 54 53 55 53 48 54 57 51 52 50 54 53 53 55 50 46 60 58 60 61 64 66 64 66 62 61 61 57 57 48 46 39 46 41 44 44 42 34 42 41 48
58 59 52 60 51 49 52 47 51 52 57 53 52 54 52 50 44 44 51 56 60 60 64 66 62 65 68 63 60 62 62 64 55 51 43 46 49 51 51 46 37 37 39
71 61 51 48 46 44 44 51 56 50 50 55 54 50 43 45 40 31 38 51 56 62 64 66 50 68 68 67 62 48 61 62 58 54 45 44 44 37 47 53 46 42 40
67 58 54 47 41 43 48 52 54 55 54 49 48 43 42 41 40 37 42 56 58 60 61 67 71 71 70 75 71 66 59 59 54 54 53 51 44 43 40 49 52 50 42
56 56 54 43 40 47 52 56 59 53 47 46 40 42 45 44 43 46 46 56 61 62 64 71 76 76 79 75 68 61 59 56 56 60 59 56 52 46 44 46 51 53 53

GFSSE_sfc_rhum_015.txt.gz
RH
92 92 92 91 90 88 88 88 88 87 86 84 82 81 79 78 79 76 74 70 66 61 58 60 60 59 58 59 63 66 68 72 75 72 75 72 70 70 70 80 75 67 76
88 84 92 90 87 86 88 88 88 87 86 83 82 81 80 78 78 74 71 68 65 58 58 57 57 57 59 63 67 68 69 77 78 77 73 70 69 66 70 79 81 74 78
89 85 82 88 86 86 87 88 87 85 82 79 79 79 77 74 71 74 72 70 67 61 58 60 62 64 66 69 73 74 75 77 79 80 76 74 72 69 71 79 78 76 76
82 78 80 88 87 87 88 88 85 81 78 79 77 76 76 72 69 73 75 72 69 62 62 63 64 66 69 72 78 78 76 75 74 70 64 61 62 69 70 72 71 71 72
76 80 84 89 86 86 88 88 85 83 81 79 76 72 70 67 68 70 75 72 67 63 63 63 66 69 74 81 81 79 77 76 71 59 72 77 78 66 69 70 70 70 76
81 85 88 86 83 86 88 88 87 85 83 80 75 71 66 66 69 72 76 72 65 65 64 66 69 73 81 80 80 78 75 77 63 59 75 75 74 68 69 71 78 75 76
95 91 84 85 83 88 89 88 88 86 84 80 76 74 71 70 70 76 79 75 70 69 69 71 73 80 80 79 80 80 76 73 54 63 77 77 74 64 60 69 73 75 74
96 95 91 90 92 95 90 90 89 87 85 80 79 77 75 78 79 80 80 80 78 79 81 80 81 79 78 78 77 82 82 76 55 58 71 81 75 62 59 63 76 77 76
95 97 98 97 90 94 92 91 90 88 85 81 81 81 80 81 82 81 81 82 80 80 79 78 75 75 76 76 76 82 82 78 56 62 59 84 74 65 62 64 69 76 77
96 96 98 97 96 95 88 90 88 85 82 80 80 80 80 80 80 80 80 80 77 75 74 76 71 70 73 75 77 83 82 64 50 61 79 82 69 60 64 68 72 73 76
96 90 96 93 93 93 92 84 84 83 80 80 78 79 82 78 76 76 79 78 74 75 73 74 69 74 75 70 74 76 74 47 48 63 82 72 65 56 63 68 70 72 74
96 91 91 90 95 90 68 85 86 75 78 75 73 76 73 77 78 66 76 82 78 77 73 71 70 77 68 51 54 60 53 45 49 64 80 71 62 50 58 60 64 64 65
91 91 86 90 82 80 71 82 78 76 78 79 72 74 75 74 78 80 81 89 85 74 67 66 56 52 48 52 52 55 50 45 55 55 74 68 62 46 48 54 56 61 64
89 81 80 82 83 70 73 72 67 67 75 77 75 72 81 88 83 83 85 82 76 75 63 59 56 49 47 47 44 49 47 46 53 52 78 66 65 46 45 50 54 59 62
75 73 73 63 64 62 68 76 78 76 80 82 83 81 85 88 80 79 79 74 65 59 60 59 54 50 53 49 49 51 48 46 48 53 72 70 66 56 49 54 58 57 57
66 66 66 64 70 69 66 72 75 77 72 84 90 91 87 91 93 84 75 71 64 62 61 60 55 54 54 53 51 52 48 50 45 47 52 66 72 70 59 55 51 50 50
59 61 65 71 73 70 75 73 71 73 80 83 75 85 87 84 80 68 75 70 66 63 58 59 61 64 63 56 55 54 54 49 46 44 45 47 76 74 70 53 47 46 48
57 58 62 64 78 79 77 79 81 78 78 77 75 72 64 62 68 72 70 72 66 66 66 68 69 66 68 66 66 62 57 49 45 40 39 41 54 69 74 65 55 50 48
54 58 73 77 75 76 82 87 79 67 67 69 72 67 58 60 61 71 72 66 59 66 72 67 70 72 71 72 50 47 58 57 48 43 40 36 46 48 62 69 65 60 44
56 70 73 73 75 79 82 75 74 69 71 68 63 62 55 56 53 65 69 69 67 68 70 69 69 71 76 68 42 46 58 55 54 55 49 39 44 43 51 48 47 46 52
73 66 73 77 76 83 71 74 74 72 65 62 59 55 59 60 59 60 64 60 67 66 70 69 73 66 66 71 60 59 55 55 48 52 55 51 46 45 46 45 44 44 48
72 65 70 71 75 74 54 66 65 57 62 59 63 62 56 55 53 53 63 66 65 66 67 69 67 68 74 69 65 71 67 61 57 52 51 44 54 52 45 42 43 44 50
66 65 66 67 64 65 55 56 58 61 67 68 67 66 61 46 35 38 52 56 58 64 72 73 71 70 71 70 68 69 75 79 70 56 47 52 52 52 55 53 46 42 43
72 61 62 56 52 57 54 52 50 62 60 68 61 49 42 40 39 39 52 57 60 66 61 72 65 80 76 78 75 58 66 68 69 70 56 51 52 43 53 55 54 48 46
70 79 64 48 46 56 57 58 58 62 55 52 48 46 39 45 44 46 53 56 64 70 72 82 83 84 82 81 78 74 66 64 58 64 70 63 57 52 53 58 58 57 53
79 72 46 43 55 62 64 61 54 47 47 45 46 50 45 49 53 54 45 62 64 71 81 84 83 84 85 81 75 77 69 64 65 67 72 72 66 61 53 54 58 61 58

GFSSE_sfc_rhum_021.txt.gz
RH
92 94 91 89 88 90 91 89 85 83 82 80 78 75 74 70 72 74 73 70 67 63 60 61 60 60 62 66 71 73 73 74 80 80 79 73 72 73 75 78 78 74 75
84 91 91 88 88 89 90 88 85 83 80 77 76 75 74 73 74 74 72 71 69 61 59 60 60 60 62 70 76 76 75 79 83 82 78 75 72 71 75 76 80 74 76
84 89 88 88 88 89 88 86 84 81 78 73 73 73 72 73 74 74 74 73 68 63 58 58 59 60 62 71 80 83 81 83 85 82 77 85 76 69 69 68 69 66 72
84 88 86 88 89 89 88 85 82 76 73 75 70 70 72 71 72 76 76 73 69 64 58 59 60 62 66 76 77 76 79 79 82 82 86 81 67 67 69 68 65 62 64
88 86 86 90 90 89 86 82 81 81 79 77 73 70 70 70 69 74 76 73 68 61 60 60 62 67 75 76 80 77 78 79 81 80 91 86 78 62 66 67 67 66 66
91 88 93 92 91 88 86 85 84 83 80 77 76 75 72 71 69 75 76 72 64 62 62 62 64 74 77 74 78 76 77 76 77 86 85 79 76 63 64 67 68 69 71
97 94 89 92 89 86 85 85 85 84 81 78 79 78 77 76 74 79 77 75 72 67 66 66 70 76 76 72 74 76 78 77 79 87 90 89 81 64 65 70 73 74 73
95 96 89 90 90 85 87 88 86 84 81 81 81 80 80 81 82 81 80 80 79 78 76 73 72 75 77 74 71 78 77 72 69 83 86 90 76 65 67 73 76 78 76
97 96 97 98 92 88 90 90 87 84 82 84 84 82 83 84 83 81 80 80 78 76 73 72 73 74 78 75 72 78 75 73 71 77 71 86 70 61 66 71 73 74 75
94 95 96 96 97 97 92 86 83 82 85 86 86 85 85 84 83 81 80 77 73 72 73 73 78 76 82 74 72 75 75 65 66 74 81 83 66 59 63 65 66 68 70
96 96 96 94 91 94 95 86 84 81 83 84 83 83 87 87 82 76 78 74 72 75 74 76 76 72 70 74 72 68 59 63 66 74 82 69 61 54 59 62 64 64 65
94 91 89 85 90 96 80 89 87 76 82 82 81 79 79 84 87 79 82 78 76 76 76 72 68 65 56 56 57 55 53 56 62 74 79 66 56 45 53 61 65 65 64
88 89 92 90 92 97 83 94 90 87 83 81 79 78 81 84 87 86 84 85 77 65 55 55 54 55 52 57 58 56 55 57 65 67 75 71 59 43 48 56 64 64 62
97 94 92 95 97 93 89 89 85 80 82 82 79 83 89 90 84 85 85 80 69 68 62 61 64 58 57 56 55 56 54 54 55 59 65 71 65 52 43 54 61 60 58
84 83 85 90 97 94 89 86 82 82 87 87 88 89 91 91 84 73 70 69 68 65 64 62 60 60 60 58 60 54 51 51 50 57 65 68 73 61 45 55 56 53 54
89 84 87 92 96 87 85 81 84 91 95 95 94 92 84 84 84 78 71 68 67 68 68 68 68 68 67 63 61 55 55 51 48 49 55 68 82 76 62 55 49 48 49
90 86 94 94 90 86 85 86 94 96 95 95 95 92 89 86 85 74 74 76 76 72 71 71 71 72 72 65 59 57 58 50 49 46 48 46 69 80 67 56 49 51 51
86 90 83 75 85 87 83 92 97 94 92 94 93 88 79 75 75 75 73 76 78 76 74 75 75 74 78 68 61 65 60 56 48 48 48 51 59 61 67 53 51 46 44
84 78 82 85 88 84 90 92 91 93 83 80 80 76 74 74 73 74 74 78 74 73 75 68 79 78 79 70 55 66 65 61 56 42 47 50 53 54 52 52 56 54 42
80 77 88 85 84 86 88 83 88 79 80 76 75 71 68 76 72 76 75 75 72 72 74 74 65 72 79 76 46 55 66 63 59 59 53 44 50 50 50 48 59 54 52
85 87 85 83 86 86 77 80 79 80 77 76 71 66 71 71 67 70 76 73 72 72 78 72 74 69 78 77 66 66 69 64 60 58 58 54 50 50 50 52 56 56 54
79 82 84 77 88 84 68 71 72 75 75 74 74 72 69 68 67 68 64 60 62 63 65 73 76 77 87 81 74 75 74 68 64 57 59 54 53 55 52 49 51 49 56
77 85 80 76 83 79 73 72 75 74 76 75 77 76 57 54 49 54 58 62 65 65 67 72 81 75 81 78 75 73 79 81 77 66 57 59 57 58 58 56 50 51 55
75 75 75 72 79 78 73 66 60 70 66 76 79 56 48 54 58 56 61 68 73 77 77 86 82 88 81 82 78 64 70 70 73 73 64 62 62 49 56 61 58 56 57
75 77 80 74 79 79 70 64 76 88 86 75 57 51 54 62 61 58 66 70 79 83 81 77 78 80 79 79 81 82 78 76 71 72 72 67 65 61 61 61 62 65 58
85 88 90 87 80 84 74 65 70 84 79 57 53 58 63 68 64 65 64 74 82 81 77 78 84 83 86 85 87 84 76 72 70 74 78 76 76 63 60 59 62 62 68

GFSSE_sfc_rhum_024.txt.gz
RH
95 94 89 88 88 88 87 86 85 84 82 79 77 74 72 70 74 73 71 71 71 67 60 62 64 67 70 72 72 72 77 82 84 81 77 71 71 74 75 77 78 73 75
91 92 90 88 88 86 85 84 84 82 79 77 75 74 74 75 74 74 73 70 69 66 60 61 65 70 74 74 74 78 80 84 84 81 78 70 69 68 66 67 73 68 74
90 90 87 88 88 86 84 84 82 79 76 74 74 74 75 75 75 75 72 70 68 66 59 58 64 71 75 79 83 84 81 81 83 81 77 82 69 67 67 66 66 63 64
86 90 88 90 89 86 84 83 80 76 74 74 73 73 76 74 74 76 73 70 69 67 59 57 58 66 72 80 83 82 82 82 82 82 82 78 62 63 62 62 62 63 64
90 90 90 91 89 87 84 81 79 78 77 76 74 71 73 73 71 74 74 72 69 66 59 59 57 66 75 79 79 81 79 80 80 80 88 82 74 60 63 67 68 68 68
93 94 92 91 89 86 84 83 82 81 78 77 76 74 73 72 70 76 74 71 68 65 60 62 59 69 81 76 78 79 78 79 82 88 86 82 75 63 67 70 72 73 73
98 97 88 90 86 86 86 85 84 82 80 80 79 77 76 77 77 79 78 76 73 69 68 68 71 70 77 75 77 79 80 78 83 88 89 87 80 64 67 72 75 75 73
97 97 98 86 86 86 87 87 86 84 84 84 82 81 81 81 81 81 80 80 77 76 75 77 77 73 73 78 78 78 77 74 77 85 85 85 71 65 67 72 74 74 74
96 97 98 98 95 89 91 90 88 87 88 87 86 84 85 85 83 81 80 79 77 76 76 78 82 76 73 78 80 79 78 71 76 78 72 84 68 62 62 64 68 71 73
95 95 96 96 97 96 94 86 86 87 89 88 87 86 85 84 83 81 80 78 76 76 77 76 81 75 74 77 79 76 72 65 70 76 81 77 65 57 59 62 62 63 64
93 92 94 96 98 94 97 84 83 84 86 86 84 85 88 89 85 77 78 75 76 77 78 76 75 77 75 73 69 64 61 68 69 74 78 74 60 55 60 62 63 63 63
97 93 92 95 92 88 91 90 83 80 84 84 84 82 83 86 84 82 83 80 81 80 74 72 69 65 58 59 59 58 59 61 63 74 78 74 56 47 59 63 64 64 64
95 93 93 94 92 87 94 91 89 85 86 84 81 80 84 87 88 82 81 78 74 62 56 56 58 59 60 61 60 59 56 58 63 65 77 72 60 47 50 63 63 62 60
86 86 85 87 94 98 94 90 88 82 83 84 80 82 91 91 85 82 80 77 69 67 64 65 67 64 63 61 60 57 55 56 57 60 66 74 68 53 43 62 63 60 58
83 78 87 96 98 97 94 91 90 83 85 84 86 91 91 91 84 73 71 72 69 66 65 66 66 65 66 62 59 56 53 53 54 57 70 82 78 63 49 61 55 55 55
87 92 93 95 97 96 95 90 88 87 93 96 96 94 87 81 81 74 70 70 70 71 72 71 70 70 70 64 61 57 52 52 50 53 56 80 75 68 59 54 50 50 52
93 88 92 94 96 95 92 86 90 97 96 97 95 90 87 85 82 74 76 76 74 74 73 74 75 74 72 59 62 59 54 53 51 52 56 60 74 70 66 55 55 55 52
94 94 94 82 95 94 93 92 96 98 98 97 97 94 82 78 74 76 76 80 80 77 76 76 76 78 73 66 67 65 60 54 52 53 57 59 58 48 59 57 51 46 39
92 93 93 93 94 93 92 97 97 96 97 96 92 88 80 74 71 74 78 81 77 75 76 72 80 78 73 71 64 66 64 60 56 43 50 53 54 52 50 52 54 56 46
94 90 90 92 92 90 96 94 96 88 85 84 81 79 78 77 72 78 80 79 76 74 76 71 69 80 80 74 48 59 66 64 61 58 54 46 52 53 52 55 58 52 51
93 90 92 93 91 88 90 91 93 86 88 80 75 72 79 76 73 76 78 75 74 74 79 74 74 72 80 79 70 71 69 67 61 61 58 54 53 52 54 55 52 52 52
90 90 93 88 88 83 76 79 76 79 79 77 76 76 76 73 72 73 71 72 73 71 71 78 75 84 82 80 74 75 77 70 65 57 60 55 60 56 53 54 55 54 58
88 88 86 85 84 81 76 75 78 80 76 76 80 78 70 65 58 57 62 67 66 68 69 78 81 77 80 73 76 74 78 78 76 68 62 61 61 60 58 57 53 53 59
87 84 84 82 83 83 74 70 63 71 71 77 81 64 55 59 60 59 65 71 74 79 83 81 80 84 80 77 77 67 73 72 73 73 63 62 64 54 59 60 56 56 58
83 85 90 85 85 82 72 67 74 85 86 84 68 56 62 66 64 66 69 74 82 86 80 76 74 78 78 82 80 79 77 75 69 70 68 64 61 60 59 62 61 62 61
88 91 95 89 85 88 79 79 77 84 85 76 70 67 69 70 72 70 71 81 83 81 78 76 76 78 80 81 82 77 76 73 70 73 75 72 70 65 60 62 63 64 68

GFSSE_sfc_rhum_027.txt.gz
RH
72 64 90 89 88 86 87 87 85 83 81 79 76 75 75 74 74 74 74 72 70 68 64 66 69 68 67 73 74 72 79 83 82 77 75 69 67 67 68 71 68 55 76
73 63 90 89 87 86 86 85 84 82 79 77 76 76 75 74 75 74 73 71 70 67 67 69 69 68 71 76 78 79 78 83 83 80 72 66 65 64 64 66 70 55 69
78 64 70 88 87 86 85 84 82 79 78 77 78 76 76 76 75 74 72 71 69 68 69 70 70 70 75 79 84 81 79 80 82 79 70 41 46 62 61 64 68 64 64
74 63 63 88 85 84 84 83 80 77 76 77 77 77 78 77 75 74 73 72 68 66 65 67 72 76 80 83 85 83 80 81 80 71 42 38 38 62 63 64 65 64 62
80 66 67 88 86 85 83 80 78 77 77 78 77 77 77 76 75 74 74 71 69 65 59 63 68 74 78 83 84 82 79 79 78 52 40 45 43 59 67 67 65 69 71
82 71 83 89 88 85 82 81 79 79 78 78 77 77 76 75 75 76 74 71 69 65 57 62 69 73 80 81 81 80 80 79 65 41 44 54 50 65 68 72 72 72 73
92 79 84 88 87 86 84 83 81 81 80 79 78 78 77 77 78 80 78 74 72 71 67 66 72 76 77 80 80 78 79 78 40 41 42 47 55 64 67 70 72 72 73
97 97 93 88 90 86 87 85 84 85 84 82 81 81 81 82 81 81 80 77 77 79 79 73 76 78 78 78 77 80 80 71 42 42 43 42 65 61 63 67 70 71 71
97 97 96 95 90 85 90 90 90 88 87 85 85 85 85 85 83 81 80 77 76 80 82 76 74 81 79 75 74 78 78 73 43 43 41 38 67 58 58 60 63 66 68
98 97 96 93 92 95 92 87 90 90 90 89 88 88 85 83 82 82 79 77 78 78 82 76 75 78 74 73 71 70 72 66 41 38 41 46 64 57 57 59 61 61 63
97 96 96 91 91 93 88 78 84 88 89 88 83 86 82 57 56 54 73 77 80 80 81 80 76 73 72 69 65 62 58 37 39 37 37 74 58 58 59 61 62 64 64
96 92 84 91 93 87 87 80 79 76 76 70 64 65 60 65 62 57 70 85 81 78 74 73 66 62 50 34 32 44 34 40 40 42 41 74 56 52 63 63 63 64 64
89 86 83 89 90 88 91 89 86 71 75 76 78 68 65 66 65 64 60 58 56 56 39 44 41 38 44 37 37 38 36 34 31 32 52 74 60 47 62 65 61 60 59
80 84 86 86 90 89 90 86 74 69 65 64 63 69 74 67 69 61 48 49 53 45 50 48 46 52 48 44 42 42 41 33 30 33 54 82 68 47 51 67 61 58 58
89 87 77 74 74 81 80 71 67 63 57 59 61 69 69 64 63 52 54 49 47 46 45 46 45 43 45 42 40 38 37 38 40 36 48 78 78 60 58 60 55 56 55
74 79 73 76 77 79 76 73 64 63 65 67 69 79 71 62 62 54 53 48 48 44 46 44 44 43 41 40 40 38 36 34 38 47 46 55 77 68 59 54 51 52 56
63 66 73 78 78 84 78 69 68 65 65 69 74 77 71 64 63 58 50 51 51 51 53 52 50 47 40 39 40 37 34 37 35 43 47 47 45 68 67 59 54 49 47
69 70 71 68 77 84 79 70 69 67 73 72 72 68 63 55 58 58 52 54 52 52 49 48 48 46 46 42 42 35 34 33 39 39 39 39 36 33 50 56 54 48 44
70 74 72 73 75 83 79 69 72 82 75 74 75 64 63 55 55 54 52 58 56 50 52 48 52 49 47 44 39 38 37 33 35 28 34 35 36 31 27 50 56 54 48
66 69 69 72 77 81 72 74 81 76 73 82 78 61 60 52 55 57 57 60 52 49 50 46 51 52 48 43 32 38 39 36 34 35 33 28 32 35 31 33 28 32 48
72 71 70 74 78 76 73 74 79 77 78 77 68 65 64 55 55 58 54 56 52 49 50 53 50 53 49 50 44 42 41 42 40 34 33 32 33 32 36 31 27 25 26
69 71 71 71 74 73 65 68 70 70 70 75 62 63 59 60 55 57 57 52 52 50 57 57 56 53 49 52 45 46 46 44 40 37 35 35 43 33 32 34 36 36 33
72 76 72 68 70 71 69 66 67 76 64 58 56 58 57 58 53 52 56 52 51 45 45 54 56 56 50 52 54 42 46 41 46 43 44 37 44 37 36 35 37 36 38
72 73 71 71 71 71 70 65 66 69 65 55 55 54 52 55 51 41 44 49 51 49 53 55 54 56 54 51 51 44 51 48 42 41 41 41 40 39 42 35 34 36 39
67 73 74 71 70 68 66 64 64 70 71 63 62 61 55 52 48 43 49 54 55 53 60 64 68 61 57 65 49 52 53 48 50 44 38 37 37 35 37 38 38 37 40
68 73 79 73 69 69 69 69 69 74 70 62 56 53 51 48 49 52 49 55 58 58 68 81 74 67 60 51 47 49 43 41 40 43 44 44 45 41 38 38 41 40 42

GFSSE_sfc_rhum_030.txt.gz
RH
48 49 90 89 89 90 89 88 87 84 82 79 77 78 77 75 75 75 74 74 72 71 67 67 69 71 64 66 76 78 79 80 78 75 72 65 63 64 65 71 62 49 74
45 47 90 88 89 89 88 87 84 82 79 78 78 77 76 77 76 75 74 74 73 70 67 67 70 69 66 70 74 76 76 80 80 76 71 63 62 62 64 67 70 54 69
51 46 61 88 87 87 86 84 82 79 78 79 77 77 78 77 76 75 74 75 75 74 68 67 70 69 68 73 79 78 77 77 77 69 59 27 38 61 63 66 69 65 65
52 47 48 90 87 86 84 82 80 78 78 78 77 78 77 77 76 76 75 75 76 75 70 68 70 70 73 81 83 81 78 75 73 64 28 28 34 65 65 66 68 67 65
59 53 55 89 87 86 84 82 79 78 79 78 79 78 77 76 76 76 75 71 72 72 69 71 71 71 80 85 84 80 77 74 69 40 30 35 36 56 67 69 64 70 71
66 59 84 89 87 85 83 80 79 80 80 80 80 78 77 76 76 76 76 70 68 68 65 68 66 74 82 84 83 78 77 71 54 27 31 44 44 62 65 70 72 72 74
76 76 80 89 87 84 82 81 81 82 81 80 79 78 78 78 79 80 77 74 71 72 70 69 72 79 82 81 76 77 75 65 26 26 31 38 50 62 63 66 70 70 70
86 81 86 83 84 83 84 84 85 84 83 82 80 79 80 82 82 81 80 81 78 75 78 78 80 79 78 74 75 77 75 69 29 27 30 37 62 58 60 63 66 66 66
96 96 95 92 83 84 91 92 91 88 86 85 85 84 84 84 81 79 78 79 79 76 77 81 82 78 72 71 72 76 74 66 28 28 26 33 60 56 56 58 61 64 65
97 97 96 92 87 86 84 92 92 92 90 90 88 85 85 81 81 79 78 79 82 78 77 80 80 75 71 70 70 70 66 60 25 23 27 40 61 56 56 58 60 62 63
97 97 94 94 90 86 80 76 87 90 91 89 82 83 74 40 38 45 74 81 84 83 80 76 73 74 73 66 62 59 52 25 25 24 26 73 60 58 58 60 63 63 63
97 96 93 93 90 89 85 76 71 71 56 62 60 54 45 53 40 40 66 84 82 80 76 72 66 60 48 25 26 43 25 27 25 24 32 71 55 62 61 63 62 62 62
91 91 91 93 91 85 87 89 64 56 64 61 60 50 52 56 49 45 50 44 44 53 31 35 34 28 34 29 29 30 28 25 21 21 47 74 58 48 64 63 60 59 60
90 84 83 77 82 76 75 85 59 52 51 58 55 55 54 46 50 48 42 40 42 36 42 40 36 42 38 36 35 36 34 25 22 23 50 79 68 48 66 62 59 58 57
83 85 75 68 67 73 58 42 44 52 48 43 44 44 40 42 52 44 44 37 36 36 36 37 37 34 37 35 33 32 31 32 30 24 30 79 76 60 61 59 59 56 53
70 77 72 60 55 47 46 51 44 43 40 42 46 51 52 45 51 45 43 38 37 34 34 33 33 32 31 32 35 33 31 28 30 31 25 43 76 70 59 54 55 58 53
67 66 61 61 56 52 54 57 45 44 42 45 50 62 57 51 53 48 38 40 38 38 40 39 37 36 32 29 33 30 28 30 27 32 28 28 41 70 62 56 52 47 44
53 59 58 54 60 62 63 52 42 43 46 45 52 58 57 47 48 48 42 42 39 39 36 36 35 34 32 28 30 26 27 27 31 31 29 28 27 23 54 54 52 47 45
46 52 53 57 59 67 68 57 48 50 48 51 55 54 57 47 45 45 40 44 45 38 40 37 37 34 32 28 27 27 29 26 30 21 29 30 30 26 22 52 50 50 46
46 50 51 55 60 64 56 50 39 47 53 59 56 50 52 43 46 46 44 50 41 37 39 37 38 32 31 29 19 26 31 29 28 29 29 24 28 31 28 28 26 30 44
50 49 50 53 56 56 53 48 46 53 55 58 55 55 54 46 46 49 44 47 40 38 39 42 36 39 33 34 33 34 34 37 36 29 29 27 29 29 32 27 26 22 24
49 52 51 50 52 53 46 42 43 48 50 57 60 58 54 51 45 47 47 43 41 40 45 42 39 33 31 36 38 36 40 36 34 34 29 30 37 29 27 30 31 29 27
47 49 46 47 48 52 48 41 49 53 57 62 64 66 56 53 45 44 48 43 46 40 38 42 40 38 36 39 44 46 40 34 33 32 40 33 37 34 30 29 31 30 30
47 46 46 45 45 49 51 46 55 50 54 61 71 60 49 54 49 41 44 46 46 34 35 36 34 43 43 49 43 36 40 34 28 29 34 36 36 34 36 33 30 31 32
45 48 50 48 47 48 53 54 52 55 49 50 58 53 54 55 55 42 42 44 42 35 38 38 50 52 48 41 41 40 39 34 36 35 34 26 26 27 28 31 32 32 31
42 48 50 52 48 49 53 58 57 56 56 60 55 55 55 58 60 48 40 44 41 37 46 53 69 65 48 45 37 34 31 34 34 35 33 32 31 30 28 30 32 31 32

GFSSE_sfc_rhum_033.txt.gz
RH
40 53 91 90 90 90 90 90 88 85 82 79 78 78 77 76 76 77 76 75 74 72 70 70 65 66 68 70 74 76 75 78 76 74 72 66 64 65 67 74 62 52 73
41 51 91 91 90 90 90 88 86 82 80 79 79 78 77 77 78 78 77 76 75 72 71 67 64 64 66 70 74 75 73 76 77 74 67 63 63 64 65 69 72 59 69
47 52 70 90 90 89 88 86 83 80 79 80 78 78 78 78 78 78 79 78 75 73 69 65 63 65 68 73 77 74 72 72 69 69 59 32 46 65 67 70 72 67 67
51 52 66 91 89 88 86 83 81 79 79 78 78 79 78 79 78 80 82 80 75 74 69 64 65 68 72 77 79 76 73 69 66 62 30 31 37 68 67 67 69 68 66
56 46 73 90 88 86 84 82 80 81 79 79 80 79 78 77 77 78 82 80 76 75 68 64 68 72 77 83 81 77 72 72 64 40 32 38 40 58 66 70 66 71 73
71 62 87 90 88 85 83 81 82 80 81 81 80 78 78 77 77 76 77 76 77 74 65 66 70 74 82 83 80 74 70 66 69 27 33 45 46 61 66 70 72 75 74
78 73 84 90 87 85 83 82 83 82 84 82 80 79 78 78 79 78 76 76 75 74 70 70 72 76 79 78 74 73 74 70 24 27 34 42 52 60 62 64 67 66 66
82 84 89 87 87 85 84 86 85 85 84 83 82 82 83 84 83 82 79 81 81 78 80 79 80 78 75 73 73 75 71 68 26 27 34 41 61 59 59 62 64 64 65
97 96 93 89 88 92 92 90 89 86 86 86 86 86 84 83 82 80 78 78 80 81 81 80 78 77 70 70 73 69 65 61 26 26 28 38 60 56 57 60 62 64 65
96 95 94 93 94 90 87 92 91 91 91 91 87 85 84 81 81 81 80 78 79 82 82 77 76 73 69 70 68 68 61 59 23 24 33 46 60 56 57 59 61 63 64
98 96 94 93 93 90 86 88 89 91 88 86 80 79 70 51 47 56 79 83 82 85 82 78 76 75 73 67 60 54 58 24 22 23 32 74 60 58 59 61 62 62 62
97 98 94 94 90 85 76 76 75 59 62 53 48 51 40 58 55 49 77 84 83 81 78 75 73 72 62 26 27 45 25 24 21 26 39 73 60 62 62 62 62 61 61
95 96 94 88 90 88 87 91 91 91 79 60 62 52 55 60 63 59 57 56 50 54 32 37 38 30 35 29 31 33 26 23 20 27 52 75 57 60 65 63 61 61 59
91 93 92 84 85 83 86 93 91 83 68 50 50 52 68 58 64 59 47 44 47 36 38 37 37 42 38 36 36 34 31 24 21 28 54 79 65 48 66 62 60 60 57
92 88 80 85 86 81 78 67 62 45 41 44 54 52 50 49 52 42 42 40 38 39 39 39 40 34 35 34 31 29 27 29 27 22 43 77 76 60 65 61 60 59 54
88 88 86 76 68 65 56 60 61 50 44 43 47 45 42 44 53 44 48 40 38 36 36 35 33 32 29 30 33 28 27 24 27 29 27 52 78 71 61 58 61 58 53
69 68 65 66 59 57 49 52 49 45 40 41 38 52 48 41 52 49 41 41 38 37 38 36 35 32 30 26 28 27 26 27 27 29 25 31 49 74 65 58 52 50 47
68 56 46 36 46 53 52 50 44 42 38 34 40 55 53 47 51 50 41 42 39 40 37 34 34 32 31 27 28 25 26 26 30 30 27 27 26 33 58 58 51 48 47
54 50 57 61 52 52 53 49 42 46 46 40 54 66 58 48 46 48 42 43 44 39 38 36 35 34 32 28 26 28 30 28 30 21 28 30 31 25 26 51 49 46 41
50 51 52 56 58 57 58 54 40 36 40 40 53 51 51 44 47 50 42 47 46 40 39 37 39 31 30 29 19 24 33 31 30 30 30 25 27 30 29 30 32 37 45
46 47 46 48 50 50 57 47 38 39 41 48 58 54 51 46 47 51 43 49 48 41 40 43 38 39 32 32 34 35 35 38 40 32 30 28 28 29 31 30 29 24 31
44 45 44 44 45 45 41 38 35 36 36 42 63 53 49 51 46 49 49 49 48 39 44 46 40 35 31 36 39 40 46 41 37 37 31 30 35 31 29 30 31 31 30
43 43 40 41 42 44 41 36 32 34 39 40 50 56 55 54 48 46 50 48 48 42 46 48 44 40 35 39 43 46 46 42 35 35 40 34 36 36 35 30 31 31 32
41 42 41 39 38 39 41 37 39 38 40 43 49 50 55 59 55 45 46 50 49 44 46 45 37 38 41 41 43 39 45 44 38 34 34 38 38 38 40 34 32 32 31
37 40 43 39 37 38 42 44 40 45 43 41 47 58 63 55 56 49 47 53 52 47 45 47 41 44 52 61 60 62 45 39 40 40 40 32 35 30 29 31 33 33 32
33 39 42 40 36 37 41 47 51 50 49 42 52 56 56 58 56 56 48 57 59 60 47 43 48 61 70 60 70 56 40 36 36 38 40 38 33 28 26 29 34 32 31

GFSSE_sfc_rhum_036.txt.gz
RH
60 73 90 89 91 91 91 90 88 85 81 80 79 78 77 78 80 80 78 77 78 74 66 68 66 66 67 66 68 71 77 77 74 72 72 68 64 66 68 73 71 65 76
63 70 89 89 90 91 90 89 86 82 80 80 80 78 79 80 80 80 79 78 78 71 65 64 64 63 63 67 72 76 77 79 74 70 67 65 65 67 70 70 73 64 70
67 75 77 89 90 90 88 86 83 81 81 80 79 79 80 80 81 81 79 78 77 70 64 63 63 62 62 67 76 74 73 75 76 76 62 57 65 66 69 72 72 67 67
61 69 79 91 90 89 87 84 82 81 81 80 80 80 81 81 82 82 80 79 75 70 63 63 63 64 66 75 78 76 75 74 74 65 45 48 52 69 67 68 72 68 69
61 71 84 91 89 88 85 82 81 82 81 81 80 81 80 82 83 82 80 79 75 70 64 63 65 68 74 80 77 73 70 70 68 49 51 55 60 61 70 71 73 74 74
85 78 91 90 88 86 84 83 83 82 83 82 81 80 79 82 83 83 81 78 75 70 65 64 67 72 81 76 74 75 74 71 60 45 52 60 59 62 65 68 70 71 72
96 88 90 89 87 85 84 84 84 85 85 83 82 80 79 79 82 83 82 79 74 74 68 68 71 76 78 75 73 72 69 67 40 46 54 61 61 61 63 65 65 67 67
98 94 92 88 86 86 86 86 88 88 86 85 84 82 83 82 83 84 82 79 79 80 81 80 80 78 76 73 67 67 69 66 40 46 52 60 64 60 62 64 65 66 66
95 98 95 92 88 90 90 90 89 87 88 89 89 87 86 84 82 84 84 82 83 82 81 80 79 77 73 68 65 65 69 69 46 46 45 58 62 59 60 61 63 64 65
95 98 97 94 91 91 88 91 91 90 91 88 87 87 86 83 82 82 82 82 83 82 80 78 77 75 70 66 61 56 60 66 40 48 56 66 62 58 60 61 62 63 63
98 97 96 97 90 89 87 84 84 89 87 85 81 80 70 63 63 64 82 86 86 84 81 79 77 74 69 61 60 63 58 40 40 54 68 72 62 59 60 62 62 62 62
98 98 96 96 94 90 84 83 86 74 67 64 65 67 62 72 70 72 82 86 86 84 80 76 74 73 64 46 51 60 41 40 42 54 79 75 65 60 62 63 62 62 61
97 97 92 92 90 89 89 90 93 91 86 73 72 66 73 70 74 80 79 75 79 71 53 60 67 59 56 54 55 53 46 38 45 50 78 77 62 64 64 63 61 61 58
96 94 92 89 90 89 83 82 81 88 93 83 68 72 78 77 76 74 72 71 66 61 56 59 67 58 52 49 48 47 44 45 50 56 84 78 71 61 65 63 63 59 57
96 93 90 86 90 89 87 87 83 95 92 69 68 69 70 72 79 74 70 63 62 63 63 65 60 54 52 48 46 41 41 40 39 56 81 79 78 71 65 62 62 58 55
92 94 91 93 91 90 94 88 92 90 87 69 69 70 68 71 72 69 69 65 64 60 61 61 59 53 54 50 45 39 40 41 38 53 62 86 79 76 67 63 62 58 55
86 84 91 94 92 91 88 85 88 76 44 53 64 66 65 60 69 70 66 69 66 62 59 60 51 53 50 41 45 42 42 37 41 39 59 67 77 76 69 59 56 53 50
73 77 75 72 81 80 67 57 68 56 58 58 62 72 66 60 68 73 70 68 63 64 61 60 59 56 53 51 50 47 43 41 39 39 41 50 60 63 71 64 57 54 49
60 63 65 70 65 62 54 51 59 63 68 62 61 72 72 65 64 72 65 67 65 64 67 59 61 58 55 50 46 48 47 48 46 33 40 40 41 54 60 64 58 52 43
53 50 49 52 56 60 56 47 55 55 63 64 67 69 72 66 67 72 68 70 65 67 66 62 61 52 57 54 28 38 54 53 51 51 46 37 46 41 44 52 63 57 52
58 56 56 61 61 58 63 64 64 57 55 56 78 67 75 68 66 72 71 73 70 69 66 67 62 56 55 52 56 56 59 58 56 54 53 50 44 42 45 45 46 52 51
61 60 63 64 62 57 60 63 59 53 51 53 73 72 82 80 62 69 74 70 72 70 69 70 64 66 62 61 66 68 74 69 63 58 58 50 51 46 45 44 44 40 45
62 61 56 58 62 63 61 57 52 52 52 49 69 74 72 68 63 64 72 73 76 74 75 75 69 65 64 66 62 70 75 74 65 65 64 58 61 60 55 51 45 43 46
55 55 50 48 49 51 53 49 52 46 46 51 65 67 66 72 71 67 67 72 74 70 72 75 66 65 64 70 73 59 62 62 66 64 65 63 60 55 62 58 52 45 45
49 53 52 48 47 48 52 55 54 52 50 50 64 68 73 78 76 79 71 74 72 71 67 65 62 61 64 76 78 84 80 80 68 65 65 58 61 58 59 65 58 58 45
45 51 54 50 46 46 51 54 62 66 59 60 66 70 75 76 77 79 71 76 79 85 91 91 88 70 78 81 85 86 87 81 62 69 68 66 61 56 52 58 62 55 55

GFSSE_sfc_rhum_039.txt.gz
RH
91 86 91 91 90 91 90 88 85 83 81 80 78 79 82 83 82 82 80 76 76 72 66 64 63 64 66 66 68 73 76 76 75 74 72 69 66 67 69 71 74 68 73
95 88 92 91 90 90 89 86 83 82 80 79 80 82 82 82 81 82 78 75 74 70 63 61 60 65 69 72 76 79 77 75 75 76 73 65 67 69 68 70 73 67 71
78 93 85 91 90 89 86 84 82 81 79 80 82 82 82 82 81 83 77 74 72 69 61 57 56 61 65 69 78 78 78 75 74 72 72 70 63 67 70 70 72 67 67
66 85 83 91 90 88 85 83 83 80 79 81 82 82 82 82 82 82 76 75 73 68 59 55 56 64 69 75 76 74 75 71 72 68 60 62 62 67 68 72 72 71 67
77 77 82 87 89 86 84 84 82 81 82 83 82 82 82 82 82 82 77 75 73 67 58 55 61 67 72 75 73 72 73 71 71 63 67 71 66 63 69 73 73 74 73
92 91 93 87 88 85 84 84 84 84 84 84 83 84 83 83 82 81 78 75 72 65 58 59 63 67 75 74 72 70 69 70 67 64 70 64 62 63 65 67 70 70 69
94 95 98 92 85 85 86 85 86 86 85 84 84 86 85 83 83 82 78 76 73 70 65 64 65 72 72 70 70 70 70 68 59 65 72 70 62 62 63 65 66 67 67
94 89 89 96 88 88 89 90 88 87 86 85 84 85 86 86 86 82 80 80 79 80 79 76 76 73 69 68 70 73 77 64 57 62 68 72 65 62 63 65 66 66 66
97 96 96 97 92 88 87 93 90 88 89 90 88 87 88 89 86 83 84 84 83 82 80 78 76 70 66 65 67 69 73 67 58 59 57 71 63 60 61 63 63 64 64
97 98 99 99 97 94 90 93 92 91 90 88 87 87 87 89 88 86 84 83 82 81 79 76 73 66 60 58 57 62 66 69 62 68 72 70 62 60 61 62 63 63 62
98 98 98 98 96 89 84 91 89 87 86 84 81 79 77 77 76 78 86 84 82 82 78 75 71 67 63 58 57 61 61 61 73 81 86 73 63 59 62 62 63 63 61
98 99 96 95 95 90 91 95 90 80 73 67 62 69 69 83 77 81 86 86 84 80 77 75 71 68 58 49 55 58 52 60 71 81 84 74 64 61 63 63 62 61 61
98 98 96 96 94 94 92 92 94 87 88 72 75 67 77 84 84 86 88 86 84 76 65 68 67 56 58 58 53 50 50 57 68 79 78 75 67 64 64 63 62 60 61
97 95 92 91 92 90 80 87 94 92 92 87 81 72 74 78 81 78 77 76 69 66 55 59 67 64 56 50 47 44 47 62 70 83 84 73 71 65 65 64 61 59 58
96 94 92 89 87 85 81 88 93 92 91 87 78 76 76 80 77 73 76 69 67 64 57 70 60 55 53 51 48 43 41 52 66 79 94 79 75 70 64 65 62 60 56
94 94 93 90 87 84 87 85 95 89 82 85 87 75 75 77 82 79 86 71 68 67 68 64 60 59 56 49 43 42 43 44 67 76 85 90 83 78 70 66 61 58 55
94 92 93 92 89 87 83 85 94 90 74 75 64 73 71 76 80 87 86 76 72 66 64 67 63 61 60 51 43 43 41 44 50 66 81 86 86 80 76 70 62 57 53
90 87 84 80 88 85 86 87 88 83 67 54 47 74 71 65 70 76 70 73 71 71 64 60 62 58 55 52 51 50 50 45 42 52 71 78 79 77 76 71 62 57 54
86 82 76 81 83 80 75 79 76 67 53 44 48 76 76 71 70 77 74 78 71 67 69 62 65 62 61 59 52 55 53 54 47 38 47 71 75 77 75 71 69 64 50
80 79 79 79 74 71 66 64 64 68 63 58 73 86 74 75 75 80 77 76 70 69 71 70 65 64 59 54 36 46 53 55 58 55 46 43 55 67 71 66 72 66 57
73 74 78 77 72 66 59 63 66 66 69 76 80 80 84 78 82 87 83 78 67 73 72 67 70 55 57 59 58 62 63 63 59 59 58 52 52 49 59 59 66 62 61
62 59 62 62 60 61 53 50 56 74 70 70 74 86 84 85 84 84 86 78 75 76 78 76 64 68 62 63 62 78 76 72 70 61 65 57 57 52 50 47 51 54 56
62 58 51 51 60 54 55 52 67 82 68 72 84 84 83 82 67 82 84 81 80 81 84 81 71 62 66 74 68 73 79 85 77 73 63 64 60 62 58 55 50 47 52
65 63 61 62 67 59 59 64 71 70 64 56 76 84 86 84 84 81 84 80 79 82 82 78 67 66 68 66 73 63 70 67 72 75 62 63 65 59 63 64 59 52 51
61 64 65 66 66 60 60 64 70 67 62 57 76 80 77 86 79 84 89 89 85 83 80 75 73 75 87 92 85 79 83 85 76 79 73 62 73 67 67 67 65 64 54
63 62 62 62 64 63 64 67 65 72 63 61 65 85 85 84 89 91 83 90 89 85 86 87 86 88 93 87 90 89 88 92 90 86 78 73 66 64 67 72 74 68 64

GFSSE_sfc_rhum_042.txt.gz
RH
92 89 91 90 93 89 87 85 83 82 81 81 83 83 84 83 80 80 80 77 74 70 63 65 67 66 66 66 67 72 76 77 76 75 73 67 67 70 73 73 75 71 74
92 85 92 89 90 87 85 84 82 80 80 82 84 83 85 82 80 80 77 75 72 67 64 66 68 68 68 70 75 77 80 80 78 74 71 66 64 67 68 72 74 67 76
95 92 94 94 89 86 83 82 81 80 82 84 84 82 84 80 79 78 76 73 69 65 64 65 67 69 71 74 79 78 76 76 77 78 72 67 61 66 69 68 70 66 72
89 92 90 95 90 85 83 82 80 81 82 84 83 83 85 80 79 78 76 72 68 64 61 63 66 65 65 73 77 79 73 75 76 72 70 68 62 70 71 70 70 68 64
74 80 88 93 92 85 84 81 80 82 83 84 83 84 85 80 79 78 75 72 67 63 61 64 63 63 68 75 76 76 77 77 76 70 80 74 55 60 70 72 71 72 74
86 86 90 90 91 90 89 84 83 84 84 84 83 84 84 79 79 78 75 71 66 62 62 61 61 65 71 76 77 78 77 76 71 75 79 66 65 63 65 67 65 63 64
96 92 88 93 92 90 87 86 86 87 86 84 84 84 84 80 80 78 75 72 69 67 61 60 64 70 71 76 76 76 75 74 68 78 79 74 64 63 64 65 66 66 66
96 96 96 95 96 89 86 88 89 88 89 88 86 85 85 83 82 80 78 78 78 77 74 72 71 70 67 72 76 76 75 70 66 73 75 76 65 62 63 65 65 66 65
98 96 96 92 85 96 86 90 90 90 90 90 88 88 89 85 85 83 83 82 79 77 73 70 68 67 67 69 76 76 76 73 71 69 64 74 63 62 63 64 64 64 64
98 98 97 98 95 91 90 92 93 92 92 91 92 92 89 88 87 86 83 80 79 76 73 69 66 69 69 71 75 77 77 74 76 78 80 72 63 60 60 62 61 61 61
98 96 95 97 96 96 90 92 90 89 88 89 90 90 89 88 84 82 82 81 79 77 73 70 70 69 66 71 73 74 73 80 83 84 86 72 62 58 58 60 62 60 60
98 98 95 95 99 95 92 92 89 81 76 76 76 80 81 87 83 81 81 80 77 78 75 71 69 66 61 56 60 68 75 81 85 89 89 73 62 61 61 62 60 60 59
98 98 94 94 94 93 95 94 92 79 84 75 70 73 76 84 86 92 85 87 84 78 71 65 58 59 54 54 53 62 66 70 82 85 82 75 66 64 65 60 60 59 59
98 98 93 92 92 90 86 87 87 74 86 83 88 80 78 82 87 88 79 82 75 71 63 62 65 60 54 48 48 57 63 72 81 85 82 77 74 65 64 63 57 59 60
97 96 96 90 92 90 84 92 92 90 91 86 77 73 74 74 82 82 79 73 69 66 61 71 65 58 54 49 47 50 61 65 71 80 89 72 77 70 65 64 62 58 59
96 95 92 90 89 92 89 86 91 90 85 86 88 76 76 77 81 78 83 72 70 69 62 70 62 60 53 46 45 47 55 67 70 81 90 93 83 78 70 65 62 58 55
94 94 91 91 88 86 84 81 90 88 74 70 74 82 83 82 86 87 92 82 73 70 71 68 66 65 59 48 45 45 50 65 70 77 86 91 92 83 78 72 63 60 57
95 93 90 84 87 79 79 68 75 84 73 63 64 80 77 78 83 88 86 84 79 77 74 72 68 65 63 54 51 54 50 51 63 74 82 86 87 83 81 75 70 59 55
85 88 92 88 85 76 77 74 78 76 63 58 59 72 78 75 78 82 78 83 79 78 73 67 68 65 62 60 53 57 57 54 52 60 76 82 84 83 83 76 73 69 61
84 78 78 76 77 76 78 80 80 75 63 57 68 78 77 80 78 85 81 82 79 75 74 70 67 72 65 62 41 49 60 61 60 64 67 71 82 79 79 79 84 77 66
87 82 80 81 82 79 73 78 78 78 77 76 75 76 86 80 84 87 86 87 79 67 68 70 72 64 68 67 61 64 65 69 66 65 60 67 69 74 77 76 75 68 69
88 85 81 80 80 74 72 71 72 69 76 76 72 81 87 89 87 87 88 86 76 76 78 77 70 70 64 69 63 78 74 76 74 68 69 60 62 62 64 60 62 61 65
85 84 81 78 75 70 66 63 70 75 82 77 72 74 80 89 87 86 89 85 78 75 79 80 72 64 67 75 72 71 87 85 77 76 72 70 60 66 63 58 56 57 57
77 74 72 74 70 67 63 59 59 60 64 62 66 66 85 89 86 84 88 85 81 81 86 86 74 70 66 68 71 65 72 72 71 73 71 67 64 61 66 68 62 55 53
65 64 61 65 60 59 61 58 58 59 59 76 75 71 79 90 83 80 87 91 86 87 92 91 83 77 85 88 87 84 82 84 74 80 82 64 65 67 65 68 68 67 56
62 58 57 55 54 62 58 61 63 69 72 77 75 72 72 80 90 91 89 92 91 92 94 92 90 86 91 88 88 86 87 89 92 90 86 77 68 62 73 76 78 74 70

GFSSE_sfc_rhum_045.txt.gz
RH
91 91 90 88 88 87 88 86 84 83 81 79 80 83 82 81 81 80 78 75 72 72 67 67 66 66 66 69 71 72 73 77 75 72 72 68 72 71 74 77 77 72 76
87 86 89 82 86 86 86 85 84 83 82 83 84 82 82 82 81 79 76 73 74 71 68 68 68 68 69 72 73 74 73 77 78 74 70 65 66 68 70 71 76 74 77
87 88 86 88 88 85 83 82 83 83 83 84 83 82 83 81 80 77 74 74 74 73 68 69 70 71 72 77 78 78 76 77 78 74 68 60 54 62 64 66 66 66 72
89 90 88 89 88 85 85 83 83 84 83 84 83 82 82 80 78 75 72 74 75 73 68 68 68 71 74 77 78 78 76 76 76 76 74 68 63 70 69 68 68 66 64
84 91 87 90 87 84 84 84 84 83 83 85 82 81 80 79 77 74 71 72 73 70 65 61 59 64 79 82 80 79 77 76 75 73 78 57 60 63 70 70 66 63 64
88 86 89 89 88 87 86 85 84 85 84 86 82 80 79 78 76 74 70 71 73 67 60 59 69 75 82 81 81 78 77 76 76 84 82 66 67 63 63 64 66 64 66
92 88 89 92 84 84 85 85 86 87 86 86 82 80 79 78 77 74 72 73 71 67 61 70 80 81 81 80 78 77 78 75 76 85 83 77 64 63 64 64 63 63 64
98 93 88 84 86 88 84 86 87 87 86 86 82 81 81 79 78 76 77 76 74 71 69 72 79 79 80 78 78 79 78 74 72 80 79 73 65 63 64 64 64 64 64
97 97 89 87 90 90 87 89 85 88 85 86 84 84 84 83 81 80 77 74 70 70 68 68 70 77 78 78 78 80 79 75 81 76 68 75 63 62 61 62 63 63 63
98 98 98 97 96 93 96 91 87 88 89 89 88 89 88 85 83 80 76 73 71 70 71 70 74 78 79 79 79 80 80 77 84 83 82 68 64 61 60 61 61 62 62
98 97 98 98 97 93 89 88 82 91 94 94 91 91 90 87 86 84 78 75 74 73 71 70 71 80 80 79 79 80 76 84 84 87 86 71 63 63 59 60 61 61 61
98 98 93 96 99 92 88 91 80 85 81 88 86 91 93 91 86 76 75 76 78 74 72 73 70 69 66 76 76 77 86 88 89 89 90 73 66 63 64 64 58 57 60
97 96 94 91 96 96 96 96 97 98 97 90 86 84 86 89 90 86 92 90 85 70 66 59 64 54 54 67 75 82 84 87 92 92 84 75 67 60 64 65 58 58 59
98 97 95 93 93 92 94 94 94 95 93 88 84 81 88 91 97 94 83 82 76 74 65 67 70 61 54 62 67 73 76 81 89 89 88 78 74 67 66 64 62 59 59
98 97 93 91 94 93 88 93 94 87 87 88 81 80 82 86 88 90 85 78 71 68 67 73 66 59 54 55 60 62 68 73 75 80 86 80 78 70 66 63 61 61 60
97 98 95 91 86 92 95 90 92 93 82 82 94 83 81 79 82 79 85 72 72 63 74 71 66 63 56 51 56 61 63 65 69 74 83 90 82 78 72 65 63 59 59
96 95 95 96 95 97 94 90 93 86 75 77 82 86 79 77 83 85 87 77 70 68 73 72 70 66 57 48 51 59 66 67 72 77 88 96 93 84 79 74 65 59 59
95 95 90 87 91 90 89 82 82 83 76 74 78 82 79 73 78 85 84 77 76 77 77 75 73 72 65 55 54 56 67 72 71 79 90 95 96 91 85 79 74 66 60
90 95 92 91 94 94 83 82 83 77 67 65 75 83 84 80 79 85 88 85 82 81 82 74 75 71 69 62 55 61 61 68 72 70 86 90 92 92 91 81 77 73 66
88 88 89 86 86 86 79 84 87 87 68 64 66 78 81 83 85 91 88 89 84 82 80 78 72 74 69 65 45 54 65 65 63 81 83 81 91 86 86 86 88 83 73
84 83 84 86 89 87 81 76 80 81 71 68 71 68 80 82 86 91 90 90 87 80 74 72 74 71 72 68 62 65 66 69 68 68 75 86 85 85 86 86 91 85 81
90 83 79 77 80 75 70 66 68 77 74 70 70 79 83 85 85 90 89 92 88 81 80 78 72 72 70 71 65 74 68 70 77 66 67 70 80 83 80 78 78 73 72
97 93 84 76 77 73 70 81 73 72 76 78 79 85 83 89 90 90 91 92 90 85 82 81 78 68 69 74 73 65 88 76 73 68 70 66 63 68 70 66 65 65 65
96 92 84 80 77 73 79 78 78 69 66 64 71 76 79 88 92 92 92 91 90 88 88 81 77 74 72 71 71 71 70 73 72 68 73 71 66 59 63 68 62 64 63
89 90 86 82 80 75 73 73 74 75 72 70 82 83 84 89 91 93 93 94 93 91 90 92 93 90 88 90 86 88 82 81 74 78 83 70 70 67 65 64 61 62 60
85 84 83 82 79 74 73 72 70 73 71 70 74 78 78 87 94 94 92 94 94 94 93 92 92 92 86 92 91 85 87 86 91 86 89 86 69 66 64 69 69 68 73

GFSSE_sfc_rhum_051.txt.gz
RH
70 65 89 84 89 90 91 88 87 86 86 86 86 84 85 85 84 83 82 80 80 76 70 68 69 72 64 67 72 74 76 80 80 78 78 75 74 75 76 77 75 67 78
62 73 92 86 89 89 90 89 88 86 86 86 85 84 85 85 84 81 79 77 76 72 66 66 67 64 67 70 73 76 77 77 78 76 74 72 71 72 73 76 77 65 74
64 70 71 88 88 88 87 88 88 87 86 85 84 85 85 83 80 78 76 75 73 70 65 65 65 66 71 74 78 75 74 73 73 70 66 46 52 66 66 70 71 69 71
66 72 73 90 85 87 86 85 85 84 85 84 84 84 83 80 79 78 77 75 73 71 65 66 67 69 74 78 79 79 77 77 79 71 45 43 46 67 69 68 68 69 69
85 74 72 89 88 88 87 85 85 84 84 84 84 83 80 80 79 78 78 76 72 70 67 66 70 74 79 82 81 78 76 75 72 53 48 51 49 57 66 65 65 67 67
93 77 86 90 88 88 88 86 86 85 85 84 83 81 79 80 80 79 78 74 73 73 71 70 74 78 84 82 80 78 78 74 62 42 48 52 53 64 65 67 68 67 68
92 80 80 89 88 89 88 86 87 86 86 84 83 80 80 80 80 80 78 76 74 74 73 76 76 80 83 81 78 77 78 72 46 45 44 47 54 66 66 68 69 68 62
96 93 83 84 82 86 87 88 88 88 86 84 82 80 80 81 80 79 75 73 73 78 82 83 82 81 80 78 78 80 78 68 48 45 45 50 65 63 64 63 63 63 63
93 98 95 87 85 89 86 88 86 86 86 85 82 79 80 82 81 77 77 82 80 86 85 83 82 81 79 78 80 81 80 70 47 47 44 45 62 62 62 63 63 64 64
95 96 94 96 91 93 88 86 88 84 81 80 82 82 84 83 80 78 83 86 86 86 84 81 81 81 80 81 81 81 81 74 48 47 44 47 64 62 62 63 63 64 64
98 93 90 92 92 94 93 86 84 79 79 80 84 86 81 64 60 60 73 85 84 83 81 81 81 82 81 82 82 82 74 50 49 47 44 69 64 62 63 63 64 64 64
97 99 96 96 95 95 92 87 84 79 77 77 75 75 65 68 58 52 69 81 84 83 82 82 82 82 67 52 59 70 50 53 50 49 46 71 64 63 63 63 63 63 62
95 98 99 97 95 93 92 94 94 91 92 87 81 68 67 60 61 55 58 57 65 73 61 62 65 51 56 52 51 54 57 56 51 49 58 72 63 61 61 61 60 60 60
98 96 98 96 97 94 96 97 98 95 94 89 82 73 67 62 62 65 55 52 56 56 65 62 57 61 60 56 57 61 59 54 52 51 57 76 71 60 60 58 60 60 60
96 96 94 94 95 99 94 98 98 96 92 92 83 66 64 58 62 52 53 45 47 52 54 55 57 56 58 58 57 58 60 61 61 53 52 79 78 68 62 60 60 60 59
87 89 90 89 90 96 94 96 98 96 94 96 88 76 74 65 66 52 51 46 49 44 47 49 52 54 52 53 59 58 60 59 61 62 54 60 82 76 70 65 64 63 60
93 96 85 88 87 93 94 93 96 94 94 92 90 81 72 67 66 59 50 48 49 48 48 46 52 52 52 51 54 56 55 59 57 63 61 57 62 84 78 73 66 66 63
96 97 92 88 94 92 96 94 94 96 95 92 91 74 69 61 63 62 53 49 50 51 47 44 44 48 48 48 50 48 46 47 50 53 57 56 53 49 76 79 75 70 65
88 98 97 96 94 93 97 97 96 92 94 89 89 72 71 61 59 56 49 51 58 56 55 49 49 45 48 46 44 45 47 45 49 41 50 57 62 62 58 80 82 78 73
79 86 96 97 96 92 94 95 95 88 79 86 85 76 68 57 60 60 54 59 54 56 56 52 52 49 45 42 31 43 51 48 47 48 48 54 64 69 67 63 60 60 80
82 90 94 96 97 95 97 94 90 91 79 79 71 68 68 59 61 66 58 63 58 56 59 62 56 55 52 50 44 43 43 48 52 47 51 50 60 62 63 62 59 52 68
82 81 91 92 94 93 94 92 85 80 75 70 75 80 68 67 64 68 68 67 66 65 67 70 64 57 51 51 45 45 47 44 46 46 46 51 59 56 54 61 62 73 61
85 84 85 89 90 88 89 96 91 80 73 66 70 79 71 72 60 63 72 74 82 76 64 70 67 63 56 56 52 46 53 52 45 44 50 50 57 52 50 56 61 64 65
76 77 77 80 87 84 88 92 84 72 71 63 61 71 72 71 72 68 69 75 77 75 76 73 67 64 61 59 54 47 56 50 52 58 55 51 49 53 56 56 53 58 60
72 75 77 75 76 80 81 83 80 73 64 65 63 71 69 66 64 66 70 74 75 76 77 78 80 77 72 67 65 60 59 62 67 83 71 66 62 48 45 56 64 52 53
71 78 77 74 73 71 76 74 76 72 63 61 67 66 60 60 68 70 66 73 74 79 81 81 81 80 78 73 69 65 61 79 81 79 84 65 69 49 63 62 55 57 50

GFSSE_sfc_rhum_054.txt.gz
RH
52 45 90 90 89 88 88 88 88 88 87 87 85 84 83 83 84 84 82 79 77 76 70 71 70 69 73 74 76 77 80 80 80 79 78 75 74 75 73 76 73 62 77
51 46 90 90 90 85 85 88 89 88 87 86 84 84 84 85 84 83 82 80 78 74 70 70 67 66 73 74 76 80 80 80 80 80 78 74 75 75 75 77 76 63 73
52 56 63 90 91 90 87 88 89 87 86 85 84 85 84 85 84 83 81 78 76 74 69 64 65 67 72 74 78 77 77 76 75 71 69 52 57 70 71 72 73 69 70
48 52 54 92 90 90 89 88 88 87 86 84 85 85 84 82 81 80 78 76 73 71 65 65 66 66 71 77 78 79 78 72 70 70 34 40 53 70 70 70 69 67 68
52 47 47 90 91 88 90 89 88 86 85 85 85 84 82 81 80 78 76 74 73 69 63 65 69 74 78 82 81 80 78 77 72 44 36 41 44 58 65 66 66 68 67
77 50 71 91 90 88 88 88 87 87 86 85 84 82 82 81 80 78 76 74 73 71 66 68 73 78 82 82 81 77 76 73 63 32 35 46 44 63 64 67 63 65 64
92 63 62 92 90 81 77 88 88 88 87 85 83 82 81 81 80 80 76 75 75 75 71 72 77 79 80 81 78 76 73 68 32 32 36 42 54 65 66 67 63 66 65
89 74 69 82 84 80 79 85 89 87 84 84 82 82 82 81 81 79 78 78 78 79 80 81 82 80 79 78 77 77 74 63 36 33 37 42 63 64 65 62 64 63 64
88 95 81 82 66 82 81 88 90 86 84 84 84 83 83 84 83 80 79 80 81 84 84 84 83 81 79 78 80 78 74 72 34 34 35 40 64 62 63 63 63 64 64
77 97 89 90 82 69 80 94 89 86 84 83 85 85 87 84 81 82 82 84 87 86 84 83 82 81 79 81 82 82 74 68 33 32 34 45 64 62 63 63 63 63 63
93 89 94 97 94 82 85 90 81 80 83 83 84 88 83 61 62 61 66 88 87 86 83 83 83 82 83 82 82 79 74 33 34 32 38 70 64 61 63 64 64 64 64
95 96 92 97 91 82 79 92 93 88 76 80 78 75 64 67 61 46 77 89 87 85 84 84 84 84 65 42 48 68 34 38 34 36 41 72 64 62 63 64 64 63 63
78 97 86 95 91 90 97 98 97 97 92 92 86 77 69 59 50 58 65 65 64 70 48 56 59 38 38 36 40 38 41 40 35 36 56 74 66 63 62 63 63 61 61
83 87 96 92 96 96 97 98 95 95 91 96 92 78 68 55 55 54 50 49 52 45 48 46 41 42 42 38 40 44 44 38 36 37 55 76 70 63 61 61 61 60 60
92 88 90 96 94 95 95 97 97 93 92 94 89 65 56 56 53 44 45 43 43 41 44 43 41 42 41 39 41 43 43 42 43 36 44 78 76 67 62 61 60 60 59
86 88 92 89 92 94 96 96 98 94 96 95 81 56 51 52 52 43 41 36 37 40 40 38 38 37 35 36 41 41 43 43 44 43 39 53 81 75 69 63 62 60 59
73 80 85 91 91 94 94 98 96 95 94 93 65 61 50 54 58 53 36 34 35 35 38 36 39 35 33 33 40 41 40 43 41 45 41 42 56 82 77 72 66 64 61
88 87 82 80 91 91 93 95 95 96 96 93 75 63 58 52 56 50 36 35 33 35 34 36 38 36 35 33 37 37 36 38 42 43 41 41 42 44 74 79 76 71 66
87 94 87 86 91 90 92 95 93 94 93 95 81 58 58 49 46 41 36 39 44 36 36 35 36 36 36 33 33 34 34 32 36 32 39 45 46 41 41 80 81 80 75
74 92 87 86 88 88 90 94 94 95 94 94 80 59 53 46 50 44 38 44 43 38 40 39 40 36 34 32 24 30 34 33 33 34 36 34 38 46 44 46 56 58 81
74 87 94 92 92 93 94 94 94 93 88 86 76 64 64 52 50 46 38 46 43 42 43 49 44 44 37 36 32 34 35 39 41 34 34 35 39 43 47 46 45 42 54
67 79 89 91 88 89 90 91 89 87 76 73 68 64 62 63 48 47 44 45 44 41 52 55 53 47 40 40 38 37 43 38 36 37 34 37 43 39 40 48 45 43 40
64 76 86 88 91 87 90 90 92 94 92 81 72 59 60 58 46 44 50 47 49 45 49 58 57 55 48 49 47 43 47 48 38 36 42 36 42 42 42 39 43 42 44
57 62 74 86 87 89 91 88 90 88 87 77 72 55 50 57 55 46 49 53 55 50 51 53 52 56 55 50 48 42 47 44 43 48 39 41 53 45 46 39 38 43 44
52 59 66 76 82 85 85 84 87 83 76 73 70 71 66 60 55 50 52 58 60 57 61 62 62 64 55 66 53 48 51 47 51 52 54 48 52 58 52 41 41 40 48
49 55 63 71 76 82 84 81 82 79 71 67 74 73 78 74 67 64 56 64 67 64 63 70 67 68 66 61 64 55 55 52 51 52 53 55 60 80 80 61 57 47 48

GFSSE_sfc_rhum_057.txt.gz
RH
40 56 92 92 92 89 90 90 90 90 89 87 86 84 86 85 85 84 82 79 78 77 74 76 76 75 74 76 78 79 81 82 81 80 79 77 75 75 74 76 74 63 76
44 50 92 91 91 90 90 90 90 90 88 87 85 84 85 85 84 83 81 80 79 75 71 71 74 74 75 78 80 83 83 83 82 81 79 74 74 76 76 78 76 65 74
47 50 61 89 91 88 88 88 89 88 88 86 84 84 86 84 83 83 82 79 78 74 68 68 73 74 76 78 82 81 80 80 78 74 70 56 61 73 72 74 74 73 71
40 50 49 91 90 88 89 88 88 86 86 86 85 85 85 83 84 83 81 80 78 73 65 66 71 74 74 78 78 77 77 76 76 71 44 51 56 72 70 70 70 71 69
48 48 48 88 91 88 90 90 89 87 85 86 85 86 84 84 82 80 78 78 75 71 64 64 69 74 79 82 78 76 74 71 70 52 38 47 56 65 68 68 65 66 67
57 42 76 91 92 90 90 90 89 88 86 84 84 85 84 82 80 79 77 74 72 70 67 70 74 78 83 81 80 78 75 72 69 31 37 48 50 68 68 67 66 66 66
63 52 74 91 92 90 86 88 87 86 86 84 85 84 82 81 79 78 76 74 73 73 73 74 78 78 81 79 78 76 74 66 30 33 37 45 56 65 64 67 66 66 66
67 70 73 82 90 84 83 83 90 84 83 85 85 84 83 81 79 79 78 78 77 78 80 82 81 80 80 78 76 72 70 67 33 33 39 46 65 64 64 65 65 66 65
65 76 78 76 72 90 86 92 95 89 87 86 86 85 83 82 80 80 81 82 81 83 84 83 83 82 79 78 74 73 71 70 32 34 36 45 64 63 64 64 64 64 64
70 86 80 78 79 70 81 91 95 94 81 87 86 87 87 83 81 81 82 84 85 85 86 84 84 82 80 80 79 74 68 65 31 32 37 49 65 62 63 63 63 64 64
66 82 94 83 78 73 70 89 95 95 76 84 86 89 87 62 64 69 75 88 87 87 86 85 84 84 83 80 75 72 76 29 30 33 42 70 64 61 63 63 64 64 64
67 82 87 93 81 76 80 94 92 95 90 78 65 69 78 79 65 53 81 89 88 87 86 85 85 84 64 40 44 65 39 32 32 37 46 72 64 62 64 64 64 64 64
64 74 94 92 88 79 93 95 99 92 90 90 80 77 84 86 65 73 81 80 67 71 60 59 61 41 38 36 41 40 37 35 33 38 58 73 64 62 63 63 63 63 63
62 75 87 92 85 87 90 88 97 98 98 97 90 84 90 80 71 77 68 62 61 51 52 46 42 41 39 37 39 42 40 33 34 40 59 76 70 62 62 62 62 62 62
68 72 96 95 86 85 87 93 94 97 97 95 94 88 92 66 73 64 66 61 50 45 45 43 38 37 38 38 39 42 39 38 39 39 48 77 75 67 61 61 61 61 61
79 90 92 98 96 95 94 94 96 97 94 95 92 88 82 60 70 62 61 49 43 40 39 37 37 37 34 36 41 41 40 40 38 43 44 56 79 75 68 60 61 61 60
66 76 90 94 93 95 94 96 97 98 95 94 92 88 72 60 62 53 48 44 40 39 40 36 38 34 32 33 39 40 39 42 39 41 42 47 58 81 78 71 66 62 62
78 73 80 88 95 95 94 96 98 97 96 93 92 82 61 53 57 52 41 40 36 38 36 34 35 33 32 33 38 38 37 39 41 42 38 42 47 48 75 79 75 71 65
73 83 77 84 89 92 94 97 97 95 96 94 90 59 58 52 47 49 41 45 44 37 36 34 36 35 34 33 34 35 35 35 40 35 39 43 45 44 53 77 82 81 75
66 80 78 80 91 90 92 96 96 97 97 95 77 60 56 48 51 54 50 57 48 36 35 35 43 36 35 33 26 31 35 32 32 35 37 36 41 46 46 58 65 66 83
60 80 83 87 89 89 93 95 97 96 96 94 86 58 61 51 50 58 52 61 58 44 42 46 40 41 35 34 30 32 34 36 37 33 34 35 37 40 44 43 63 56 63
60 76 86 82 89 84 85 82 81 89 92 88 82 76 57 56 48 52 54 54 58 46 50 53 52 43 35 34 33 34 40 37 37 40 36 37 45 37 40 47 48 50 54
58 71 86 84 83 80 82 80 84 83 88 90 82 74 68 63 50 52 56 54 57 50 51 58 56 53 44 42 45 39 43 41 39 40 49 41 48 45 41 39 44 44 46
53 60 76 84 79 77 83 87 87 86 83 75 73 65 48 60 60 55 48 51 54 49 52 59 52 56 53 50 50 45 52 51 57 68 46 48 44 44 52 48 49 42 44
46 60 65 85 83 79 77 83 86 78 71 69 73 71 60 64 78 62 50 54 55 52 56 57 62 65 57 56 53 52 55 51 54 56 62 55 49 42 42 66 58 61 46
43 52 67 76 86 85 80 81 83 83 81 77 76 79 61 61 67 69 50 56 61 64 66 62 67 66 66 60 70 58 60 58 56 62 65 56 67 60 50 58 80 89 80

GFSSE_sfc_rhum_060.txt.gz
RH
62 73 91 91 91 91 92 92 91 91 89 87 88 88 88 86 83 82 81 80 78 77 75 74 74 74 76 78 80 83 83 83 82 81 80 77 74 74 76 79 77 70 80
58 64 92 91 92 91 92 92 91 90 88 87 87 88 87 86 83 82 81 81 81 79 76 75 75 74 77 80 83 85 85 84 82 82 81 78 75 75 75 78 78 72 75
49 72 75 93 92 91 91 91 90 90 88 86 88 88 87 85 83 83 83 81 79 78 75 75 74 74 78 81 84 83 84 83 80 76 76 68 68 73 74 75 75 74 76
41 63 66 91 92 92 91 90 90 88 87 86 87 88 86 84 85 84 82 80 77 76 73 74 75 75 78 82 81 82 80 76 75 71 60 63 63 72 74 74 72 68 68
49 52 58 86 89 91 91 90 89 86 86 85 86 86 85 86 83 83 82 78 76 73 70 73 74 77 79 80 81 81 81 80 77 60 60 66 68 70 69 65 66 67 68
56 50 86 89 89 90 90 89 87 87 87 86 86 85 86 84 83 82 80 76 73 71 69 73 77 79 83 81 77 74 73 74 77 48 59 65 64 72 68 67 67 67 67
63 66 78 90 90 91 86 84 87 88 87 86 86 85 84 83 82 81 79 76 75 74 74 76 79 80 81 80 77 71 67 69 42 50 60 64 61 65 66 67 68 68 68
69 72 79 84 88 83 88 85 84 83 83 84 87 85 84 82 81 80 78 77 79 81 82 82 83 81 81 78 71 69 74 73 44 51 59 65 67 65 65 66 66 66 66
71 74 82 85 80 90 91 94 96 97 95 88 87 85 84 83 82 80 82 81 84 85 85 84 84 82 79 74 74 71 71 72 46 52 54 63 65 64 65 65 66 66 66
71 80 86 85 86 85 89 95 94 94 88 98 87 86 84 83 82 84 84 85 86 86 86 85 84 82 80 76 70 70 71 68 44 50 60 65 65 63 64 64 65 66 66
75 85 88 87 85 86 95 93 94 92 91 97 88 87 84 74 78 81 82 87 88 88 87 86 86 84 80 73 70 73 74 46 45 55 62 71 64 63 64 65 65 65 65
70 84 88 90 88 92 95 96 95 95 96 97 84 85 78 81 79 73 84 90 90 89 87 87 86 81 67 65 67 70 62 43 50 58 66 71 64 63 64 65 65 65 65
66 82 86 89 87 92 96 97 99 98 99 100 90 88 92 92 82 86 91 91 89 87 80 82 77 57 53 56 60 62 60 44 52 57 69 74 66 63 64 64 64 65 64
66 68 86 88 88 90 89 95 95 97 97 98 93 89 90 94 90 85 86 79 74 69 70 70 64 60 56 54 59 60 54 46 56 63 75 76 70 63 62 63 64 64 64
66 76 88 90 85 86 90 94 96 96 96 95 92 88 94 94 92 88 79 69 62 63 64 61 59 53 57 54 58 56 54 49 58 62 76 78 73 67 62 62 62 63 62
74 86 94 95 91 88 89 92 94 95 95 94 91 88 90 93 92 84 82 70 61 59 58 55 55 58 57 56 60 57 53 48 54 62 69 81 79 74 68 62 62 62 62
75 86 92 98 96 93 88 90 96 94 94 93 91 88 87 93 80 77 72 67 60 55 56 56 56 58 58 52 59 60 59 56 51 58 62 69 80 81 76 69 66 63 62
82 87 89 89 96 94 95 95 96 95 95 92 91 88 85 81 70 75 71 67 56 52 54 60 59 58 60 60 63 63 62 59 58 54 58 62 67 65 81 80 75 71 66
70 85 86 94 97 96 96 97 98 98 97 92 91 88 85 79 68 77 86 83 63 63 64 58 62 58 61 60 59 63 63 62 63 50 55 56 64 64 68 80 83 80 75
72 73 82 87 91 93 96 98 98 99 96 93 91 85 84 67 65 75 64 69 65 61 62 62 61 61 60 59 38 50 62 62 63 66 60 55 60 59 66 68 78 78 83
76 78 81 87 92 94 97 98 98 98 97 94 92 78 70 64 64 65 66 65 63 59 57 61 62 62 64 60 59 65 62 59 63 60 62 62 60 62 70 67 75 74 77
79 82 81 83 89 89 91 87 91 93 96 92 92 68 65 65 60 62 66 66 66 68 65 65 59 64 61 62 61 62 69 65 61 60 62 58 63 60 59 69 72 73 70
70 82 87 82 84 84 86 87 92 92 94 94 94 78 62 63 55 56 68 69 71 73 71 70 68 67 65 66 60 60 66 69 60 61 63 67 62 71 62 62 65 67 69
64 78 86 82 83 82 82 85 90 90 91 74 84 82 63 70 61 55 60 66 72 71 73 75 69 74 74 68 66 54 71 78 83 82 67 66 68 64 68 68 63 65 58
57 71 83 83 82 80 80 80 82 83 76 68 78 82 72 72 76 62 65 72 70 66 67 76 79 77 77 85 70 78 77 79 79 90 88 76 69 66 68 75 76 72 65
54 70 81 85 81 80 80 80 82 81 79 70 75 74 71 68 78 79 64 70 73 76 72 78 82 82 78 83 86 82 81 80 81 86 91 86 85 74 67 73 83 84 79

GFSSE_sfc_rhum_063.txt.gz
RH
86 92 94 90 90 92 93 94 93 90 89 89 89 88 86 85 84 83 81 79 76 76 73 76 75 73 75 80 82 85 84 84 83 82 81 78 76 77 78 81 82 77 82
84 86 94 92 90 91 92 93 93 89 88 89 89 87 85 84 84 82 80 81 78 76 73 73 72 71 74 81 86 86 85 85 85 84 81 77 75 77 79 79 82 76 79
78 88 87 94 91 89 88 92 92 89 88 88 89 87 84 84 84 84 85 84 82 79 74 72 76 74 79 84 85 84 83 82 82 81 78 75 73 78 77 77 78 75 74
76 84 91 95 93 91 90 92 91 88 87 88 88 86 85 86 86 85 84 84 82 79 73 75 74 78 82 84 83 82 81 81 80 77 69 72 68 74 70 72 71 71 70
71 73 84 95 95 93 92 92 91 89 88 89 88 85 85 86 86 85 83 82 80 77 74 74 74 78 84 86 84 80 80 79 77 69 70 72 68 69 70 68 66 66 67
69 63 90 93 94 93 92 91 90 90 88 89 87 85 86 85 84 83 82 79 79 77 74 73 77 81 83 82 82 81 77 75 73 70 68 70 66 66 64 66 63 66 66
73 88 89 91 94 92 91 89 88 89 85 87 86 87 85 84 83 82 80 78 78 78 77 76 80 81 80 80 78 75 72 71 64 70 68 67 63 67 66 65 65 68 67
76 90 89 87 90 91 86 88 88 89 82 80 86 87 86 84 83 81 79 78 79 81 82 83 81 81 80 77 76 74 71 69 62 66 65 62 67 66 64 66 67 67 67
77 86 92 91 86 89 93 95 94 94 96 96 92 87 85 83 83 81 82 83 85 85 86 83 82 81 78 78 72 76 71 72 64 66 61 58 65 64 65 66 66 66 66
83 94 93 90 92 93 98 95 93 93 92 94 94 95 90 82 83 85 86 87 87 87 86 83 83 79 78 72 71 72 72 71 63 67 74 63 65 63 64 65 66 66 67
93 95 93 93 93 97 97 93 91 89 89 93 94 96 90 81 84 82 88 89 89 89 87 85 83 78 74 71 74 73 67 60 64 67 75 72 64 63 65 66 66 67 67
90 97 96 94 97 96 96 96 96 94 96 93 94 95 92 86 82 85 90 90 90 89 88 86 82 77 68 66 66 67 55 61 65 68 71 72 65 63 65 66 66 66 66
87 97 96 96 97 98 98 98 98 98 97 97 96 96 93 92 91 94 93 93 89 90 84 78 76 70 62 64 63 66 57 63 65 66 71 74 66 64 65 66 66 66 66
86 92 96 96 96 97 96 96 97 97 99 98 98 96 96 96 96 94 91 89 87 88 91 86 77 68 59 59 60 68 58 64 67 72 74 75 70 64 64 65 66 65 64
92 90 96 95 94 97 97 98 97 97 97 96 97 93 94 94 94 94 86 82 79 84 83 75 73 65 58 57 61 56 60 67 68 71 81 80 76 68 63 64 65 65 62
96 94 96 95 94 95 98 95 97 97 95 96 93 92 86 93 93 90 76 71 76 74 70 63 64 67 61 61 65 56 60 66 68 74 78 78 79 75 67 64 64 64 63
94 87 98 97 95 94 96 96 97 97 96 95 91 86 82 87 86 88 69 67 69 68 59 66 68 64 68 64 64 62 58 67 70 73 76 83 78 81 78 71 66 64 64
96 98 94 95 96 96 97 98 97 96 96 93 90 84 84 79 82 88 78 65 68 63 61 62 63 62 69 69 73 70 63 65 69 72 72 74 79 73 81 80 75 71 66
95 93 96 95 98 97 97 98 97 96 95 92 91 87 85 78 76 85 85 79 67 66 68 62 64 61 68 72 68 71 72 71 69 63 70 73 79 76 79 83 82 81 75
95 93 91 96 97 97 97 98 98 98 97 94 90 82 84 74 78 85 82 86 80 77 72 61 59 66 64 65 49 60 74 74 72 73 71 68 74 74 74 74 80 77 84
93 93 91 95 98 97 98 98 99 98 98 97 91 79 81 74 73 73 70 74 77 81 62 56 65 63 69 69 68 76 73 73 73 71 76 70 71 70 75 75 78 78 79
92 94 89 91 95 94 92 93 93 96 96 93 92 88 76 74 66 70 69 74 71 77 76 66 64 68 65 70 65 70 72 66 70 70 74 70 75 69 71 72 77 76 77
94 94 88 89 92 91 91 93 93 94 96 96 93 86 73 71 61 62 64 70 70 70 71 67 64 60 63 66 60 66 77 73 74 72 73 74 70 76 76 73 76 76 77
95 94 84 86 89 88 89 91 92 91 93 84 82 72 66 70 67 64 64 66 69 78 79 72 61 68 68 66 72 63 72 82 86 86 75 76 72 68 76 81 80 78 77
92 96 92 86 86 85 84 86 84 83 78 80 86 86 75 74 71 65 73 72 77 79 83 80 76 62 79 83 71 70 80 88 87 92 90 82 75 78 73 68 70 75 74
90 96 95 90 87 85 85 84 86 83 83 79 94 95 85 76 72 73 69 76 75 76 79 88 85 73 74 85 89 86 81 79 86 92 93 91 86 80 69 71 73 73 79

GFSSE_sfc_rhum_066.txt.gz
RH
95 95 95 93 93 94 94 93 92 91 90 89 88 87 86 86 85 83 82 81 80 80 76 76 80 78 77 78 83 85 86 85 84 82 82 79 79 78 81 83 83 78 83
90 94 95 93 93 93 92 93 92 91 90 89 88 86 86 84 84 82 82 81 80 80 74 75 77 78 79 81 87 86 86 85 85 83 81 78 78 79 79 82 83 80 82
91 94 91 94 93 93 92 93 91 90 90 89 88 86 85 84 83 82 80 80 80 78 74 72 76 79 79 86 87 87 86 84 85 84 81 79 75 78 78 79 80 78 77
84 93 93 94 93 93 93 93 91 88 89 89 86 86 85 84 87 87 85 82 80 76 69 68 77 78 84 86 85 84 84 83 83 82 75 72 72 75 74 74 72 71 72
84 89 92 95 94 91 93 92 91 90 90 89 86 86 86 87 87 87 86 84 80 78 73 73 74 81 86 84 84 84 83 82 81 76 72 73 71 71 70 68 68 68 69
86 85 96 96 94 92 93 92 91 91 91 90 87 87 87 87 86 87 85 82 80 79 76 75 79 86 86 84 84 83 82 81 78 71 70 69 66 66 66 65 68 65 68
88 86 96 97 96 93 92 92 92 91 92 91 88 88 87 86 86 86 84 81 79 81 79 80 84 87 87 83 80 81 82 80 70 69 67 69 66 64 63 64 65 67 64
93 95 94 94 96 92 89 90 93 92 91 91 89 89 87 86 85 84 83 82 83 81 82 84 84 83 79 77 79 81 79 74 67 70 66 66 70 70 66 69 69 64 65
94 94 95 92 92 94 95 91 92 92 84 87 94 88 88 87 85 83 84 85 84 83 86 85 84 80 76 78 79 79 78 74 66 66 61 61 65 64 67 66 66 66 66
91 96 96 94 93 98 97 96 96 97 97 93 94 96 96 91 84 83 85 86 86 87 86 85 82 78 78 78 79 80 79 76 71 75 65 56 65 64 65 65 66 66 66
96 96 96 96 97 98 96 95 94 93 96 94 92 96 95 95 85 86 85 88 88 88 86 84 80 79 79 78 80 79 74 66 69 76 75 71 65 64 65 64 66 66 66
97 96 96 97 99 98 95 96 97 96 95 93 93 97 98 98 95 86 90 89 89 89 88 84 81 80 71 65 69 73 67 67 71 77 78 73 65 64 65 66 66 66 66
95 98 97 99 98 98 98 99 98 99 98 97 93 90 96 97 92 94 94 92 88 87 84 81 83 70 67 65 63 67 69 68 72 72 72 75 67 65 66 67 66 67 67
98 97 98 99 98 98 96 98 98 98 99 99 95 91 96 99 97 93 85 91 94 91 94 92 84 67 63 64 64 70 69 70 76 75 75 78 72 66 66 66 66 66 67
97 98 99 98 98 98 97 96 97 97 96 96 96 93 92 95 95 93 88 89 92 90 92 87 77 63 60 66 67 66 70 72 76 75 79 81 76 69 65 65 66 66 66
98 97 99 97 98 98 98 97 98 98 96 96 97 93 92 92 94 93 87 84 85 81 79 81 77 64 63 65 65 66 70 73 76 81 80 79 82 76 69 65 66 65 65
96 96 97 98 97 98 95 96 97 97 97 96 96 94 92 90 91 90 80 80 77 72 75 79 80 70 65 64 65 66 73 74 78 81 82 83 81 82 78 72 68 66 65
96 96 98 95 97 98 97 97 99 97 98 96 93 90 91 86 85 83 70 71 70 69 63 75 81 78 72 76 77 69 73 76 76 79 79 81 88 77 81 81 76 73 68
95 97 98 98 98 97 98 98 97 97 97 96 96 89 87 83 82 79 73 74 63 63 63 69 81 75 73 79 72 76 74 82 81 72 79 83 86 84 87 83 83 81 77
97 95 95 98 98 96 98 97 98 97 97 96 93 82 85 76 81 84 73 83 67 66 65 70 76 72 66 72 56 69 80 80 79 82 80 76 84 84 84 83 82 80 84
98 97 97 97 98 97 98 98 99 98 98 96 94 82 84 77 81 86 74 77 75 80 70 67 70 64 72 74 72 79 80 87 81 80 82 83 83 83 86 83 88 83 80
96 95 96 96 97 97 96 94 96 96 97 94 95 92 83 83 76 80 82 78 81 84 86 69 66 75 69 69 71 75 77 71 75 79 88 82 82 78 79 78 80 81 81
97 97 95 95 95 93 92 95 98 96 98 99 98 97 93 87 72 66 76 73 78 82 78 73 69 62 66 75 64 71 74 73 73 73 80 87 86 84 77 77 78 77 79
97 95 95 94 91 90 92 92 94 90 96 91 92 91 93 85 77 68 71 72 77 78 84 75 66 67 67 63 71 61 62 74 80 79 82 79 77 81 80 79 78 80 78
96 97 96 94 90 89 92 88 92 93 88 88 89 90 93 92 78 66 69 76 75 82 85 85 76 71 67 78 69 72 76 89 91 93 91 85 84 75 70 80 82 84 82
96 97 97 95 90 89 90 91 86 87 84 86 90 90 91 79 77 76 62 71 77 81 82 82 76 67 66 68 79 80 78 78 90 93 92 90 85 79 72 73 82 84 82

GFSSE_sfc_rhum_069.txt.gz
RH
91 98 96 94 94 94 92 93 92 92 90 90 89 88 88 87 87 87 85 84 83 81 77 77 82 79 76 79 82 84 86 86 85 84 83 81 79 78 80 83 84 80 83
90 96 96 95 94 91 90 93 92 92 90 89 88 88 88 87 86 85 85 84 83 80 75 77 82 79 77 82 87 87 86 86 85 84 82 78 78 79 81 83 84 83 83
96 95 94 95 94 92 90 92 92 90 90 89 88 88 87 86 86 85 85 84 82 80 76 76 76 78 82 87 88 88 87 86 86 85 82 81 76 77 79 82 83 81 81
95 93 94 95 94 94 93 92 91 90 88 88 87 86 86 85 85 85 85 84 81 79 76 77 78 80 84 88 88 87 87 87 85 82 79 74 71 74 72 74 78 78 79
96 91 93 94 94 94 94 93 92 90 90 88 87 86 85 84 84 85 85 83 80 78 75 75 79 82 88 88 86 86 86 86 84 79 81 75 77 73 75 72 73 73 73
95 96 95 95 93 94 94 94 92 92 90 88 87 85 85 86 85 86 85 81 77 74 76 77 80 85 87 87 86 86 86 82 80 77 74 71 69 72 69 69 73 74 75
95 97 96 96 94 94 94 93 92 92 91 89 88 86 88 87 88 88 85 82 80 78 80 83 85 86 88 87 86 85 84 81 75 72 72 64 64 68 65 64 64 65 66
94 96 98 96 95 94 94 91 93 93 93 90 89 88 87 88 89 87 85 83 81 82 84 86 84 85 84 85 85 85 84 78 71 72 74 70 66 64 66 69 64 69 66
94 98 99 96 93 96 96 92 93 89 88 93 91 88 87 88 88 87 85 84 85 85 87 87 86 81 83 85 85 83 80 77 70 68 68 76 69 71 63 62 68 68 66
96 96 98 97 97 97 98 96 94 96 97 98 96 94 93 94 90 90 88 86 87 88 87 84 80 81 83 85 83 82 80 77 71 70 64 70 72 69 65 67 66 67 66
98 98 97 97 98 98 98 96 93 91 90 92 96 98 96 95 95 86 89 87 89 89 86 82 81 83 84 83 82 82 75 71 72 78 67 73 65 64 64 65 66 65 64
98 97 97 99 99 99 97 98 96 92 94 96 95 95 98 98 98 89 92 90 89 89 86 83 85 84 80 77 77 76 70 75 75 79 74 74 65 64 64 64 63 67 68
96 98 98 99 97 97 99 99 99 99 98 97 94 94 92 97 98 95 98 93 92 86 80 78 78 72 72 73 73 74 73 74 78 80 73 75 68 64 65 66 66 64 68
98 98 99 95 96 97 97 98 99 99 99 98 98 97 97 97 97 97 97 92 95 90 86 78 72 70 68 67 71 75 73 76 84 85 81 78 72 63 65 66 66 67 68
98 99 98 95 94 98 98 98 98 98 98 97 98 95 96 95 95 97 93 93 98 97 84 77 71 67 68 70 71 72 76 82 86 84 87 79 76 70 66 66 66 67 67
96 99 98 98 98 98 98 98 98 99 98 98 97 94 94 92 95 92 86 92 95 91 90 75 65 68 70 70 71 72 76 80 86 91 91 82 78 76 70 66 66 66 67
96 98 97 98 96 98 98 97 98 97 98 97 97 93 93 91 93 90 89 94 91 89 88 81 76 74 72 68 69 75 78 84 87 91 91 92 85 81 79 72 68 67 67
96 98 99 96 95 98 99 97 99 99 99 98 98 95 88 91 88 89 85 83 80 79 76 76 81 75 73 73 75 79 81 84 87 90 91 91 92 84 83 81 76 71 68
95 97 99 98 96 98 98 98 99 98 99 98 99 99 96 91 86 82 78 79 76 71 70 71 86 70 76 82 76 80 87 86 88 79 86 89 92 90 92 86 84 82 76
97 97 96 91 97 98 98 98 99 99 99 98 98 96 97 90 83 82 76 81 72 66 69 74 71 80 80 79 67 78 83 92 87 91 85 83 91 90 91 90 90 86 85
98 99 96 90 98 98 98 98 98 99 99 98 98 90 94 92 83 77 76 75 70 68 62 74 83 78 88 82 81 85 85 87 90 89 92 91 90 89 91 91 96 94 85
91 95 98 90 94 96 97 94 96 97 97 96 97 95 90 87 88 80 78 76 70 70 77 74 78 84 82 79 79 78 88 78 81 89 94 92 88 82 83 85 89 92 91
91 94 97 96 89 89 94 96 97 98 99 99 99 97 94 90 90 88 78 78 77 74 78 75 78 72 77 84 71 76 81 88 80 81 86 91 86 89 82 81 84 83 86
89 96 96 87 89 93 94 95 94 94 97 96 95 96 96 90 90 91 89 80 81 82 82 76 70 67 68 71 78 65 66 77 85 83 79 82 88 89 86 88 82 82 79
85 91 91 89 96 94 92 91 94 90 88 92 94 95 97 97 92 83 84 89 80 86 83 82 80 72 64 72 76 77 77 82 84 87 86 84 91 81 83 85 84 82 81
88 89 91 91 96 94 92 93 97 89 89 94 94 95 96 96 94 93 87 87 84 84 88 90 87 79 74 66 76 81 79 80 86 92 93 91 85 78 73 78 87 87 87

GFSSE_sfc_rhum_072.txt.gz
RH
93 96 94 92 82 92 93 95 94 94 89 87 88 89 89 89 89 88 86 85 83 80 79 81 82 81 78 79 81 86 86 85 84 82 82 82 79 78 82 84 85 78 83
94 94 94 92 87 91 91 94 94 93 91 90 90 89 89 89 88 87 87 85 83 81 78 81 82 78 78 81 87 88 88 87 87 85 83 79 77 79 82 84 85 81 83
95 96 96 90 84 91 91 91 93 92 91 90 89 89 89 88 87 87 87 85 83 80 74 77 77 78 82 87 88 88 87 88 87 86 84 80 78 79 81 82 84 82 81
94 93 97 92 87 91 92 91 92 90 86 90 89 89 89 88 86 87 87 85 82 76 75 76 77 80 85 88 88 89 88 87 86 84 80 78 72 77 79 79 79 79 80
97 90 96 95 93 92 92 92 91 90 88 89 90 88 88 86 86 88 87 85 80 78 79 76 79 84 89 89 89 88 87 87 86 82 82 75 74 72 75 76 77 79 81
97 89 97 96 95 93 93 91 91 91 91 90 89 88 87 86 86 88 87 83 80 79 78 77 82 88 89 89 88 88 86 85 83 84 79 76 73 72 70 70 74 75 77
99 92 88 97 96 94 93 92 91 92 92 90 89 88 86 86 86 88 86 82 81 80 80 84 88 89 89 88 87 86 85 83 80 82 75 74 72 71 71 70 73 74 75
96 99 94 92 96 96 94 93 92 93 92 91 89 87 86 85 85 86 85 81 80 82 85 89 89 89 88 88 87 85 84 79 75 77 71 71 72 63 62 64 65 70 71
95 98 99 91 91 97 97 96 95 94 90 92 88 90 86 87 87 82 82 82 83 86 89 89 89 88 87 87 86 85 83 79 77 75 67 62 72 70 69 64 69 68 71
96 97 99 96 96 98 99 98 93 93 92 87 97 96 91 88 84 87 82 84 88 88 88 88 87 87 88 87 86 84 82 78 74 73 78 75 65 60 67 71 70 70 67
98 97 99 99 99 98 97 98 94 93 93 93 94 95 99 98 90 88 85 89 90 90 88 84 85 88 88 86 84 83 75 76 70 71 78 78 71 69 70 69 68 66 65
99 99 98 99 99 99 98 98 95 94 94 94 95 93 95 98 98 89 91 86 90 89 86 82 87 89 85 83 80 78 73 74 74 76 75 77 64 63 64 63 63 64 63
96 98 98 98 97 98 99 99 98 97 96 97 96 96 93 95 96 97 97 94 95 88 80 84 89 83 85 83 84 81 79 80 78 81 75 74 66 62 63 62 64 70 70
97 97 98 96 98 97 96 99 97 98 98 99 97 95 96 97 98 97 98 99 96 88 86 89 84 85 81 80 78 78 78 78 84 84 78 76 71 62 61 66 67 71 69
97 98 96 95 97 98 98 99 99 99 98 97 98 95 95 97 96 93 96 98 94 92 86 83 80 80 80 79 76 76 78 83 85 84 86 79 76 67 65 61 63 65 67
96 98 94 95 95 96 96 98 99 98 99 98 98 95 92 94 94 89 95 96 96 84 82 78 74 76 77 78 79 77 78 84 84 87 86 80 78 75 70 64 64 65 66
94 98 95 96 95 93 95 98 98 97 98 99 97 95 94 92 92 90 92 96 94 90 89 79 78 82 81 77 80 78 79 85 87 89 89 88 80 80 78 73 68 66 67
98 97 93 92 95 93 95 98 98 97 98 96 98 96 93 91 90 92 94 95 92 87 80 73 76 80 83 83 85 83 80 84 90 91 90 89 88 81 82 79 76 73 69
96 96 93 95 95 92 98 98 99 99 98 98 96 97 92 90 92 92 94 93 85 84 81 74 81 76 82 88 84 83 85 89 91 84 90 90 90 88 88 84 81 80 77
98 99 91 94 95 96 98 99 99 99 99 99 98 99 93 96 94 95 91 90 78 77 78 71 73 81 82 82 74 89 92 90 92 93 90 84 89 88 88 88 88 86 84
98 99 92 96 98 98 98 97 99 99 99 99 98 99 95 96 94 87 84 82 75 74 72 72 70 72 90 84 90 94 94 91 91 91 91 90 88 87 88 88 90 88 84
97 98 89 87 98 98 97 92 97 97 99 97 98 98 98 96 92 89 84 76 73 70 78 72 71 82 85 81 87 89 97 88 85 87 90 89 90 86 86 86 88 89 87
96 93 90 87 94 96 94 97 98 99 99 99 99 99 96 96 93 91 89 76 73 66 74 77 82 79 88 90 77 84 93 94 89 88 90 92 91 89 84 83 85 84 87
90 88 90 88 85 94 95 94 94 93 97 97 98 96 97 93 92 90 89 86 73 71 78 73 75 79 80 81 84 73 74 82 90 90 86 91 87 86 86 84 82 84 82
84 88 98 91 88 92 94 93 96 96 92 95 97 97 97 97 95 92 90 91 81 80 85 82 82 78 79 81 81 78 79 80 80 87 86 80 87 84 80 83 82 82 80
82 89 95 85 84 90 91 93 94 93 93 98 99 98 98 98 97 95 96 92 90 90 89 89 86 76 78 80 79 81 80 79 84 86 87 87 85 78 77 82 86 83 80

GFSSE_sfc_rhum_078.txt.gz
RH
37 43 91 91 91 92 94 93 92 91 90 89 90 90 90 90 90 91 90 89 86 83 80 78 79 77 77 78 80 84 86 87 86 85 85 83 80 80 80 82 77 58 84
42 48 89 86 89 91 92 94 93 92 90 89 90 90 90 90 91 90 89 88 85 83 79 79 78 77 77 82 87 88 87 88 87 85 84 81 80 78 76 80 76 70 85
47 55 69 86 88 92 92 93 93 92 90 90 90 90 90 90 90 89 88 88 85 82 81 78 78 79 82 88 88 88 88 88 87 84 79 57 61 80 82 85 84 84 84
40 50 58 89 89 92 94 95 94 91 90 90 90 89 90 90 89 88 87 88 85 83 82 79 77 80 86 90 90 89 89 88 86 83 49 51 55 80 80 81 81 80 82
43 46 51 89 89 93 94 94 91 92 91 90 90 90 90 90 88 87 87 87 84 83 82 78 79 86 91 91 91 91 89 87 84 67 50 53 55 72 78 80 81 80 78
46 48 79 88 85 93 94 94 90 82 91 92 91 90 90 89 88 87 88 86 83 83 82 80 85 90 92 92 90 90 88 84 84 50 53 61 58 77 78 83 84 85 84
53 54 68 89 88 88 93 94 93 89 94 94 92 91 90 88 88 85 88 84 82 82 80 84 90 92 92 91 90 89 85 83 49 50 51 58 64 78 78 80 80 81 81
60 62 66 88 91 91 92 94 95 92 93 94 93 90 89 86 88 86 83 84 83 82 81 90 92 92 91 90 89 87 83 80 46 43 47 54 74 75 76 77 79 81 79
63 67 72 81 77 94 93 94 94 96 94 95 94 85 87 92 91 79 80 79 80 84 90 92 92 91 90 88 88 85 83 77 40 40 39 52 77 72 72 72 74 75 75
62 70 83 82 79 75 78 94 94 93 93 94 92 89 86 93 96 96 88 84 83 86 92 92 92 90 89 88 87 85 82 76 39 39 38 49 77 68 69 69 71 73 73
59 62 80 84 78 81 73 75 92 93 91 93 90 95 93 81 91 92 92 86 88 95 93 92 92 90 89 88 87 83 80 37 38 34 39 77 71 68 69 69 71 72 71
58 61 70 85 81 83 79 78 70 64 62 64 68 77 71 79 80 68 78 87 89 95 95 94 93 92 78 55 56 74 39 40 37 36 42 81 70 67 68 70 69 69 69
48 52 58 76 69 75 87 83 62 55 59 72 72 76 82 74 68 65 82 85 90 89 95 87 79 58 58 56 50 46 41 45 36 35 57 79 74 69 68 66 68 65 67
47 48 57 72 73 85 82 82 74 64 59 72 67 75 79 76 78 70 77 77 95 94 95 87 71 68 64 52 48 47 47 39 37 35 57 82 78 68 66 64 62 64 65
43 49 55 78 83 82 87 84 87 71 77 82 77 70 64 72 69 84 86 88 94 96 92 86 66 68 59 50 49 49 47 45 44 36 46 80 80 74 62 60 61 65 68
42 47 55 70 77 73 76 87 89 80 76 88 87 79 68 77 83 85 89 92 94 96 91 74 61 67 53 47 50 49 48 44 44 40 37 52 78 75 71 67 67 67 67
41 44 63 77 80 75 70 82 91 92 88 85 82 83 82 80 88 89 85 94 94 95 93 76 65 59 50 45 50 49 46 46 41 43 37 42 58 81 78 75 72 69 68
40 50 62 72 80 74 80 82 87 91 91 87 89 88 83 77 86 84 86 94 94 96 95 77 60 56 52 46 48 45 43 43 44 44 41 39 47 51 72 78 75 72 70
40 52 62 71 75 78 81 85 86 88 90 94 94 95 89 80 78 86 91 90 90 96 95 72 57 53 54 47 46 43 44 44 46 38 43 43 44 42 44 77 79 77 74
41 52 61 76 78 77 77 86 88 91 93 94 96 95 94 96 92 90 90 93 88 94 93 72 64 58 50 46 42 44 48 46 45 44 43 41 42 44 40 47 51 54 80
46 52 60 81 78 81 86 92 94 94 94 95 91 88 90 92 99 95 95 94 90 91 89 78 58 58 56 52 50 56 54 54 54 50 49 46 44 44 46 42 41 38 52
49 53 59 70 74 74 72 76 84 91 93 89 90 90 87 82 92 97 96 94 93 91 89 76 67 58 55 53 52 54 74 70 61 56 49 47 50 42 43 46 46 45 43
50 57 56 61 64 68 66 67 71 86 88 92 92 90 88 80 91 96 94 95 94 90 88 72 64 61 59 55 50 47 60 57 60 55 60 53 56 55 47 48 49 48 49
48 55 54 58 63 62 59 65 71 77 90 77 77 96 86 89 96 96 93 94 94 89 84 73 57 62 57 61 56 42 42 38 52 66 55 59 55 58 60 51 50 51 51
45 56 58 59 65 58 58 62 63 80 79 70 82 93 94 93 94 97 95 96 94 88 79 69 67 66 58 54 57 57 55 52 47 44 54 61 58 57 54 56 54 52 53
47 58 62 63 67 61 60 65 74 77 78 73 85 87 98 98 98 96 94 94 91 84 75 73 71 66 61 59 60 65 53 53 51 46 47 49 55 56 55 56 62 58 52

GFSSE_sfc_rhum_081.txt.gz
RH
23 54 92 92 92 92 92 93 92 92 91 91 91 91 91 91 91 91 91 89 87 85 82 81 80 77 75 79 81 87 89 89 88 87 86 84 80 78 79 83 79 63 84
28 47 92 92 91 92 92 92 92 92 91 90 91 91 91 91 91 91 90 88 86 85 82 82 79 75 78 80 88 89 89 89 88 86 85 81 79 76 75 80 79 74 86
34 45 65 91 92 92 92 92 92 92 90 90 91 91 91 91 91 91 90 89 86 85 82 79 78 78 80 88 90 90 90 88 87 86 80 56 63 81 82 87 87 85 84
31 43 49 90 92 93 93 93 92 92 90 90 91 91 88 91 91 89 90 89 86 84 82 78 78 82 88 91 90 90 89 87 86 83 55 55 58 81 80 82 82 82 82
27 35 47 89 92 94 94 95 94 93 91 91 90 91 91 91 90 86 88 90 86 84 80 78 81 87 92 92 91 90 88 86 82 74 50 57 64 75 80 82 83 83 80
29 31 84 91 93 93 94 94 94 94 94 94 92 91 90 90 89 84 85 88 84 83 81 80 85 91 93 93 91 89 87 86 84 64 63 63 62 78 79 84 87 86 86
35 37 65 90 89 93 93 94 91 90 94 94 92 92 90 89 88 83 86 87 84 82 81 85 92 93 93 92 90 88 87 88 60 63 65 66 71 80 81 82 83 85 85
43 46 59 83 88 91 94 95 94 91 93 95 94 90 89 84 85 82 83 83 79 79 82 91 93 93 92 91 90 87 87 82 63 50 57 69 79 78 78 81 82 84 81
48 54 63 70 75 93 94 94 95 94 93 96 95 90 83 89 95 91 83 80 80 80 88 93 93 92 91 90 89 86 83 81 56 56 53 57 81 76 77 79 80 78 78
51 57 64 69 70 68 70 95 94 94 95 93 90 91 91 94 95 94 97 90 88 86 84 92 95 92 91 89 87 82 81 73 41 44 58 58 80 73 73 75 77 76 75
48 55 76 76 68 64 68 69 92 93 91 92 86 89 91 74 79 87 94 95 92 91 82 95 94 92 91 89 86 81 78 35 44 40 54 81 75 69 70 72 74 73 71
45 51 66 78 69 64 50 77 66 65 63 64 58 67 66 78 76 80 87 91 95 95 95 96 94 93 86 68 63 74 46 47 32 34 49 79 74 69 70 70 72 72 71
38 43 49 73 69 70 58 75 59 59 58 67 64 68 72 84 81 84 90 85 88 92 91 95 92 76 67 61 56 50 48 39 32 39 65 80 75 69 69 69 70 70 71
34 38 45 56 58 60 52 67 54 56 69 58 64 72 82 80 81 90 69 77 82 86 94 95 91 76 66 60 52 46 53 35 32 46 65 84 78 70 67 66 66 68 67
28 37 44 50 54 60 80 84 74 53 52 68 63 71 76 69 77 78 69 77 69 80 94 95 91 74 63 56 49 55 40 39 36 40 49 83 81 75 67 65 66 65 66
27 35 42 56 60 68 78 81 78 72 68 66 67 66 69 74 72 75 79 74 83 88 91 92 90 78 64 58 51 46 42 39 40 39 44 61 81 78 71 64 66 66 66
21 30 45 60 63 64 64 72 72 82 83 82 77 74 70 68 73 73 72 84 88 95 93 93 93 78 52 51 50 51 39 40 39 38 42 51 63 82 77 76 73 69 68
20 33 42 52 64 61 59 68 74 78 77 86 84 87 70 66 78 85 86 90 91 96 96 95 94 75 67 45 56 41 40 39 40 40 37 41 47 47 75 80 80 76 74
21 35 45 58 64 65 61 78 78 83 89 93 87 88 77 77 80 90 84 93 93 95 97 95 93 68 55 57 56 39 45 38 41 34 38 44 50 52 52 78 80 81 79
24 35 47 58 61 61 64 74 68 84 86 90 85 83 78 83 87 87 90 95 91 96 97 96 91 66 51 52 43 45 60 51 38 38 39 38 42 46 45 54 57 60 81
28 38 48 59 60 59 61 69 72 76 73 83 84 85 91 86 84 87 95 95 93 92 95 94 91 70 66 57 60 65 68 66 61 38 38 37 38 39 42 50 48 43 58
33 40 48 56 59 58 54 58 61 71 69 68 75 81 84 86 87 98 95 95 90 93 95 96 92 80 62 57 61 56 84 73 62 60 50 41 45 39 40 44 43 43 46
35 44 47 54 57 58 54 57 63 81 73 78 78 81 77 76 76 85 96 95 94 93 93 89 92 78 70 66 56 52 66 62 60 62 61 55 51 45 41 42 43 42 44
35 42 45 51 54 56 56 61 72 73 73 65 66 71 73 74 80 89 96 94 94 94 92 89 88 85 69 63 58 43 50 39 53 68 56 60 49 48 51 43 44 46 49
34 43 47 49 51 53 54 52 56 56 59 59 62 77 88 84 92 97 96 96 96 95 93 91 89 82 69 63 56 54 57 54 63 54 60 64 59 49 49 53 47 50 49
31 44 50 50 50 51 52 52 56 56 60 62 69 81 94 93 95 98 98 97 95 94 94 91 87 76 69 63 60 59 56 61 55 48 53 56 57 53 51 57 64 60 56

GFSSE_sfc_rhum_084.txt.gz
RH
55 74 92 90 92 93 93 92 92 93 93 92 92 92 92 92 92 93 91 90 88 86 84 83 83 79 80 81 86 90 91 91 90 88 87 85 81 78 81 84 80 76 86
58 70 93 92 91 91 93 93 92 92 92 92 92 92 92 92 93 93 92 90 88 85 83 81 80 78 80 85 91 91 91 90 90 88 85 83 81 77 77 82 84 83 86
53 72 77 93 92 92 92 93 92 92 91 92 93 93 92 93 93 93 92 91 89 85 82 79 79 76 81 91 92 91 90 90 89 85 80 72 82 82 84 89 88 87 85
43 60 70 94 93 93 93 93 94 92 91 92 92 92 92 93 92 92 92 91 89 85 82 79 76 80 88 92 92 91 90 89 87 85 70 72 72 83 84 85 85 84 84
42 48 66 93 94 94 94 94 94 94 93 92 92 92 90 92 88 88 90 91 87 84 82 77 79 88 93 93 92 90 88 83 82 76 73 79 81 80 82 83 85 84 85
40 43 89 92 94 94 94 94 94 95 95 94 94 92 90 90 86 87 87 87 85 84 83 81 86 92 93 93 92 89 87 84 81 80 72 80 79 78 79 85 88 88 87
51 74 76 93 94 94 94 94 94 95 96 95 94 94 92 91 86 86 88 86 86 83 83 86 93 94 93 92 90 87 88 87 75 79 81 87 84 81 80 84 87 88 88
58 73 80 89 93 94 95 94 93 93 95 96 94 92 92 91 88 85 83 83 80 81 81 85 93 93 92 91 90 90 89 83 73 79 78 89 86 81 81 83 86 87 86
63 72 82 81 83 94 96 96 95 92 93 92 94 93 91 93 93 89 90 93 91 85 83 92 94 93 92 91 90 92 89 79 78 85 70 79 85 80 80 82 82 82 81
66 73 81 82 83 85 89 96 95 94 93 92 94 94 94 91 91 93 94 90 96 97 89 93 95 92 93 93 90 85 82 82 77 77 68 80 82 78 78 80 79 79 78
62 68 81 81 81 82 80 86 93 94 95 94 92 93 96 86 92 94 93 94 94 97 97 92 96 96 95 94 91 89 82 60 62 62 75 85 81 76 78 80 80 79 78
61 66 77 83 82 80 62 84 82 80 83 85 79 85 85 88 90 91 94 95 95 97 95 96 96 95 93 93 93 90 73 62 63 65 76 84 78 73 75 78 77 75 75
50 58 75 83 81 81 72 82 79 77 77 80 80 81 86 92 91 94 93 92 94 97 96 96 96 91 86 85 84 90 69 57 58 63 77 83 77 70 71 73 74 73 73
41 49 68 75 76 81 73 78 78 76 78 78 82 81 92 96 88 90 86 90 93 92 96 96 96 91 84 80 70 71 64 52 64 66 82 85 78 71 68 67 66 65 71
35 45 55 70 72 75 77 78 81 76 77 82 84 83 85 94 89 88 86 88 86 89 94 97 96 91 84 79 67 64 59 52 60 66 79 86 83 76 68 66 68 64 68
29 42 54 62 67 70 80 86 88 85 80 81 88 82 82 88 90 82 83 84 86 90 94 96 96 93 93 84 79 65 56 54 57 65 77 85 84 81 74 67 65 63 63
26 32 57 68 70 79 79 85 88 86 84 81 82 81 82 84 86 82 83 85 87 90 94 94 96 96 96 89 71 62 56 53 54 64 68 76 83 83 79 73 73 67 64
22 32 53 62 74 78 79 82 80 85 90 90 88 88 82 79 83 85 90 91 92 96 96 95 95 96 96 91 63 60 53 57 57 55 64 66 72 66 80 81 79 76 76
16 34 56 69 74 76 76 79 82 84 89 92 93 91 85 79 79 89 86 90 94 96 96 95 97 97 97 92 59 62 58 60 60 47 60 61 65 65 71 84 83 83 80
15 38 59 67 74 74 77 83 85 92 90 92 95 95 88 87 85 91 92 95 94 96 97 98 98 98 94 80 48 55 63 60 60 64 56 56 64 68 70 76 87 82 82
34 44 62 71 75 72 82 84 87 92 89 94 92 90 88 89 91 93 95 95 93 93 95 95 98 97 97 75 76 74 74 72 64 63 65 62 60 62 66 70 73 71 79
40 46 62 67 69 68 72 74 71 75 82 84 84 87 88 90 90 92 96 94 93 96 96 95 96 97 96 79 68 75 89 79 74 67 68 59 59 58 56 61 63 63 68
44 51 56 64 65 66 66 67 71 76 80 77 87 90 88 88 88 91 95 95 96 96 97 95 96 94 92 88 61 67 86 89 86 81 79 77 72 71 62 62 59 57 63
43 52 54 60 61 64 65 67 75 79 82 76 80 87 84 83 87 91 95 94 94 94 96 95 95 94 94 79 79 57 63 67 81 95 84 76 77 64 71 64 63 63 61
42 53 55 61 61 63 63 69 74 78 74 74 80 84 86 90 89 92 94 96 96 96 95 94 97 94 95 84 71 77 68 72 64 80 91 84 79 72 70 73 72 70 62
38 52 58 62 62 62 65 71 75 74 71 75 84 88 96 94 92 95 96 96 94 94 96 95 95 94 94 89 80 74 73 77 73 78 80 79 75 73 66 72 75 76 70

GFSSE_sfc_rhum_087.txt.gz
RH
84 88 93 92 91 92 92 93 94 94 94 93 93 91 90 91 92 92 92 91 89 86 84 84 84 82 80 78 85 88 88 87 85 84 86 85 81 80 85 87 85 80 87
80 86 93 93 92 92 92 93 93 94 93 93 94 93 92 92 93 92 91 92 89 87 82 82 82 81 83 86 90 92 92 90 88 87 85 83 82 80 82 88 88 86 87
82 86 86 93 93 93 92 92 93 93 93 93 94 94 93 93 93 93 92 92 89 87 83 82 80 82 86 90 92 91 91 90 89 86 87 87 81 82 85 90 89 88 86
80 87 90 94 93 94 95 94 93 92 92 94 93 94 94 93 94 93 93 92 90 87 84 78 77 83 89 92 92 91 90 89 88 85 83 80 78 83 84 85 85 85 85
71 78 87 94 94 94 94 96 95 94 94 94 94 94 93 92 91 92 92 92 90 87 84 78 80 88 94 93 92 90 87 85 87 84 92 91 86 82 83 84 86 86 87
60 74 95 95 95 95 95 94 95 96 95 95 95 93 92 90 90 90 91 90 88 86 83 82 88 93 93 93 91 88 87 86 85 91 90 87 83 82 83 86 89 88 86
80 86 91 95 95 95 95 94 94 96 96 96 95 93 93 90 89 89 91 87 88 87 82 85 94 93 93 92 89 88 88 86 84 91 94 94 85 81 81 86 88 89 88
86 88 89 93 95 96 95 95 95 96 97 96 96 94 93 92 90 87 88 87 82 84 86 85 94 93 92 91 89 89 90 81 85 89 89 93 85 82 82 84 88 89 88
88 92 96 96 94 96 96 95 95 96 97 97 96 94 93 94 94 90 89 90 95 95 96 91 94 93 92 90 91 92 86 88 90 91 83 85 86 82 83 83 84 84 85
90 94 95 96 97 98 100 96 95 94 93 92 92 94 94 94 91 94 92 93 92 91 94 96 95 92 92 94 92 92 88 88 83 89 91 84 84 78 80 82 82 82 81
84 93 95 96 96 97 97 95 95 95 94 94 93 96 97 97 96 96 94 93 90 91 94 97 98 98 97 95 94 89 91 91 92 89 93 88 84 79 80 81 82 81 79
83 95 92 95 96 96 85 96 98 96 99 97 96 96 97 98 99 97 96 93 92 94 95 96 99 97 96 98 98 93 94 75 86 88 84 89 82 76 79 82 82 80 80
71 85 89 89 94 94 88 98 99 98 98 97 93 96 97 98 99 95 99 96 97 95 97 97 99 96 95 95 94 94 91 72 88 86 85 88 81 75 76 78 78 76 76
69 78 86 82 93 94 97 97 96 94 95 96 94 94 98 99 98 98 99 100 96 97 97 95 97 97 95 91 88 90 85 72 78 79 82 87 81 74 73 74 74 73 72
59 73 85 84 88 87 95 97 97 96 93 93 96 94 97 98 95 98 97 98 97 96 94 97 96 97 94 88 80 83 80 73 76 78 84 88 84 76 70 70 69 67 69
28 66 84 82 83 82 94 94 97 96 96 96 96 94 96 97 97 94 96 95 98 96 95 95 96 97 95 93 90 83 74 72 75 81 86 86 86 81 74 67 62 66 68
26 48 83 82 84 85 92 95 97 96 96 97 95 94 94 94 94 97 97 95 96 97 97 98 98 98 97 92 95 85 66 71 75 82 86 86 85 85 82 77 73 70 66
18 49 76 72 84 87 95 97 98 97 97 97 97 96 94 94 90 91 95 97 98 98 98 98 97 97 96 96 97 93 60 65 70 80 83 84 88 83 83 82 78 76 72
18 51 70 77 85 88 94 95 96 94 98 98 97 97 93 94 94 95 94 97 97 97 98 97 97 93 95 97 96 90 60 67 68 70 79 82 85 86 87 84 83 81 79
14 56 71 76 86 91 93 96 97 89 98 98 98 97 90 93 92 96 97 98 99 98 98 98 97 97 97 97 89 77 58 63 65 74 76 72 76 76 82 86 87 86 84
16 66 74 81 89 90 92 96 97 92 96 100 99 96 94 94 95 98 98 97 97 98 96 96 97 97 98 97 95 85 75 66 66 72 71 69 72 72 83 84 86 89 85
41 72 77 80 84 89 88 88 97 97 92 98 98 96 91 95 97 98 97 96 97 96 97 96 96 99 98 97 88 69 87 79 76 76 68 65 72 68 77 79 81 82 84
56 72 79 81 80 87 86 87 91 95 98 98 98 97 94 94 97 96 96 96 96 94 96 97 95 93 96 97 85 68 82 82 81 86 80 73 71 71 72 73 75 72 77
68 72 76 78 78 82 82 84 86 90 96 96 93 92 98 96 95 96 96 96 94 94 96 96 94 95 95 93 88 60 67 76 74 91 88 78 83 70 77 74 73 69 70
58 72 75 80 78 75 79 81 87 94 94 94 96 96 97 97 96 96 97 96 96 96 95 95 97 96 94 92 82 76 72 74 76 89 94 90 90 84 78 75 73 72 66
59 67 72 78 76 74 77 81 84 92 91 94 96 98 99 98 98 98 97 96 95 96 96 96 94 93 96 92 90 80 73 80 76 83 94 94 73 88 81 81 82 80 76

GFSSE_sfc_rhum_090.txt.gz
RH
90 93 95 92 92 92 93 93 93 92 91 90 90 91 91 90 91 92 92 90 87 86 85 82 84 83 80 80 85 86 86 87 85 87 87 85 82 82 85 89 88 84 88
88 92 96 92 92 92 93 93 94 93 93 92 91 91 92 92 92 92 92 91 89 86 83 82 83 82 79 84 89 88 87 88 89 90 87 83 83 82 84 89 89 87 88
89 91 93 94 92 92 93 93 94 94 93 93 93 92 92 93 92 93 93 93 90 87 82 81 81 82 85 90 91 91 90 90 90 89 87 89 86 82 85 90 90 88 86
84 91 93 95 94 93 93 94 94 93 92 94 94 93 92 93 93 93 94 93 90 88 83 81 81 85 89 93 93 92 91 90 91 90 89 89 82 82 84 86 86 84 85
86 88 89 96 96 95 94 94 94 94 95 95 95 94 93 93 93 92 93 91 90 88 84 80 81 87 93 93 93 91 90 91 90 90 97 93 88 83 82 84 85 86 88
85 87 96 96 96 96 95 94 95 96 96 95 95 95 94 93 92 92 92 90 90 87 84 82 88 91 93 92 91 90 89 91 92 95 93 90 85 81 82 87 89 87 85
86 94 96 96 96 95 95 96 96 96 96 96 95 95 95 93 92 92 92 90 90 87 83 82 84 90 93 91 89 87 91 90 92 96 96 94 88 82 83 86 88 87 86
91 95 96 95 96 96 96 95 96 97 97 97 96 95 94 93 93 91 90 90 89 88 89 88 94 89 92 91 89 90 91 88 92 96 93 94 86 82 83 84 89 90 90
91 96 98 98 97 97 97 97 97 98 98 97 97 96 95 94 93 91 88 89 90 91 92 90 93 91 85 91 90 90 92 92 96 95 87 88 86 82 83 85 87 87 86
90 94 98 99 99 99 98 97 98 98 98 98 97 97 96 96 94 92 92 92 92 94 93 93 94 96 83 90 92 92 93 92 94 92 93 86 86 82 82 82 83 84 83
95 97 97 98 99 99 99 97 96 95 95 96 96 95 97 98 97 94 92 93 94 93 94 92 92 94 96 94 94 91 93 97 95 93 98 90 82 79 82 83 85 84 82
98 98 97 97 98 99 92 98 99 97 98 98 98 97 98 98 99 95 94 95 95 93 92 95 96 97 98 98 98 94 97 97 96 93 89 88 84 80 81 83 85 83 82
90 96 97 96 96 97 96 99 100 100 100 99 98 98 99 99 99 99 99 99 98 95 98 98 98 98 98 99 98 97 92 86 98 98 92 93 84 78 80 82 81 80 82
90 92 95 94 96 96 98 99 99 99 99 99 98 98 99 98 95 98 93 91 97 99 99 98 98 98 99 97 95 94 91 86 93 98 95 92 85 79 78 79 78 78 79
82 88 91 93 92 94 97 98 98 98 98 97 98 98 96 95 95 93 94 91 94 93 92 99 96 96 97 97 95 90 88 85 88 92 95 91 88 81 77 74 74 73 72
74 83 90 87 89 89 96 95 97 98 97 98 98 98 97 98 99 98 99 94 91 88 93 96 96 96 97 96 96 88 81 82 86 90 89 90 88 85 80 75 72 73 70
39 73 88 88 90 89 94 92 96 98 98 98 97 97 97 97 98 97 98 99 94 90 95 95 98 98 99 97 97 93 89 81 86 88 89 89 88 88 83 77 72 70 69
23 70 86 81 90 92 90 91 95 98 98 97 98 97 97 96 96 97 96 96 98 96 94 94 96 98 99 98 97 96 92 86 84 87 88 88 93 86 86 82 78 79 77
16 52 84 85 90 91 93 92 96 97 98 98 98 98 97 97 95 97 98 97 97 95 95 95 98 95 97 99 97 97 88 82 85 82 89 89 93 94 93 87 85 83 83
14 54 82 84 88 91 95 96 98 98 98 96 97 97 96 96 96 97 98 98 96 97 97 97 97 98 96 96 92 96 88 76 79 87 88 84 90 90 91 90 84 83 85
17 68 77 88 92 93 97 97 97 98 98 99 99 96 96 95 95 95 98 98 97 98 96 96 98 96 98 97 97 99 91 80 78 84 87 86 85 83 92 90 90 92 82
27 58 79 85 92 88 91 85 90 92 98 95 99 98 97 97 97 96 96 98 97 97 96 96 96 96 98 98 98 94 97 92 83 81 84 82 85 81 87 88 89 91 92
40 79 81 85 88 85 89 95 97 98 99 99 99 99 98 96 97 97 96 95 96 95 95 96 96 94 96 99 94 93 93 88 84 88 90 80 86 86 83 85 86 84 90
48 68 77 83 83 89 90 91 92 86 93 90 88 98 98 97 99 98 95 95 95 96 96 94 96 94 92 96 97 92 84 84 81 98 91 85 78 80 86 87 86 84 83
81 74 76 84 88 89 88 90 89 92 94 96 98 97 98 98 99 98 96 95 96 95 95 94 96 96 94 92 88 91 84 84 84 77 89 92 91 76 77 85 84 82 76
89 89 82 85 88 88 86 89 89 95 95 96 96 98 98 98 98 99 98 98 96 95 95 95 95 95 95 92 91 86 80 80 78 84 89 86 79 87 85 83 86 82 78

GFSSE_sfc_rhum_093.txt.gz
RH
91 96 95 94 94 94 93 91 91 91 91 90 90 92 92 92 91 91 90 90 90 87 84 81 83 83 83 81 85 86 87 88 86 87 87 85 81 82 85 90 88 85 87
89 93 95 95 95 94 93 92 92 91 90 91 91 91 92 92 92 92 91 91 88 87 82 82 81 81 79 85 87 88 88 90 89 90 87 83 79 78 85 89 90 88 88
89 92 93 96 95 94 93 92 92 91 90 90 92 92 92 92 92 92 92 90 89 87 82 81 79 79 82 88 89 89 89 90 92 90 87 90 82 80 84 89 90 88 86
87 92 92 95 95 95 94 94 93 91 90 90 91 93 93 92 93 93 94 93 90 87 80 80 80 84 88 90 91 92 92 92 93 92 93 92 77 82 81 86 85 85 85
89 91 93 95 95 95 95 95 94 93 93 92 92 92 93 93 92 93 93 92 90 87 83 74 77 82 90 92 93 94 93 92 92 92 97 95 81 81 81 83 85 87 88
92 92 97 96 95 95 95 95 96 96 95 94 94 93 93 93 92 93 94 90 89 87 84 81 85 88 91 94 94 93 93 93 94 97 97 91 86 79 81 87 90 90 90
96 97 96 97 96 95 94 95 96 96 95 95 95 95 94 93 93 93 92 92 90 88 85 83 83 88 92 93 92 92 94 93 96 98 98 97 89 82 82 86 88 87 89
94 97 96 96 97 97 96 96 96 96 96 96 96 96 95 94 94 92 91 92 91 86 87 85 87 88 91 92 91 93 93 92 95 98 98 97 88 84 82 84 88 89 91
93 96 98 98 97 97 98 98 98 97 97 97 96 96 96 96 95 93 92 90 90 89 88 88 88 89 88 88 90 96 94 95 98 98 95 93 86 81 80 82 87 89 90
98 97 98 98 98 98 98 98 98 98 98 98 97 97 97 96 95 93 92 93 90 90 89 89 90 92 88 89 95 96 96 94 97 97 97 89 87 80 84 83 84 86 86
96 98 96 94 94 93 94 98 98 98 99 99 98 98 99 98 97 96 95 92 92 94 92 94 96 94 91 94 97 97 96 97 97 98 98 91 85 81 83 83 86 85 83
98 99 99 98 96 96 96 99 99 99 99 99 98 98 99 99 99 97 95 93 94 95 95 96 95 91 92 95 99 98 99 98 98 98 91 90 85 80 80 83 85 84 84
90 96 98 98 98 98 98 97 98 98 100 99 98 98 99 100 99 99 100 99 99 96 99 97 96 96 96 97 98 98 99 99 99 99 94 90 86 82 81 83 84 83 84
96 94 96 96 97 97 98 98 94 93 98 100 100 99 99 99 96 98 98 97 99 97 98 98 98 98 95 97 95 98 97 98 99 99 96 93 86 82 80 82 82 82 83
88 93 96 95 96 96 98 98 99 95 96 99 99 98 94 96 93 95 92 93 95 94 98 99 99 97 97 98 98 97 97 97 98 99 97 92 91 85 79 78 78 78 79
54 86 95 96 94 96 97 97 98 98 98 99 99 94 94 93 94 91 92 93 85 86 95 99 98 98 98 96 99 98 96 96 98 98 99 96 92 90 84 78 76 74 75
39 68 95 96 95 96 96 97 98 98 98 98 98 95 92 93 93 91 92 91 87 88 92 99 98 99 98 95 97 98 96 96 98 98 96 98 94 89 88 85 80 76 73
30 66 86 87 94 96 95 96 97 98 98 98 98 97 95 98 98 98 95 97 93 94 95 97 98 98 97 97 98 98 97 96 97 98 96 93 97 92 90 88 84 82 77
18 42 79 91 91 94 95 96 95 97 98 98 98 98 96 97 97 98 97 95 95 95 94 96 97 94 98 99 98 97 97 98 95 93 93 95 96 95 94 88 84 84 82
17 24 62 87 89 92 96 97 98 98 99 98 98 98 97 97 97 96 96 95 95 94 96 96 97 97 97 97 93 97 98 96 97 97 92 89 95 94 94 93 91 81 85
24 24 52 87 91 94 98 97 98 98 98 99 98 96 97 97 98 98 95 97 92 94 93 95 98 97 99 98 98 99 98 97 96 97 91 89 93 91 95 96 97 96 86
20 35 52 78 92 92 92 93 94 93 96 96 97 97 95 97 98 97 96 96 94 96 96 97 96 97 98 97 98 96 99 99 99 97 94 89 93 89 92 94 95 93 93
59 47 71 77 90 88 89 96 99 98 99 100 99 98 98 97 98 96 97 96 96 96 98 97 96 93 95 98 96 95 99 98 97 96 95 93 93 91 89 90 93 91 93
83 82 68 78 86 88 92 94 95 89 92 90 95 93 98 98 98 97 97 97 97 97 97 96 95 94 94 97 98 95 93 92 93 99 97 92 90 87 90 91 92 91 92
83 93 79 82 86 88 93 88 90 88 90 98 97 96 98 99 98 96 96 97 97 96 95 96 98 97 96 94 93 97 98 94 97 95 97 98 94 85 87 90 88 89 87
86 90 92 91 91 89 90 90 85 89 95 98 98 94 99 99 98 97 94 97 96 96 97 96 96 95 95 93 94 91 88 90 94 97 96 93 88 94 84 88 92 88 87

GFSSE_sfc_rhum_096.txt.gz
RH
90 94 94 95 95 94 93 93 92 89 91 93 93 91 88 87 89 90 91 93 92 89 85 82 84 82 83 81 86 88 88 87 88 85 86 85 81 81 86 89 89 81 86
89 94 94 95 95 94 93 92 93 91 89 92 94 94 91 89 90 90 92 93 91 88 83 82 83 83 82 86 86 90 90 89 88 86 86 84 83 82 85 90 90 84 87
93 95 93 92 94 94 93 92 92 91 89 90 93 94 94 93 91 91 92 91 90 87 82 80 79 79 82 86 88 90 91 90 88 88 86 85 78 80 85 90 90 87 86
90 95 94 94 90 95 94 93 92 91 90 90 91 93 94 93 92 92 92 91 90 87 83 79 78 80 88 88 90 91 92 92 92 92 90 90 75 82 81 86 86 84 85
93 94 95 96 96 95 95 94 94 92 91 92 91 91 92 92 91 91 92 92 90 87 81 78 81 88 89 90 92 93 94 94 94 94 96 90 84 82 80 84 85 86 89
97 96 97 97 97 96 95 95 95 94 93 93 94 92 92 92 92 93 93 91 90 86 84 82 77 90 90 92 94 93 94 94 94 96 96 87 84 81 81 86 90 90 89
97 97 97 97 96 95 95 95 96 95 94 94 94 94 93 92 93 93 93 92 90 87 85 84 84 90 92 94 94 94 94 94 93 97 97 94 84 80 80 86 90 90 90
95 97 96 96 96 95 95 96 96 95 95 95 95 95 94 94 94 94 93 93 92 88 88 87 89 91 93 94 94 94 94 92 93 97 97 96 86 82 82 85 90 92 92
96 98 97 95 95 96 97 96 97 96 95 96 96 96 96 96 95 93 92 94 91 89 90 90 91 92 92 93 96 96 94 94 96 97 95 96 85 82 81 84 89 91 91
98 94 93 91 95 98 97 97 97 97 97 96 96 97 97 96 95 94 93 92 92 90 90 89 88 91 90 95 96 96 95 96 97 98 98 93 84 82 81 82 85 89 89
98 98 93 90 88 90 92 98 97 97 98 98 97 97 99 98 97 95 95 94 92 92 91 90 91 92 93 97 96 96 96 98 98 99 98 90 84 82 82 84 86 90 87
97 99 89 90 90 86 86 96 98 93 94 96 96 99 99 99 99 98 97 95 94 94 94 95 92 92 91 98 98 94 98 98 98 98 97 91 85 79 83 86 88 87 88
93 97 94 90 89 90 88 92 95 91 93 96 99 99 99 100 99 99 100 99 99 97 99 98 97 98 97 98 99 99 98 98 99 99 96 91 84 80 81 83 84 84 86
87 95 95 98 92 91 91 91 86 86 92 96 99 99 99 99 98 98 98 99 99 99 99 98 98 97 98 98 96 97 97 98 99 99 98 95 86 82 81 81 82 83 84
90 94 94 97 98 98 94 91 88 86 90 93 98 99 95 98 96 95 97 96 99 99 97 95 93 95 97 96 96 95 97 97 97 98 98 98 92 83 82 80 80 80 83
56 78 92 96 95 98 95 95 91 89 89 92 96 95 95 94 95 94 94 96 93 94 94 94 93 94 96 95 96 97 98 98 97 98 96 97 94 91 85 81 78 75 79
28 43 85 95 94 96 96 97 98 96 92 93 92 92 90 93 93 92 94 95 94 93 98 99 99 99 99 98 98 98 98 99 98 98 97 95 93 93 94 88 82 79 79
23 35 48 86 95 94 94 94 98 98 98 97 95 92 92 91 91 94 95 96 95 95 95 97 96 95 97 98 98 99 99 99 99 98 98 96 96 90 92 91 87 83 82
20 27 48 85 95 94 94 94 96 97 98 98 96 93 93 92 94 95 94 94 96 97 96 96 97 94 95 97 97 98 98 99 99 97 97 98 96 94 91 92 89 88 83
41 22 27 69 92 95 94 95 97 98 98 96 97 93 92 95 94 97 96 96 96 97 98 98 96 96 96 95 95 98 98 98 98 99 97 96 95 92 90 88 88 85 88
78 50 27 56 91 94 94 95 96 95 95 97 94 92 91 93 95 96 97 96 96 96 96 95 96 97 99 97 98 99 98 98 98 99 98 98 95 92 91 89 89 86 82
83 83 69 37 79 94 85 88 94 94 92 94 94 94 95 94 95 96 97 97 95 96 96 96 96 99 97 96 98 97 99 99 99 98 98 98 95 92 91 91 91 89 87
80 85 82 88 64 88 87 88 99 98 99 99 98 99 97 97 96 95 94 95 96 94 96 96 97 98 98 98 94 95 99 98 98 99 99 98 97 92 89 91 91 88 88
75 80 82 84 83 87 88 89 91 88 89 88 97 98 99 98 98 96 93 95 90 95 98 96 96 96 95 97 98 94 91 93 96 99 99 99 98 93 93 92 92 89 88
70 78 80 83 89 84 90 89 93 92 90 95 90 75 91 98 98 98 97 93 94 95 95 97 98 97 96 94 93 97 95 95 95 95 98 99 98 96 92 91 90 89 89
78 81 80 85 93 91 85 90 94 90 96 98 96 96 96 97 98 98 97 97 94 95 96 97 96 96 96 95 94 93 88 91 96 96 96 95 95 98 90 88 92 91 90

GFSSE_sfc_rhum_099.txt.gz
RH
60 64 95 94 94 93 92 91 91 93 90 87 88 86 88 89 89 89 90 91 90 88 83 83 86 82 80 81 86 87 87 87 89 88 87 86 82 81 84 90 88 60 85
61 73 94 94 94 92 93 92 90 93 93 90 88 87 88 89 90 89 91 91 90 87 85 84 83 82 83 86 90 89 89 88 88 88 88 86 83 82 85 89 82 70 86
67 77 79 95 94 93 92 92 91 91 94 94 91 89 88 90 90 90 91 90 90 87 86 82 80 82 85 88 90 90 89 88 89 88 85 55 59 83 85 89 88 88 87
66 72 73 96 94 94 93 93 92 90 92 94 94 93 90 90 90 91 92 92 90 88 84 80 79 82 87 89 91 92 90 90 90 90 62 57 56 84 84 86 85 84 85
67 69 71 93 94 95 94 94 93 92 92 94 95 94 93 92 91 91 93 92 90 87 84 79 81 88 88 90 92 91 92 92 94 78 64 60 62 74 81 84 86 88 85
69 68 89 94 93 95 94 94 94 92 92 92 94 94 92 92 91 92 93 92 90 87 84 82 86 91 90 91 92 93 94 95 92 66 63 70 70 80 82 86 88 90 89
74 72 81 96 96 95 94 94 94 93 93 93 93 94 93 92 92 93 93 91 91 87 84 86 89 90 91 92 93 94 95 94 66 70 64 66 74 83 82 87 90 90 90
80 80 80 94 96 95 95 95 95 93 93 93 93 93 93 94 94 93 93 93 93 90 89 88 89 91 93 94 94 95 95 91 77 73 69 63 81 82 81 86 90 91 91
84 86 84 85 87 98 98 97 97 95 94 94 94 95 94 95 95 93 93 93 93 92 90 89 91 91 93 95 95 95 94 93 83 79 74 66 85 82 83 86 89 91 92
86 85 84 85 89 87 87 98 97 96 96 95 95 96 96 96 95 94 94 94 92 91 90 92 92 91 94 94 96 95 94 94 88 82 81 65 86 81 82 85 87 90 91
85 86 86 85 85 86 86 86 96 96 96 96 94 96 95 75 77 78 86 93 95 93 92 93 92 92 95 96 95 95 96 89 91 95 82 87 84 80 81 86 89 90 90
77 90 85 88 89 87 79 87 86 83 81 83 83 82 80 80 77 77 85 95 96 92 93 94 92 93 94 76 77 92 76 82 88 94 79 94 83 80 82 86 89 90 89
64 72 84 86 87 89 86 83 85 82 82 90 90 89 89 88 80 78 84 76 79 89 79 84 81 74 74 74 73 77 77 77 91 92 79 95 80 81 80 84 86 87 88
67 60 71 77 86 89 86 84 81 83 84 89 92 92 92 94 88 84 82 79 80 78 89 79 85 81 77 74 75 76 75 80 96 94 85 96 80 83 81 82 84 86 87
33 53 71 77 83 83 90 86 86 81 81 84 92 89 87 91 87 89 88 85 76 77 82 86 85 78 76 75 75 75 74 81 94 94 89 94 92 84 82 79 79 82 85
21 24 62 75 79 82 84 88 85 81 77 85 92 87 88 86 90 89 93 90 85 83 86 91 91 85 79 77 81 82 80 83 96 95 95 91 97 88 85 83 81 81 82
21 20 28 65 78 83 81 83 86 82 79 81 86 90 89 88 90 90 90 90 85 85 88 95 91 92 89 81 80 90 86 92 98 97 97 96 90 96 94 92 84 81 78
40 40 33 26 69 85 84 88 86 88 86 86 85 88 87 87 90 92 90 90 84 91 94 97 95 94 92 93 94 94 85 92 96 99 98 97 80 66 92 93 92 85 84
51 59 48 38 44 74 83 82 84 86 90 89 87 85 90 88 89 91 86 86 85 91 94 95 94 90 93 95 91 92 93 91 94 97 99 98 79 69 67 92 93 89 88
58 62 63 54 41 60 78 86 88 91 88 84 86 85 85 90 90 92 90 91 88 89 94 94 92 91 91 94 89 93 92 92 95 98 98 98 95 79 68 69 72 70 90
59 61 64 67 64 44 78 83 86 89 86 88 84 86 87 90 92 92 93 91 90 92 92 92 93 91 98 94 98 98 97 96 95 96 98 98 98 96 85 66 63 61 70
61 62 65 66 66 59 55 68 73 82 87 84 88 91 89 90 92 94 92 92 93 94 93 94 93 97 96 94 97 97 99 99 99 97 98 98 96 95 94 74 65 65 60
62 64 63 67 68 69 68 66 77 84 92 96 96 97 92 90 91 92 88 92 94 93 96 94 92 95 95 96 92 92 99 98 98 98 98 96 97 96 91 79 66 63 60
62 64 67 69 70 69 72 70 73 78 78 80 84 92 96 96 97 98 94 92 93 93 93 92 91 94 95 97 95 86 83 79 90 99 98 98 97 96 95 82 67 64 59
64 67 72 73 73 74 78 73 74 80 76 75 82 93 96 92 93 88 90 96 94 93 90 88 96 96 95 95 96 96 92 91 82 87 99 99 99 95 93 88 77 66 64
67 72 75 77 79 76 80 76 80 79 79 86 84 94 89 88 88 83 90 95 92 92 90 90 92 94 95 93 94 94 88 86 83 79 87 92 96 98 97 96 92 79 68

GFSSE_sfc_rhum_102.txt.gz
RH
35 43 94 93 91 91 91 92 94 92 89 87 87 88 89 90 89 90 91 91 90 87 84 84 86 85 81 80 83 87 87 87 89 88 88 85 81 81 84 88 85 53 85
37 50 95 93 91 91 91 92 94 92 88 87 88 89 90 90 90 90 91 92 89 86 81 82 84 82 81 85 89 88 87 89 90 89 89 84 82 82 84 86 83 66 86
42 52 73 94 91 91 91 91 93 93 90 90 89 90 90 90 90 90 92 91 90 86 84 82 80 79 85 90 90 88 89 89 90 90 87 48 52 83 83 86 88 87 86
39 49 58 95 92 92 92 91 92 93 93 92 90 90 91 91 90 91 92 92 90 88 86 80 78 84 88 90 90 89 89 89 90 90 52 40 50 84 84 85 85 84 85
42 45 48 94 93 92 92 91 91 93 94 94 92 91 91 91 91 91 92 93 91 88 86 79 81 88 89 91 91 90 90 90 92 76 40 41 46 72 83 84 85 87 85
44 43 75 95 94 92 92 91 91 92 94 95 95 93 92 91 90 92 93 92 90 88 85 84 85 89 89 92 92 91 92 93 93 43 39 52 47 80 82 86 84 84 87
50 48 56 96 95 93 92 91 92 92 93 95 95 95 93 92 92 93 93 93 91 89 87 86 90 89 89 91 92 92 94 94 50 41 39 51 55 83 82 83 88 88 89
58 58 60 88 95 94 93 94 93 93 93 93 95 94 94 94 94 93 93 92 92 92 90 90 92 90 90 91 92 95 96 93 58 42 40 51 78 84 81 85 89 90 91
64 65 66 70 79 98 97 96 95 94 93 93 94 94 95 95 95 93 92 92 92 92 91 90 91 90 91 92 93 96 96 91 47 44 50 48 86 84 81 86 89 92 92
65 70 70 74 78 70 72 98 96 94 94 94 94 94 95 95 94 94 93 93 93 93 91 92 94 92 92 94 95 96 95 92 56 58 60 53 85 82 81 86 88 91 92
62 65 74 77 80 80 68 69 93 96 94 95 91 96 91 60 67 70 77 90 94 93 92 94 94 93 94 95 95 95 96 56 60 56 62 83 84 81 80 86 90 91 91
55 62 63 74 81 80 74 78 70 64 63 64 62 66 64 60 57 53 68 94 95 93 92 93 95 94 94 64 64 89 59 50 67 60 51 93 85 80 82 89 91 91 91
42 50 56 67 71 74 75 70 77 73 68 68 64 61 63 57 58 58 57 64 67 86 59 68 70 64 60 62 64 56 52 61 58 53 55 97 88 80 83 89 88 89 90
17 31 47 54 65 72 65 66 70 78 75 78 79 83 75 72 58 58 54 57 64 57 58 56 55 59 60 60 61 62 62 53 45 49 56 93 97 79 85 89 85 86 90
14 16 27 49 60 62 69 62 63 71 67 67 73 78 79 73 71 58 56 57 63 56 61 61 63 64 64 66 63 64 63 60 55 53 56 92 95 86 87 85 83 84 84
18 18 20 30 48 56 62 64 62 62 57 67 73 79 84 74 68 73 74 72 53 60 68 64 70 64 68 69 72 71 66 62 58 63 72 64 96 94 92 84 83 82 82
27 28 33 30 36 52 60 59 60 54 57 53 67 81 83 80 73 73 73 71 70 63 73 76 79 74 74 70 70 75 68 69 65 65 74 85 72 99 96 92 85 84 84
32 37 39 36 38 39 52 54 54 53 56 51 56 73 76 80 75 80 75 75 78 79 81 85 86 89 87 76 73 74 67 73 78 73 83 94 76 94 98 100 89 85 86
35 43 45 46 47 43 40 49 54 61 62 56 53 60 70 82 76 80 76 74 81 86 83 87 91 87 87 75 67 70 73 86 84 79 93 88 90 96 95 98 96 96 90
38 42 44 45 52 52 45 42 50 51 70 60 59 58 66 80 82 82 78 82 84 86 84 87 88 87 85 81 84 91 90 80 77 85 90 95 93 98 88 78 76 73 93
42 44 45 49 51 50 46 35 45 53 66 62 55 60 66 73 83 82 82 86 85 85 83 86 87 92 90 87 94 97 96 88 84 92 88 95 98 96 92 72 72 56 67
45 47 49 49 50 50 48 44 38 45 48 56 57 66 67 74 82 82 86 88 87 86 86 86 81 92 90 90 95 96 99 98 89 88 89 94 96 98 88 77 63 58 63
48 51 51 52 53 56 57 51 47 48 50 65 71 77 73 76 82 84 86 88 88 86 87 82 86 90 96 96 83 81 98 95 97 93 92 89 97 98 96 95 90 61 57
50 53 56 58 57 56 61 58 56 47 49 52 58 77 84 84 88 87 91 90 91 90 90 86 85 84 87 96 95 80 66 73 86 98 98 94 91 94 94 97 95 83 61
52 56 62 65 64 65 68 72 67 57 52 46 55 78 89 90 90 87 91 92 94 92 91 88 85 80 86 91 94 91 84 76 70 74 97 98 97 93 88 90 90 84 74
50 58 66 71 72 71 73 75 78 73 57 50 55 81 91 95 92 90 88 88 90 92 91 92 87 79 82 88 90 90 84 79 72 80 81 92 95 97 93 92 91 84 81

GFSSE_sfc_rhum_105.txt.gz
RH
23 52 92 91 90 91 91 93 93 90 90 90 89 90 91 90 91 92 92 92 89 87 84 82 85 83 80 80 81 83 84 85 88 89 88 84 80 82 84 88 85 57 86
30 52 94 91 91 90 91 93 93 91 89 89 90 91 91 91 92 92 92 92 90 86 83 82 82 81 80 84 87 88 86 88 90 91 89 83 81 81 81 86 80 70 86
35 51 67 92 91 91 91 93 93 91 88 88 90 91 92 92 92 92 94 92 90 86 83 81 81 80 82 88 90 88 88 90 91 91 88 50 55 82 79 83 85 87 86
32 37 53 94 91 92 92 93 93 90 88 89 90 91 92 92 91 92 94 93 91 86 83 82 80 81 87 91 90 88 89 90 90 90 59 51 49 83 82 83 84 86 85
31 34 48 93 92 92 92 93 94 92 91 91 90 91 92 92 91 92 93 92 90 86 84 80 79 85 90 91 90 89 90 90 91 79 44 70 50 73 83 84 86 87 85
34 35 76 94 93 92 91 92 94 95 95 94 92 92 92 91 91 92 93 92 88 89 86 83 85 89 89 91 91 90 90 91 94 49 51 56 48 83 82 87 83 82 86
41 38 67 96 94 93 92 91 92 94 95 95 94 93 92 92 91 92 93 92 90 89 88 86 89 88 88 90 91 91 92 93 58 42 48 49 60 83 81 84 86 86 86
50 45 61 90 95 94 92 91 92 94 95 96 95 94 94 93 93 93 92 93 91 90 90 90 91 89 89 90 92 93 94 94 62 52 41 44 82 84 81 84 87 88 89
54 55 54 70 79 96 96 95 94 94 94 94 96 96 96 95 95 93 92 92 92 92 92 91 94 91 90 91 92 95 96 92 51 44 43 44 86 84 81 85 86 88 91
51 62 59 64 69 70 73 96 95 94 93 94 95 96 97 97 95 94 94 93 92 92 92 92 93 91 91 92 94 96 96 94 60 52 36 39 86 82 81 86 87 90 92
48 59 73 70 72 67 62 71 93 94 93 94 90 95 93 67 71 71 78 87 94 94 93 93 95 94 92 94 95 96 96 60 52 45 43 82 78 81 82 87 90 91 92
40 53 66 82 80 78 59 63 65 63 62 63 60 64 67 60 56 53 67 92 93 94 94 95 95 94 93 58 66 91 72 53 56 58 58 90 78 79 82 85 89 92 91
22 43 47 63 71 73 68 69 67 54 57 58 62 60 62 56 55 53 50 62 68 87 63 73 73 65 61 54 62 62 61 55 59 58 53 90 87 80 80 81 89 91 89
12 21 40 45 59 70 56 60 58 54 60 52 53 63 58 58 55 52 45 54 66 59 60 59 60 65 64 61 61 62 63 62 48 58 86 94 93 83 78 81 92 86 85
13 14 18 32 47 54 63 53 55 56 56 59 64 68 52 49 55 48 47 44 54 57 57 54 68 64 64 64 66 62 60 66 57 66 66 92 93 94 79 80 85 81 83
18 18 22 23 30 42 52 60 56 55 52 56 52 71 77 66 66 51 48 45 44 51 65 56 56 67 69 67 71 66 65 65 64 62 49 62 93 94 83 84 87 84 84
21 22 30 34 29 35 45 49 53 51 51 46 48 60 77 76 70 59 61 67 50 47 68 74 70 66 66 64 71 68 62 67 70 64 68 55 68 97 95 82 94 90 86
24 31 33 32 40 43 41 43 44 44 52 49 45 52 65 67 67 66 55 73 65 53 64 72 67 74 70 71 70 68 72 72 71 69 73 71 64 65 94 95 97 97 87
26 33 36 39 41 46 48 42 43 53 49 48 47 47 61 64 61 68 59 72 67 61 73 78 70 73 75 66 67 68 74 73 74 64 69 71 77 74 83 96 99 96 95
30 35 36 38 43 46 45 46 40 38 47 47 45 48 56 64 67 72 67 75 75 78 82 85 87 79 80 72 62 78 73 70 70 82 78 78 78 78 85 87 96 99 99
35 37 40 44 46 43 42 42 38 34 38 42 45 49 56 59 72 75 71 75 74 79 74 86 86 85 90 82 91 93 86 77 82 76 78 78 85 94 93 95 94 96 94
40 43 44 44 46 45 43 44 44 43 36 37 42 51 54 65 76 80 77 73 76 81 75 85 84 89 89 88 92 91 97 96 91 76 75 80 87 97 96 95 95 92 73
41 47 47 48 50 51 52 49 47 47 47 48 49 50 51 60 70 81 80 77 82 81 84 88 82 85 87 93 84 80 96 95 94 87 81 83 87 92 94 99 99 92 75
40 45 48 51 52 51 54 57 63 56 47 33 40 44 54 59 71 80 81 80 85 82 86 83 79 82 76 90 91 73 64 61 70 96 91 84 88 89 95 97 98 98 94
40 46 51 54 54 55 58 65 71 72 58 47 42 44 54 66 74 76 82 84 89 87 88 86 84 80 74 82 87 91 74 72 66 68 90 92 93 89 88 93 96 96 96
41 49 54 57 57 60 67 71 77 80 75 63 47 47 51 68 82 84 87 87 86 86 91 92 91 81 75 75 78 82 79 80 76 71 74 81 86 94 92 92 90 92 94

GFSSE_sfc_rhum_108.txt.gz
RH
43 68 92 91 92 93 93 91 90 92 92 92 91 92 91 92 92 92 92 91 90 87 85 85 86 85 82 79 81 84 85 87 89 89 88 85 83 84 86 88 84 73 86
48 63 93 90 91 92 93 92 90 90 91 91 92 93 93 93 93 93 93 92 90 87 84 85 86 84 82 84 86 86 86 88 90 90 88 85 85 82 82 84 82 81 87
50 62 74 91 91 91 92 93 92 90 91 91 92 93 93 93 93 94 94 92 90 87 85 82 82 82 84 88 89 88 87 89 91 90 89 73 78 84 80 83 86 87 87
37 60 60 92 91 91 92 93 93 91 90 91 92 93 93 92 92 94 94 93 91 87 85 81 80 83 87 91 90 88 88 90 91 90 83 66 64 85 83 87 87 87 87
33 50 55 92 92 92 92 93 94 93 92 92 92 93 93 92 92 93 94 93 90 87 83 83 82 86 89 92 91 88 89 90 91 86 74 86 86 79 82 86 87 88 86
40 39 88 93 93 93 92 94 94 94 94 94 93 93 93 92 91 92 94 93 90 88 84 85 84 89 92 92 90 89 90 90 93 80 81 89 94 84 84 86 87 87 87
52 71 74 93 93 93 92 93 94 95 95 94 93 94 94 92 92 93 93 92 91 90 87 88 88 92 90 90 91 90 92 92 81 70 87 94 91 85 84 86 87 87 87
61 68 82 91 93 93 93 92 95 96 95 95 94 94 94 94 94 94 93 93 92 92 90 89 92 90 89 90 92 92 93 94 76 72 84 94 91 84 82 86 87 89 89
61 67 82 82 86 94 94 94 95 95 96 96 95 95 95 95 95 94 93 93 93 92 91 90 93 91 89 90 92 94 96 95 88 66 80 94 84 83 81 86 87 89 89
63 66 75 84 84 86 88 95 95 95 95 96 96 96 97 96 95 95 94 93 93 93 93 92 94 94 90 91 93 95 97 94 90 74 82 83 88 85 82 86 88 90 89
56 69 76 82 84 81 78 84 94 92 93 95 95 97 99 90 91 87 89 89 93 94 95 93 95 94 93 93 93 96 96 89 78 72 80 87 78 81 84 88 88 86 89
36 70 75 87 88 82 67 82 83 79 82 84 80 91 89 85 82 74 82 91 93 95 94 95 96 95 96 85 92 96 94 82 76 73 71 84 83 78 83 79 83 84 86
28 54 69 83 87 89 84 90 76 73 75 78 78 79 83 76 79 76 76 81 89 95 87 93 96 89 86 84 85 84 83 79 88 76 67 89 84 78 81 83 84 84 81
30 26 64 76 82 85 87 78 82 78 73 74 76 78 78 79 77 77 70 78 82 81 84 78 81 84 81 77 77 85 83 81 85 76 94 95 86 81 78 77 80 82 88
25 30 37 49 79 84 83 87 83 77 86 72 81 74 69 75 77 72 68 69 76 74 80 76 76 77 78 78 80 77 82 81 77 89 97 94 93 90 82 75 79 86 92
26 29 39 45 50 48 77 82 87 86 81 77 75 77 78 76 72 68 70 65 71 71 73 71 71 82 83 80 83 81 81 83 82 82 96 94 93 91 90 81 80 87 88
27 31 44 46 56 62 61 63 80 76 83 80 71 76 78 79 85 79 77 71 64 68 72 76 80 90 86 80 81 85 85 84 86 83 87 93 88 94 94 87 86 89 90
30 41 42 40 55 61 65 66 58 60 72 70 67 68 80 79 78 82 74 74 81 76 76 79 79 89 90 89 86 87 86 88 87 85 85 87 79 84 98 99 82 90 93
32 44 47 51 56 62 64 65 64 65 58 67 66 66 78 79 80 81 77 73 78 78 85 80 82 83 91 92 84 82 82 91 91 84 85 88 88 84 93 99 98 94 95
39 45 48 52 60 62 61 66 64 61 60 54 60 64 67 78 79 80 77 78 78 76 77 86 85 88 90 89 76 84 90 92 90 88 85 87 88 90 91 96 98 98 97
47 48 50 55 59 58 58 58 57 58 58 56 51 59 68 74 78 75 76 76 81 79 77 87 93 90 96 94 94 94 96 92 90 95 95 94 93 92 94 96 98 97 96
47 52 52 52 56 57 56 61 62 64 62 61 59 60 61 64 76 79 81 82 81 81 82 88 90 94 93 90 93 97 99 97 96 95 91 90 94 95 97 96 96 97 96
50 54 51 54 56 59 61 58 60 62 61 62 60 57 54 61 69 77 81 86 89 92 96 89 90 91 92 94 86 94 99 97 98 97 92 95 94 98 98 99 97 96 97
50 54 54 56 57 55 62 66 71 72 73 69 67 60 53 65 67 74 81 84 88 88 95 94 91 88 84 94 93 82 86 88 96 99 97 94 94 96 98 99 99 96 93
48 55 59 61 59 61 63 69 74 77 74 72 71 69 66 59 66 72 81 86 89 89 85 87 91 85 87 86 90 92 86 90 89 92 98 98 97 96 95 98 98 99 99
49 57 62 64 64 63 65 70 76 80 80 80 78 78 72 65 68 70 81 86 86 91 91 88 86 89 91 88 86 88 88 87 90 94 94 96 93 98 97 96 97 96 98

GFSSE_sfc_rhum_111.txt.gz
RH
74 89 94 94 93 93 94 94 94 93 93 92 91 91 91 90 90 91 92 93 91 88 85 84 88 86 82 81 83 85 87 89 90 90 88 87 83 83 86 87 85 79 86
73 84 94 93 93 93 92 92 92 93 93 92 92 92 92 91 91 91 91 91 91 88 84 84 84 82 82 86 84 84 87 88 90 90 89 86 86 82 82 86 85 85 87
73 83 85 93 94 94 92 91 91 92 93 93 93 94 93 92 92 92 92 92 91 88 84 84 82 82 85 89 88 86 86 89 90 90 89 92 91 84 80 87 89 88 88
66 80 84 92 93 94 94 93 91 91 92 93 93 94 93 92 93 93 93 92 91 90 86 82 81 83 88 90 89 88 87 89 91 90 90 81 73 84 79 87 88 87 87
66 68 76 93 93 92 93 94 94 92 93 94 94 94 93 92 92 93 93 92 91 91 87 81 83 88 90 93 92 89 88 89 93 88 92 90 86 81 83 86 87 87 88
63 62 88 94 94 92 93 93 94 94 94 95 95 94 93 92 92 93 94 92 90 89 86 88 88 88 93 94 93 89 90 90 93 92 93 85 88 86 78 84 87 88 90
76 82 86 94 94 93 92 93 94 95 95 95 95 95 94 92 92 94 94 93 91 90 88 88 88 92 94 92 92 90 92 92 88 94 95 89 80 71 84 84 87 88 90
81 87 89 92 93 94 93 94 96 96 96 95 95 96 95 94 94 94 93 94 93 93 91 90 92 92 91 90 91 93 94 94 83 90 93 90 83 81 86 82 88 90 90
82 90 95 94 92 94 94 95 97 96 96 95 95 96 96 96 95 94 93 93 93 93 92 92 94 93 90 90 92 95 95 95 95 95 88 93 86 83 78 83 87 88 89
77 94 95 96 97 98 97 96 96 96 97 96 96 96 97 96 96 95 94 94 93 94 94 92 94 94 92 92 93 95 97 97 96 94 94 95 88 88 78 82 86 87 87
77 82 96 96 94 97 97 93 95 96 97 97 97 97 99 98 97 96 95 94 94 94 94 93 95 96 94 93 93 95 97 98 94 90 97 89 85 77 78 87 88 88 88
80 87 88 96 96 92 82 96 97 93 97 98 98 98 98 98 98 91 95 94 94 95 95 95 95 96 96 98 98 96 99 97 94 89 95 91 85 80 81 85 88 86 86
70 84 92 95 94 91 88 98 95 94 97 97 96 98 98 95 97 94 96 91 97 95 97 98 98 99 98 97 98 99 98 96 97 91 87 89 79 77 77 82 84 85 87
24 79 92 94 94 92 92 95 95 91 91 92 90 95 96 96 94 94 91 93 96 94 96 97 98 98 97 94 92 96 95 95 96 91 92 92 89 80 76 78 82 84 85
33 40 50 81 85 89 92 95 94 96 93 87 90 84 84 85 88 88 82 88 90 93 94 93 94 93 92 91 90 92 92 93 90 97 97 94 95 84 80 74 75 80 83
36 48 52 57 61 58 76 88 96 98 96 96 96 90 81 83 82 84 87 85 88 87 90 87 87 90 91 88 90 90 90 91 89 93 97 97 96 92 86 82 79 79 83
47 48 51 58 62 67 62 73 84 94 93 96 96 92 87 87 88 78 84 83 83 81 86 86 89 93 91 90 88 91 91 90 91 92 97 97 94 92 93 90 86 84 84
50 53 54 52 65 68 70 74 72 80 85 91 91 94 90 86 93 95 96 93 85 79 81 85 84 94 89 92 96 96 94 93 93 92 96 96 92 87 96 96 93 89 88
51 55 59 63 66 67 70 71 73 72 76 81 85 90 92 85 83 87 94 95 89 93 87 81 91 84 91 95 94 97 97 96 95 94 93 95 92 93 96 100 96 94 93
56 56 57 61 66 67 69 71 71 75 74 72 68 68 84 93 89 91 85 84 94 91 95 96 88 93 86 91 87 94 96 96 95 97 95 94 90 93 94 98 99 97 96
57 58 61 67 71 69 73 74 71 74 71 68 64 63 66 86 89 88 83 85 86 86 80 90 93 92 98 95 97 98 98 94 94 96 93 95 94 93 96 99 99 99 98
64 64 65 66 69 68 70 72 78 78 79 73 69 66 64 65 79 87 89 88 87 91 90 89 92 98 98 94 97 97 99 97 97 97 96 97 96 97 98 97 99 94 95
67 70 68 68 66 67 69 70 72 73 73 78 75 74 70 68 69 73 84 88 90 93 89 96 98 96 99 99 94 97 99 96 98 98 99 96 97 98 99 98 99 97 93
69 68 69 68 68 62 70 76 81 84 86 80 78 74 74 71 74 74 75 78 88 93 94 96 95 92 92 93 99 91 91 93 96 99 98 99 96 97 97 99 97 98 97
66 74 72 68 68 68 71 76 80 83 80 77 78 79 78 77 76 75 78 79 79 95 94 94 93 89 86 91 89 89 91 97 93 97 98 100 98 95 97 96 93 94 97
68 76 74 70 68 68 71 73 80 82 79 81 80 82 80 81 84 82 78 84 80 79 92 93 89 89 92 86 85 83 79 87 89 97 97 98 97 99 98 97 94 96 99

GFSSE_sfc_rhum_114.txt.gz
RH
85 95 95 93 94 95 95 94 93 93 91 90 90 89 88 90 91 91 92 92 92 90 87 86 88 85 83 81 84 86 84 87 88 87 87 85 82 84 87 89 86 82 88
82 91 96 94 94 94 94 94 93 94 92 90 90 89 89 89 91 92 92 92 91 89 86 86 86 83 84 86 85 88 88 90 90 89 86 85 85 82 84 88 87 85 90
83 89 91 95 94 94 93 94 93 93 92 91 92 90 89 89 90 92 93 93 92 89 84 83 83 82 86 90 86 87 90 91 90 90 88 94 90 84 83 89 90 89 90
78 86 90 95 94 93 92 92 94 93 92 93 93 92 90 90 90 91 92 93 92 90 85 82 81 83 90 91 88 86 89 90 91 90 91 88 79 84 83 87 88 88 89
76 80 82 94 95 94 93 92 93 94 94 94 94 93 91 90 91 90 91 92 92 91 85 80 81 90 91 93 91 88 88 89 93 89 93 91 91 83 83 86 88 88 89
76 73 90 94 94 94 95 94 93 94 95 96 95 94 92 91 92 92 92 92 90 91 89 85 88 91 93 94 93 89 89 90 93 94 95 91 90 84 84 86 87 88 91
83 77 90 95 94 93 94 94 95 95 95 96 96 95 94 92 93 93 93 92 92 92 90 92 91 92 94 94 93 90 92 93 92 96 94 84 84 86 81 86 89 90 91
88 89 89 94 95 94 94 94 96 96 96 96 96 96 95 94 94 94 93 93 92 92 92 92 92 94 94 93 93 93 94 94 89 94 96 86 78 77 79 86 89 89 90
91 93 95 96 94 95 95 96 96 97 97 96 96 97 96 96 95 94 93 93 93 93 94 93 94 94 94 93 94 96 95 95 96 96 91 94 79 77 78 85 88 87 92
94 95 97 97 96 97 97 97 98 98 97 97 96 97 98 96 96 95 94 94 94 94 95 94 94 95 94 93 94 96 97 97 98 95 96 95 87 81 80 84 86 86 91
92 96 97 98 98 98 97 95 97 97 98 98 97 97 99 97 97 96 95 95 94 95 95 95 94 96 95 94 94 97 98 99 98 98 98 92 89 80 81 83 86 86 87
89 94 97 97 98 98 90 97 98 96 98 98 97 95 94 95 98 95 97 96 95 95 95 95 95 97 97 98 98 97 99 98 98 96 97 93 90 82 74 83 86 84 83
37 90 96 98 98 98 97 99 99 99 99 100 99 93 94 91 99 99 99 98 98 96 98 98 98 98 98 99 99 99 98 98 99 97 88 94 89 79 76 84 85 82 81
59 89 94 96 97 96 98 99 99 99 99 99 99 99 96 97 99 99 99 98 98 97 98 98 98 98 98 98 97 98 98 98 99 98 95 93 89 84 79 78 80 82 82
59 81 92 85 82 87 92 96 98 96 96 95 97 96 97 99 98 98 96 98 96 97 97 98 98 98 98 98 97 96 97 97 96 98 98 91 91 84 77 77 79 80 84
53 60 66 68 69 65 84 85 93 97 98 98 98 95 95 91 90 90 93 94 95 94 97 96 97 97 97 97 97 97 96 96 95 96 98 97 95 94 84 78 78 79 81
55 59 65 70 72 71 73 77 88 92 93 95 98 98 96 93 92 84 85 89 90 91 96 96 96 96 97 96 96 96 95 95 95 96 96 97 96 94 92 89 86 84 83
60 63 65 60 70 73 74 75 70 83 91 92 94 96 97 93 92 96 94 89 90 91 94 95 95 97 97 97 97 98 97 96 95 96 96 96 96 90 94 91 90 88 87
62 64 67 67 69 72 74 77 79 80 81 87 88 90 91 94 94 96 96 96 96 95 95 93 94 93 97 97 97 98 97 96 96 96 96 96 95 94 95 98 92 94 93
63 64 64 65 68 70 72 74 76 81 76 77 77 75 76 85 82 96 93 92 97 98 97 95 91 92 91 90 92 96 97 96 97 97 96 95 95 93 94 96 98 97 96
65 67 67 70 73 71 76 78 77 80 77 78 73 72 75 83 82 77 88 95 95 96 87 96 96 97 98 96 99 99 99 97 98 98 97 97 96 94 92 96 98 98 99
71 70 70 70 71 72 74 80 87 80 88 77 79 75 75 78 82 80 86 87 92 95 96 97 93 92 95 98 95 96 99 99 97 97 97 97 96 95 94 96 98 98 99
75 74 73 72 72 72 76 75 77 79 81 83 79 79 77 75 78 83 84 86 87 91 94 94 96 91 84 99 98 99 100 98 99 96 99 98 97 97 96 97 99 94 94
77 73 72 68 70 69 74 79 85 88 89 81 82 79 78 77 80 83 86 87 88 89 91 93 97 96 95 94 99 98 96 98 98 99 98 98 98 98 97 98 98 96 92
73 76 70 71 70 70 74 78 84 86 84 81 78 78 77 78 80 84 87 89 89 86 86 91 98 98 92 94 93 95 91 95 96 96 98 99 98 94 97 95 97 97 93
72 71 70 72 74 72 74 79 76 78 81 83 80 82 81 80 80 80 81 90 90 89 89 90 96 94 94 90 87 81 84 89 88 96 98 96 89 94 94 98 96 97 94

GFSSE_sfc_rhum_117.txt.gz
RH
88 98 94 95 95 95 95 93 92 91 91 90 90 90 92 92 92 92 93 94 92 88 86 85 87 85 82 78 82 84 86 86 86 85 88 87 84 85 87 89 88 82 86
81 96 95 95 95 95 94 94 93 92 91 91 90 91 91 91 91 92 94 94 92 89 84 85 85 83 83 82 87 87 88 88 88 87 88 86 85 84 84 89 88 86 86
85 94 94 95 95 95 94 94 94 92 91 92 90 90 90 91 91 92 93 94 93 90 85 84 83 83 86 87 88 89 90 90 90 88 90 95 91 84 84 89 91 90 87
86 92 94 95 95 95 95 95 95 93 91 92 90 90 90 91 92 92 94 94 92 90 86 84 83 84 91 90 88 89 91 91 91 89 94 94 85 85 84 87 88 87 88
85 89 90 95 95 94 94 94 95 95 94 93 92 90 90 90 91 92 94 94 93 91 85 80 81 91 93 93 90 88 90 92 92 90 94 94 93 85 83 86 87 90 90
85 85 94 97 95 93 92 93 94 95 95 95 94 91 90 90 90 92 93 94 92 90 86 84 89 92 94 94 91 89 90 91 94 95 94 91 93 84 80 84 88 91 92
86 87 94 97 96 95 93 92 94 95 95 95 95 94 92 91 91 91 92 93 93 92 90 90 92 94 94 94 93 90 92 93 95 96 95 95 94 85 79 83 88 90 90
89 91 93 94 95 96 96 95 95 95 96 95 96 95 94 93 94 93 92 92 94 95 95 94 94 94 95 95 94 93 94 94 92 96 94 89 82 84 79 82 88 90 90
91 94 96 96 95 95 96 97 97 97 96 96 96 97 96 95 95 93 93 92 93 95 94 95 94 94 95 94 95 95 95 95 96 98 95 92 78 77 79 84 84 91 91
94 95 97 98 98 98 97 97 97 98 97 97 97 98 98 97 95 94 94 94 93 94 95 94 94 95 96 96 95 96 96 95 96 96 98 97 84 73 73 85 86 90 92
95 96 97 98 98 98 97 96 97 97 98 98 98 98 100 98 97 96 95 95 94 95 96 96 95 96 96 94 94 96 97 99 98 98 99 93 89 78 77 84 89 89 91
95 97 98 98 98 98 95 97 98 98 99 98 97 99 98 91 97 96 97 96 96 96 96 97 96 96 97 98 98 97 99 98 99 98 98 93 90 83 78 86 88 90 90
91 96 98 98 98 98 98 99 100 100 100 97 93 88 92 87 92 94 96 99 99 97 99 98 99 99 99 99 99 99 99 99 99 99 93 94 90 85 79 85 87 89 89
55 79 98 98 99 99 99 100 99 99 100 100 96 95 95 95 95 89 90 90 96 99 98 98 99 98 98 98 98 98 98 99 99 99 97 93 93 88 80 79 83 86 88
79 99 95 81 90 97 96 97 99 99 99 98 99 98 92 94 93 87 87 88 93 99 98 99 97 98 99 99 98 98 98 98 98 99 99 94 95 91 84 77 79 80 82
70 71 73 72 72 70 86 89 94 96 96 98 98 98 98 98 98 98 91 90 92 99 98 98 96 95 96 98 98 98 97 98 97 97 98 96 93 93 90 84 80 78 80
68 68 72 75 73 73 75 80 92 94 94 95 95 92 97 98 97 96 97 98 98 98 98 98 99 99 98 97 97 98 98 97 97 97 97 98 95 92 90 90 84 82 80
72 73 72 66 77 78 81 82 78 88 95 94 95 93 91 91 91 98 96 95 94 98 98 98 98 98 96 95 93 98 98 97 97 97 96 97 97 92 95 92 89 88 85
78 73 75 76 80 82 81 82 84 86 86 92 91 92 86 88 88 92 93 97 96 97 98 97 98 97 97 95 94 95 98 98 96 95 96 95 96 92 94 92 90 90 90
77 74 74 74 78 79 83 84 85 81 80 85 82 81 81 91 87 93 94 95 98 99 96 95 95 96 94 96 96 96 98 98 96 96 95 94 94 94 94 94 95 96 94
74 72 74 76 78 77 82 90 94 89 88 80 82 77 78 86 86 83 86 90 91 96 97 98 95 90 94 98 100 100 99 99 99 98 97 97 96 94 95 94 96 97 98
79 76 75 77 78 79 80 88 88 91 92 84 82 78 80 79 85 83 91 90 92 93 89 98 98 97 98 98 89 97 98 97 100 99 99 99 98 97 95 95 93 96 97
78 76 74 76 76 78 79 80 84 83 84 85 81 82 79 78 81 86 89 93 95 95 94 93 97 97 96 99 99 94 98 99 96 99 98 97 99 98 97 96 96 96 97
73 70 71 72 75 72 74 82 93 97 91 89 86 81 78 78 82 85 88 92 95 94 95 94 93 97 97 98 98 98 95 96 97 99 99 100 99 99 98 98 97 98 97
76 74 76 73 75 78 80 81 82 82 79 77 77 80 80 78 78 81 84 83 85 89 92 95 92 89 96 94 96 100 98 99 97 96 97 97 98 94 95 97 97 97 94
72 69 76 75 75 75 77 79 82 79 81 82 81 84 81 80 82 84 83 87 89 91 92 92 92 94 92 97 93 90 91 93 97 97 92 81 81 86 94 95 98 98 98

GFSSE_sfc_rhum_120.txt.gz
RH
87 95 94 95 95 95 93 93 92 90 91 92 90 89 88 87 89 91 92 93 92 88 85 84 85 82 76 77 82 85 85 85 85 88 90 88 84 85 86 89 88 80 85
91 97 95 95 95 95 93 93 93 92 90 92 92 92 91 89 90 92 93 92 92 88 85 84 85 83 79 80 85 86 87 87 87 88 91 87 85 84 84 89 88 84 85
91 96 94 96 95 94 93 93 92 92 90 91 92 93 93 93 92 92 94 93 91 89 86 83 83 83 82 86 86 87 88 88 87 89 91 92 89 84 84 90 89 88 87
90 97 96 95 95 95 94 94 93 91 91 91 91 92 92 92 93 93 94 94 92 89 86 82 81 84 88 87 87 88 89 90 89 90 94 93 83 84 83 86 87 85 87
91 96 95 95 96 95 94 94 94 93 93 92 92 91 91 91 92 93 94 95 93 90 87 81 82 90 92 90 88 88 91 91 92 89 94 94 92 84 83 85 88 88 88
93 94 96 96 96 94 94 94 94 94 94 93 92 91 91 91 91 92 94 94 92 91 88 85 88 94 94 93 90 88 92 92 93 93 94 92 92 83 81 88 90 90 90
91 93 97 97 96 94 93 93 94 94 94 93 93 92 91 91 92 93 94 94 93 91 89 88 94 94 94 94 91 89 92 94 93 95 93 93 94 85 80 84 88 90 90
90 92 95 96 96 94 93 93 94 95 95 94 94 93 92 92 93 93 94 95 94 94 93 93 94 94 94 93 92 92 93 94 92 93 93 94 91 85 78 81 85 88 90
91 94 96 97 96 97 97 96 95 96 96 95 95 95 94 94 94 92 92 94 94 95 95 94 95 95 95 95 94 94 94 94 95 96 91 92 82 77 79 81 82 85 91
94 94 96 98 98 98 98 98 97 97 96 97 96 97 97 96 95 94 93 93 93 96 95 96 96 95 95 96 96 95 95 95 96 95 96 95 82 76 79 84 85 84 87
96 96 97 98 98 98 98 97 97 97 98 98 98 99 100 99 97 96 95 95 94 96 95 96 96 96 96 96 96 96 96 98 97 96 97 93 86 77 74 86 89 88 86
91 95 98 98 98 98 97 97 98 98 99 99 96 95 97 94 95 98 97 96 96 96 96 96 96 96 97 99 98 97 99 98 98 97 97 93 90 82 75 84 89 90 87
75 94 97 98 98 98 99 99 100 100 96 95 94 95 94 92 93 93 95 99 99 97 99 99 99 99 99 99 99 99 99 98 98 97 94 94 91 85 80 85 88 87 85
29 85 97 98 98 98 99 99 100 100 99 98 96 95 97 98 97 96 92 87 91 96 98 99 98 98 99 99 98 98 98 98 98 97 98 94 92 87 81 81 86 87 90
30 91 93 98 98 98 98 99 99 99 99 98 99 96 97 98 98 97 96 95 90 91 93 92 94 92 94 97 98 98 98 97 97 98 99 96 93 91 86 81 82 81 88
80 94 85 86 85 76 90 92 95 95 97 98 98 98 97 98 97 97 96 94 95 96 93 91 89 89 87 91 94 95 97 97 97 98 98 96 95 93 92 87 83 82 83
81 79 80 82 82 83 87 87 95 95 94 95 95 94 93 93 94 95 96 94 92 91 98 96 98 96 93 90 90 93 95 98 98 97 97 96 94 95 95 92 89 87 84
77 77 77 75 83 84 85 91 91 93 96 96 95 96 92 89 91 94 96 93 96 98 98 97 96 97 98 97 93 93 94 96 97 97 96 97 96 92 95 94 91 89 87
79 78 76 77 82 83 84 87 86 87 89 92 93 93 90 91 89 95 95 96 96 97 99 98 97 97 97 98 98 96 95 97 96 96 96 97 97 95 95 95 94 93 90
76 75 75 76 79 80 85 86 86 85 88 87 87 82 86 90 88 92 94 94 94 96 98 99 98 99 98 97 98 99 98 98 98 98 97 97 97 97 96 95 95 94 92
76 76 78 78 80 80 89 92 90 87 90 89 81 82 84 88 89 89 92 94 95 96 94 91 98 99 97 93 97 99 98 99 98 99 99 99 99 98 98 97 96 94 91
76 72 73 75 77 78 80 85 90 90 90 89 84 85 82 84 89 85 94 95 96 97 95 93 91 99 97 94 94 96 91 83 93 98 98 99 99 98 96 94 93 91 90
78 75 70 72 75 74 76 77 81 87 86 86 86 84 81 80 86 91 93 95 94 95 96 98 97 93 98 99 97 97 100 97 97 97 92 95 97 98 97 96 95 91 88
78 77 77 74 74 69 76 78 84 90 86 80 82 84 82 81 83 86 86 87 89 91 93 93 95 97 98 97 100 98 97 94 97 99 99 96 97 97 95 95 95 93 91
78 83 79 81 84 74 76 77 82 86 83 80 80 81 80 81 79 79 84 86 89 91 91 93 93 90 97 94 96 99 98 97 97 93 98 99 98 92 86 93 93 93 93
78 81 82 77 76 80 79 76 81 82 80 82 82 83 81 80 78 82 82 86 87 89 91 92 93 94 94 91 91 94 92 92 92 90 89 90 89 94 88 83 88 94 94

GFSSE_sfc_rhum_126.txt.gz
RH
33 46 93 90 89 89 90 89 92 91 89 88 89 90 91 90 90 91 92 91 90 88 85 81 82 80 78 80 84 86 84 86 91 91 90 85 83 82 84 87 83 48 77
36 48 95 91 89 89 90 90 92 92 90 88 88 89 91 91 90 91 92 91 90 88 84 81 81 79 78 82 86 85 84 86 91 91 90 84 83 82 82 86 82 61 82
41 50 68 92 90 90 90 90 91 93 90 89 89 90 91 90 90 90 93 91 89 86 84 80 78 76 77 83 85 85 85 86 91 92 88 47 50 83 82 84 85 85 84
42 46 53 96 91 90 90 89 90 92 92 91 90 90 91 90 89 91 93 93 90 87 86 80 78 78 83 84 86 86 86 87 91 92 52 37 44 85 82 83 83 84 83
42 42 54 94 93 91 89 89 88 90 92 93 92 91 91 90 89 90 93 93 91 88 87 82 83 87 85 85 86 87 87 88 91 78 40 44 43 71 82 81 83 85 87
44 45 80 95 94 92 90 89 89 89 91 93 94 94 92 90 90 91 93 93 90 88 87 86 86 92 89 87 86 88 88 90 93 41 42 54 47 84 81 87 77 81 85
46 47 54 96 95 93 92 90 90 90 92 91 93 94 94 93 92 93 94 93 92 91 89 88 89 94 92 90 87 89 90 90 51 40 44 48 52 82 81 84 87 89 89
52 53 54 84 95 95 94 93 93 93 92 91 91 93 94 94 95 94 94 94 94 94 93 91 90 94 92 91 89 90 92 93 56 40 43 43 78 83 79 86 90 90 90
49 60 60 61 69 98 96 96 96 95 93 92 92 92 93 94 94 94 94 94 95 96 95 94 94 94 93 92 91 91 92 91 47 39 41 42 87 84 79 86 89 90 89
35 52 61 64 65 63 63 95 96 96 96 95 93 94 94 95 95 95 94 95 95 95 95 94 95 95 93 93 93 93 93 92 53 40 42 38 86 83 80 85 87 88 89
21 25 44 62 62 65 62 64 91 95 94 95 91 96 91 61 56 63 76 87 95 96 96 95 95 95 94 95 94 95 94 50 45 40 37 85 84 81 80 82 89 88 88
21 22 22 40 58 63 54 60 63 60 59 62 61 62 68 62 57 55 65 90 94 96 96 96 96 95 92 52 55 87 58 46 44 41 37 90 88 80 77 82 88 88 88
19 18 19 29 47 62 56 54 53 52 53 59 65 66 73 74 75 67 58 59 64 84 60 71 73 73 65 52 43 47 46 46 42 40 48 92 89 82 78 82 87 88 89
24 24 36 37 40 55 54 54 52 52 58 60 65 75 73 77 73 73 78 69 62 52 59 70 73 64 63 58 53 50 52 45 39 38 47 93 92 86 81 80 83 87 89
40 46 50 56 69 68 64 59 65 64 66 65 70 70 82 87 81 78 84 88 83 73 65 68 70 67 67 64 61 59 56 54 49 40 41 91 95 93 85 80 80 83 85
48 50 56 58 66 79 91 91 90 86 80 82 85 78 77 89 90 83 80 83 85 89 84 76 73 73 78 82 71 66 63 56 52 52 43 50 96 95 92 86 82 81 84
47 49 56 60 64 70 83 84 86 82 84 88 91 88 85 87 90 86 72 73 74 76 85 87 80 83 87 87 83 78 72 67 62 57 53 47 54 98 95 92 89 88 86
46 52 52 53 62 66 69 69 71 69 74 80 75 76 75 74 78 85 87 89 86 88 95 90 85 83 89 92 92 89 83 76 69 64 64 62 49 42 86 94 92 90 88
44 52 54 58 61 65 66 65 61 65 59 56 56 58 65 64 65 66 63 69 79 81 84 91 94 91 88 86 88 89 89 87 79 82 73 71 68 60 52 85 93 93 92
44 49 55 58 61 61 60 61 58 53 53 49 48 53 59 60 63 59 51 58 60 56 60 76 91 93 96 94 92 93 93 92 89 92 89 78 71 68 66 67 68 66 95
49 50 54 60 66 65 56 60 60 61 51 48 46 56 58 60 66 62 54 54 55 55 57 63 62 68 75 83 97 98 96 93 96 99 98 91 80 67 72 70 64 57 54
50 51 54 60 65 64 60 62 57 60 49 49 49 52 56 60 65 63 74 72 74 71 72 68 66 61 58 76 95 98 98 97 90 87 86 82 84 71 72 70 66 67 58
51 52 49 52 60 66 67 61 58 52 50 51 50 50 56 60 66 73 77 78 81 81 81 79 79 82 65 56 78 77 90 88 61 68 78 77 77 68 66 71 75 66 66
56 57 54 58 53 56 62 61 64 52 50 54 51 54 56 61 68 74 76 74 78 79 83 86 80 87 85 80 62 88 73 56 61 59 59 66 66 66 68 57 57 61 55
63 63 62 57 58 61 63 69 67 65 58 52 52 60 60 62 63 68 72 73 76 76 81 85 87 89 90 90 80 68 72 72 76 74 58 58 57 54 53 58 56 54 52
59 57 59 60 59 62 68 67 70 72 75 68 65 62 59 62 64 67 68 70 74 76 80 82 85 86 88 89 90 84 78 79 58 66 66 55 50 50 52 50 55 57 52

GFSSE_sfc_rhum_129.txt.gz
RH
28 41 89 89 90 90 91 92 90 88 88 89 91 91 92 92 92 92 92 91 90 87 82 80 80 80 79 78 81 84 84 89 91 89 88 84 82 82 81 85 82 50 84
30 40 92 89 90 90 90 92 91 89 88 89 91 92 92 91 92 92 92 92 91 87 82 80 81 79 80 85 86 84 85 89 90 90 89 83 82 81 79 82 76 61 84
33 44 59 89 90 90 90 91 91 89 88 88 91 92 92 92 91 93 93 92 90 88 84 79 79 78 79 85 85 84 85 88 90 88 89 47 53 81 79 82 83 84 84
34 45 45 92 89 90 90 91 92 91 89 88 90 92 93 92 91 93 94 92 90 89 84 78 77 77 82 84 84 84 85 87 90 88 58 62 48 84 79 81 82 82 83
33 34 58 91 89 89 89 90 92 93 92 90 91 91 92 91 90 92 94 93 91 89 84 78 78 84 83 85 85 84 86 87 89 78 61 61 55 72 80 81 83 84 87
34 37 81 93 91 88 88 89 90 92 93 92 92 92 92 91 90 91 94 93 92 89 88 85 87 90 86 85 86 85 86 88 91 46 35 50 62 81 81 85 79 81 85
36 40 58 93 93 91 88 88 89 90 93 92 93 93 92 92 92 92 93 94 93 91 90 90 90 93 90 86 86 87 87 89 57 40 33 42 59 83 81 82 85 86 88
40 43 52 88 93 94 93 92 92 93 92 91 93 93 94 94 93 93 93 93 94 94 93 92 92 93 93 89 88 88 90 91 53 41 33 36 81 85 80 86 88 88 90
36 47 54 55 72 96 95 96 95 94 92 91 90 92 94 95 95 94 94 94 94 95 95 94 93 93 93 92 90 90 91 92 58 37 32 36 86 85 79 87 90 89 89
22 32 43 50 55 56 63 95 95 94 94 92 90 91 93 94 94 96 95 95 94 95 96 95 94 94 94 93 93 92 92 91 59 45 33 42 87 82 80 87 88 89 88
19 23 29 38 42 51 53 60 92 94 93 94 90 93 91 60 56 63 76 85 94 96 97 96 96 96 96 95 94 93 93 55 47 42 32 86 85 80 80 86 89 89 88
20 20 19 36 43 46 39 45 57 57 60 62 60 60 67 61 55 48 60 85 94 95 96 96 96 96 94 54 56 89 64 52 43 36 32 88 84 78 80 86 88 90 88
24 24 34 44 53 44 42 38 40 40 45 50 66 70 72 67 62 69 59 62 65 88 65 73 70 65 59 54 44 55 54 51 42 34 41 89 87 80 77 84 86 90 90
30 34 42 46 57 70 70 42 38 36 38 40 44 66 72 74 68 71 67 69 68 56 61 68 78 69 63 59 52 51 46 42 37 33 43 89 88 84 79 79 84 88 88
37 42 48 50 59 62 74 77 84 67 56 55 61 70 75 74 80 79 75 76 73 75 74 69 67 68 76 74 71 64 58 50 47 39 34 90 91 89 84 79 80 82 87
42 46 51 52 60 61 70 83 91 93 93 92 93 90 88 91 86 86 81 80 80 78 68 72 76 72 74 72 76 75 71 62 57 51 39 60 92 92 90 87 84 83 85
40 44 52 54 60 63 63 68 73 85 92 91 90 87 82 83 87 87 90 88 87 83 80 81 79 79 73 72 69 67 72 70 63 62 55 41 65 95 93 92 90 87 86
43 49 48 48 54 59 62 59 65 77 78 76 70 69 75 70 74 79 82 90 89 90 92 85 88 92 87 85 83 78 74 74 70 73 69 58 48 50 89 92 91 90 89
39 45 47 52 55 56 55 59 59 66 66 64 62 64 68 66 66 67 64 69 77 74 84 86 90 92 90 90 92 87 85 82 81 74 71 74 72 68 68 90 92 93 91
40 44 47 50 56 54 47 50 52 63 62 58 58 62 60 60 60 58 50 55 55 53 53 59 74 72 92 93 90 93 92 88 86 88 84 87 85 88 87 80 80 74 94
43 43 45 50 55 51 49 49 47 54 61 61 57 56 54 57 63 62 61 61 63 61 64 66 62 64 58 70 92 89 93 93 90 96 98 95 94 90 92 91 79 80 68
45 46 44 45 48 49 46 49 48 49 46 54 59 54 52 56 64 62 71 70 71 71 74 76 77 72 60 54 77 91 92 91 97 96 94 91 85 67 77 75 73 70 70
50 51 46 47 47 52 53 45 46 44 43 45 45 57 56 56 60 69 69 68 70 72 74 78 81 85 84 68 63 73 89 73 61 83 93 89 85 78 71 69 72 72 71
52 52 51 51 49 50 55 52 57 51 51 50 48 47 50 55 58 64 68 69 70 69 75 78 73 84 87 91 74 58 62 70 84 75 74 82 78 75 74 67 62 65 66
50 50 52 51 49 55 56 60 56 59 55 52 54 56 53 54 56 59 65 68 71 68 74 78 80 83 83 90 88 86 76 64 66 78 80 62 69 67 67 68 65 61 63
50 52 51 50 47 52 55 59 65 67 67 64 67 65 63 58 56 62 64 67 70 72 75 77 78 81 82 85 85 84 88 88 75 69 79 73 66 55 54 56 63 63 61